<?xml version="1.0" encoding="UTF-8" standalone="no" ?>
<gpx xmlns="http://www.topografix.com/GPX/1/1" xmlns:xsi="http://www.w3.org/2001/XMLSchema-instance" xsi:schemaLocation="http://www.topografix.com/GPX/1/1 http://www.topografix.com/GPX/1/1/gpx.xsd" version="1.1" creator="VisuGPX - https://www.visugpx.com">
  <metadata>
    <name>31-Jan-2010 Downhill with group Fayence</name>
    <desc><![CDATA[31-Jan-2010 Downhill with group Fayence
==========================
]]></desc>
  </metadata>
  <trk>
    <name><![CDATA[Track 001]]></name>
    <desc><![CDATA[31 janv. 2010  9:30 am]]></desc>
    <trkseg>
      <trkpt lat="43.73996" lon="6.7125">
        <ele>1248</ele>
        <time>2010-01-31T08:30:48Z</time>
      </trkpt>
      <trkpt lat="43.73994" lon="6.7125">
        <ele>1223</ele>
        <time>2010-01-31T08:30:53Z</time>
      </trkpt>
      <trkpt lat="43.73991" lon="6.71249">
        <ele>1223</ele>
        <time>2010-01-31T08:30:59Z</time>
      </trkpt>
      <trkpt lat="43.73988" lon="6.71258">
        <ele>1225</ele>
        <time>2010-01-31T08:32:11Z</time>
      </trkpt>
      <trkpt lat="43.73988" lon="6.71261">
        <ele>1226</ele>
        <time>2010-01-31T08:32:13Z</time>
      </trkpt>
      <trkpt lat="43.73988" lon="6.71267">
        <ele>1226</ele>
        <time>2010-01-31T08:32:17Z</time>
      </trkpt>
      <trkpt lat="43.73988" lon="6.71271">
        <ele>1226</ele>
        <time>2010-01-31T08:32:20Z</time>
      </trkpt>
      <trkpt lat="43.73987" lon="6.71275">
        <ele>1230</ele>
        <time>2010-01-31T08:32:22Z</time>
      </trkpt>
      <trkpt lat="43.73985" lon="6.71279">
        <ele>1230</ele>
        <time>2010-01-31T08:32:24Z</time>
      </trkpt>
      <trkpt lat="43.73983" lon="6.71286">
        <ele>1230</ele>
        <time>2010-01-31T08:32:26Z</time>
      </trkpt>
      <trkpt lat="43.73981" lon="6.71297">
        <ele>1231</ele>
        <time>2010-01-31T08:32:29Z</time>
      </trkpt>
      <trkpt lat="43.73979" lon="6.71307">
        <ele>1232</ele>
        <time>2010-01-31T08:32:31Z</time>
      </trkpt>
      <trkpt lat="43.73977" lon="6.71318">
        <ele>1231</ele>
        <time>2010-01-31T08:32:34Z</time>
      </trkpt>
      <trkpt lat="43.73975" lon="6.7133">
        <ele>1231</ele>
        <time>2010-01-31T08:32:37Z</time>
      </trkpt>
      <trkpt lat="43.73972" lon="6.71344">
        <ele>1232</ele>
        <time>2010-01-31T08:32:40Z</time>
      </trkpt>
      <trkpt lat="43.73967" lon="6.71363">
        <ele>1232</ele>
        <time>2010-01-31T08:32:42Z</time>
      </trkpt>
      <trkpt lat="43.73963" lon="6.71378">
        <ele>1233</ele>
        <time>2010-01-31T08:32:45Z</time>
      </trkpt>
      <trkpt lat="43.73959" lon="6.71394">
        <ele>1234</ele>
        <time>2010-01-31T08:32:47Z</time>
      </trkpt>
      <trkpt lat="43.73956" lon="6.7141">
        <ele>1234</ele>
        <time>2010-01-31T08:32:50Z</time>
      </trkpt>
      <trkpt lat="43.73954" lon="6.71425">
        <ele>1235</ele>
        <time>2010-01-31T08:32:53Z</time>
      </trkpt>
      <trkpt lat="43.73952" lon="6.71438">
        <ele>1236</ele>
        <time>2010-01-31T08:32:55Z</time>
      </trkpt>
      <trkpt lat="43.73952" lon="6.71447">
        <ele>1237</ele>
        <time>2010-01-31T08:32:58Z</time>
      </trkpt>
      <trkpt lat="43.73952" lon="6.71456">
        <ele>1239</ele>
        <time>2010-01-31T08:33:00Z</time>
      </trkpt>
      <trkpt lat="43.73951" lon="6.71464">
        <ele>1239</ele>
        <time>2010-01-31T08:33:03Z</time>
      </trkpt>
      <trkpt lat="43.73948" lon="6.71474">
        <ele>1241</ele>
        <time>2010-01-31T08:33:06Z</time>
      </trkpt>
      <trkpt lat="43.73945" lon="6.71481">
        <ele>1241</ele>
        <time>2010-01-31T08:33:08Z</time>
      </trkpt>
      <trkpt lat="43.73942" lon="6.71487">
        <ele>1241</ele>
        <time>2010-01-31T08:33:10Z</time>
      </trkpt>
      <trkpt lat="43.73938" lon="6.71493">
        <ele>1241</ele>
        <time>2010-01-31T08:33:12Z</time>
      </trkpt>
      <trkpt lat="43.73932" lon="6.715">
        <ele>1242</ele>
        <time>2010-01-31T08:33:15Z</time>
      </trkpt>
      <trkpt lat="43.73927" lon="6.71508">
        <ele>1243</ele>
        <time>2010-01-31T08:33:17Z</time>
      </trkpt>
      <trkpt lat="43.73922" lon="6.71516">
        <ele>1243</ele>
        <time>2010-01-31T08:33:20Z</time>
      </trkpt>
      <trkpt lat="43.7392" lon="6.71519">
        <ele>1244</ele>
        <time>2010-01-31T08:33:22Z</time>
      </trkpt>
      <trkpt lat="43.73918" lon="6.71521">
        <ele>1244</ele>
        <time>2010-01-31T08:33:24Z</time>
      </trkpt>
      <trkpt lat="43.73915" lon="6.71526">
        <ele>1247</ele>
        <time>2010-01-31T08:33:31Z</time>
      </trkpt>
      <trkpt lat="43.73912" lon="6.71532">
        <ele>1247</ele>
        <time>2010-01-31T08:33:34Z</time>
      </trkpt>
      <trkpt lat="43.73908" lon="6.71539">
        <ele>1248</ele>
        <time>2010-01-31T08:33:36Z</time>
      </trkpt>
      <trkpt lat="43.73903" lon="6.71546">
        <ele>1248</ele>
        <time>2010-01-31T08:33:39Z</time>
      </trkpt>
      <trkpt lat="43.73897" lon="6.71556">
        <ele>1249</ele>
        <time>2010-01-31T08:33:44Z</time>
      </trkpt>
      <trkpt lat="43.73895" lon="6.7156">
        <ele>1249</ele>
        <time>2010-01-31T08:33:46Z</time>
      </trkpt>
      <trkpt lat="43.73889" lon="6.7157">
        <ele>1251</ele>
        <time>2010-01-31T08:33:51Z</time>
      </trkpt>
      <trkpt lat="43.73888" lon="6.71573">
        <ele>1251</ele>
        <time>2010-01-31T08:33:53Z</time>
      </trkpt>
      <trkpt lat="43.73883" lon="6.71581">
        <ele>1251</ele>
        <time>2010-01-31T08:33:57Z</time>
      </trkpt>
      <trkpt lat="43.7388" lon="6.71589">
        <ele>1251</ele>
        <time>2010-01-31T08:34:00Z</time>
      </trkpt>
      <trkpt lat="43.73876" lon="6.71598">
        <ele>1253</ele>
        <time>2010-01-31T08:34:03Z</time>
      </trkpt>
      <trkpt lat="43.73874" lon="6.71605">
        <ele>1253</ele>
        <time>2010-01-31T08:34:06Z</time>
      </trkpt>
      <trkpt lat="43.7387" lon="6.71618">
        <ele>1253</ele>
        <time>2010-01-31T08:34:10Z</time>
      </trkpt>
      <trkpt lat="43.73867" lon="6.71629">
        <ele>1253</ele>
        <time>2010-01-31T08:34:12Z</time>
      </trkpt>
      <trkpt lat="43.73866" lon="6.71637">
        <ele>1252</ele>
        <time>2010-01-31T08:34:14Z</time>
      </trkpt>
      <trkpt lat="43.73862" lon="6.71652">
        <ele>1250</ele>
        <time>2010-01-31T08:34:17Z</time>
      </trkpt>
      <trkpt lat="43.7386" lon="6.71662">
        <ele>1249</ele>
        <time>2010-01-31T08:34:20Z</time>
      </trkpt>
      <trkpt lat="43.73857" lon="6.71676">
        <ele>1248</ele>
        <time>2010-01-31T08:34:23Z</time>
      </trkpt>
      <trkpt lat="43.73854" lon="6.7169">
        <ele>1246</ele>
        <time>2010-01-31T08:34:25Z</time>
      </trkpt>
      <trkpt lat="43.73852" lon="6.71703">
        <ele>1247</ele>
        <time>2010-01-31T08:34:27Z</time>
      </trkpt>
      <trkpt lat="43.73848" lon="6.71722">
        <ele>1247</ele>
        <time>2010-01-31T08:34:29Z</time>
      </trkpt>
      <trkpt lat="43.73846" lon="6.71733">
        <ele>1247</ele>
        <time>2010-01-31T08:34:31Z</time>
      </trkpt>
      <trkpt lat="43.73843" lon="6.71741">
        <ele>1247</ele>
        <time>2010-01-31T08:34:34Z</time>
      </trkpt>
      <trkpt lat="43.7384" lon="6.71749">
        <ele>1247</ele>
        <time>2010-01-31T08:34:36Z</time>
      </trkpt>
      <trkpt lat="43.73836" lon="6.71757">
        <ele>1248</ele>
        <time>2010-01-31T08:34:38Z</time>
      </trkpt>
      <trkpt lat="43.73832" lon="6.71764">
        <ele>1248</ele>
        <time>2010-01-31T08:34:40Z</time>
      </trkpt>
      <trkpt lat="43.73827" lon="6.7177">
        <ele>1248</ele>
        <time>2010-01-31T08:34:42Z</time>
      </trkpt>
      <trkpt lat="43.73823" lon="6.71777">
        <ele>1248</ele>
        <time>2010-01-31T08:34:44Z</time>
      </trkpt>
      <trkpt lat="43.73819" lon="6.71785">
        <ele>1247</ele>
        <time>2010-01-31T08:34:46Z</time>
      </trkpt>
      <trkpt lat="43.73816" lon="6.71793">
        <ele>1247</ele>
        <time>2010-01-31T08:34:49Z</time>
      </trkpt>
      <trkpt lat="43.73814" lon="6.71801">
        <ele>1247</ele>
        <time>2010-01-31T08:34:51Z</time>
      </trkpt>
      <trkpt lat="43.73811" lon="6.7181">
        <ele>1246</ele>
        <time>2010-01-31T08:34:53Z</time>
      </trkpt>
      <trkpt lat="43.73808" lon="6.71819">
        <ele>1246</ele>
        <time>2010-01-31T08:34:55Z</time>
      </trkpt>
      <trkpt lat="43.73806" lon="6.71828">
        <ele>1246</ele>
        <time>2010-01-31T08:34:57Z</time>
      </trkpt>
      <trkpt lat="43.73803" lon="6.71836">
        <ele>1245</ele>
        <time>2010-01-31T08:34:59Z</time>
      </trkpt>
      <trkpt lat="43.73801" lon="6.71847">
        <ele>1244</ele>
        <time>2010-01-31T08:35:02Z</time>
      </trkpt>
      <trkpt lat="43.73798" lon="6.71858">
        <ele>1244</ele>
        <time>2010-01-31T08:35:04Z</time>
      </trkpt>
      <trkpt lat="43.73796" lon="6.71868">
        <ele>1244</ele>
        <time>2010-01-31T08:35:07Z</time>
      </trkpt>
      <trkpt lat="43.73792" lon="6.71878">
        <ele>1243</ele>
        <time>2010-01-31T08:35:09Z</time>
      </trkpt>
      <trkpt lat="43.73786" lon="6.7189">
        <ele>1243</ele>
        <time>2010-01-31T08:35:12Z</time>
      </trkpt>
      <trkpt lat="43.73781" lon="6.719">
        <ele>1243</ele>
        <time>2010-01-31T08:35:15Z</time>
      </trkpt>
      <trkpt lat="43.73777" lon="6.71906">
        <ele>1243</ele>
        <time>2010-01-31T08:35:18Z</time>
      </trkpt>
      <trkpt lat="43.73774" lon="6.71911">
        <ele>1240</ele>
        <time>2010-01-31T08:35:25Z</time>
      </trkpt>
      <trkpt lat="43.73771" lon="6.71917">
        <ele>1240</ele>
        <time>2010-01-31T08:35:27Z</time>
      </trkpt>
      <trkpt lat="43.73766" lon="6.71929">
        <ele>1239</ele>
        <time>2010-01-31T08:35:30Z</time>
      </trkpt>
      <trkpt lat="43.73763" lon="6.71939">
        <ele>1239</ele>
        <time>2010-01-31T08:35:32Z</time>
      </trkpt>
      <trkpt lat="43.73758" lon="6.71955">
        <ele>1238</ele>
        <time>2010-01-31T08:35:36Z</time>
      </trkpt>
      <trkpt lat="43.73754" lon="6.71964">
        <ele>1238</ele>
        <time>2010-01-31T08:35:38Z</time>
      </trkpt>
      <trkpt lat="43.7375" lon="6.71977">
        <ele>1237</ele>
        <time>2010-01-31T08:35:41Z</time>
      </trkpt>
      <trkpt lat="43.73747" lon="6.71989">
        <ele>1237</ele>
        <time>2010-01-31T08:35:43Z</time>
      </trkpt>
      <trkpt lat="43.73744" lon="6.72005">
        <ele>1237</ele>
        <time>2010-01-31T08:35:46Z</time>
      </trkpt>
      <trkpt lat="43.7374" lon="6.7202">
        <ele>1237</ele>
        <time>2010-01-31T08:35:49Z</time>
      </trkpt>
      <trkpt lat="43.73736" lon="6.72037">
        <ele>1239</ele>
        <time>2010-01-31T08:35:53Z</time>
      </trkpt>
      <trkpt lat="43.73732" lon="6.72051">
        <ele>1239</ele>
        <time>2010-01-31T08:35:57Z</time>
      </trkpt>
      <trkpt lat="43.73728" lon="6.72062">
        <ele>1240</ele>
        <time>2010-01-31T08:35:59Z</time>
      </trkpt>
      <trkpt lat="43.73722" lon="6.7208">
        <ele>1240</ele>
        <time>2010-01-31T08:36:02Z</time>
      </trkpt>
      <trkpt lat="43.73717" lon="6.72091">
        <ele>1239</ele>
        <time>2010-01-31T08:36:04Z</time>
      </trkpt>
      <trkpt lat="43.73713" lon="6.72106">
        <ele>1239</ele>
        <time>2010-01-31T08:36:07Z</time>
      </trkpt>
      <trkpt lat="43.7371" lon="6.72119">
        <ele>1240</ele>
        <time>2010-01-31T08:36:09Z</time>
      </trkpt>
      <trkpt lat="43.73709" lon="6.72132">
        <ele>1240</ele>
        <time>2010-01-31T08:36:12Z</time>
      </trkpt>
      <trkpt lat="43.73708" lon="6.72147">
        <ele>1239</ele>
        <time>2010-01-31T08:36:15Z</time>
      </trkpt>
      <trkpt lat="43.73708" lon="6.72162">
        <ele>1239</ele>
        <time>2010-01-31T08:36:17Z</time>
      </trkpt>
      <trkpt lat="43.73709" lon="6.7218">
        <ele>1239</ele>
        <time>2010-01-31T08:36:20Z</time>
      </trkpt>
      <trkpt lat="43.73713" lon="6.72204">
        <ele>1238</ele>
        <time>2010-01-31T08:36:22Z</time>
      </trkpt>
      <trkpt lat="43.73714" lon="6.7222">
        <ele>1238</ele>
        <time>2010-01-31T08:36:25Z</time>
      </trkpt>
      <trkpt lat="43.73714" lon="6.72235">
        <ele>1238</ele>
        <time>2010-01-31T08:36:27Z</time>
      </trkpt>
      <trkpt lat="43.73713" lon="6.7225">
        <ele>1237</ele>
        <time>2010-01-31T08:36:30Z</time>
      </trkpt>
      <trkpt lat="43.73711" lon="6.72262">
        <ele>1237</ele>
        <time>2010-01-31T08:36:33Z</time>
      </trkpt>
      <trkpt lat="43.7371" lon="6.72272">
        <ele>1238</ele>
        <time>2010-01-31T08:36:35Z</time>
      </trkpt>
      <trkpt lat="43.73709" lon="6.7227">
        <ele>1238</ele>
        <time>2010-01-31T08:36:37Z</time>
      </trkpt>
      <trkpt lat="43.73698" lon="6.72281">
        <ele>1240</ele>
        <time>2010-01-31T08:36:45Z</time>
      </trkpt>
      <trkpt lat="43.73697" lon="6.72299">
        <ele>1241</ele>
        <time>2010-01-31T08:36:49Z</time>
      </trkpt>
      <trkpt lat="43.73696" lon="6.72312">
        <ele>1240</ele>
        <time>2010-01-31T08:36:56Z</time>
      </trkpt>
      <trkpt lat="43.73696" lon="6.72317">
        <ele>1240</ele>
        <time>2010-01-31T08:36:59Z</time>
      </trkpt>
      <trkpt lat="43.73696" lon="6.72331">
        <ele>1242</ele>
        <time>2010-01-31T08:37:04Z</time>
      </trkpt>
      <trkpt lat="43.73697" lon="6.72345">
        <ele>1244</ele>
        <time>2010-01-31T08:37:08Z</time>
      </trkpt>
      <trkpt lat="43.73699" lon="6.7236">
        <ele>1245</ele>
        <time>2010-01-31T08:37:11Z</time>
      </trkpt>
      <trkpt lat="43.73701" lon="6.72374">
        <ele>1246</ele>
        <time>2010-01-31T08:37:13Z</time>
      </trkpt>
      <trkpt lat="43.73703" lon="6.72387">
        <ele>1245</ele>
        <time>2010-01-31T08:37:15Z</time>
      </trkpt>
      <trkpt lat="43.73705" lon="6.72405">
        <ele>1245</ele>
        <time>2010-01-31T08:37:19Z</time>
      </trkpt>
      <trkpt lat="43.73707" lon="6.72419">
        <ele>1245</ele>
        <time>2010-01-31T08:37:21Z</time>
      </trkpt>
      <trkpt lat="43.73708" lon="6.72428">
        <ele>1245</ele>
        <time>2010-01-31T08:37:23Z</time>
      </trkpt>
      <trkpt lat="43.73709" lon="6.72443">
        <ele>1246</ele>
        <time>2010-01-31T08:37:27Z</time>
      </trkpt>
      <trkpt lat="43.7371" lon="6.72456">
        <ele>1246</ele>
        <time>2010-01-31T08:37:31Z</time>
      </trkpt>
      <trkpt lat="43.73711" lon="6.72462">
        <ele>1246</ele>
        <time>2010-01-31T08:37:33Z</time>
      </trkpt>
      <trkpt lat="43.73711" lon="6.72479">
        <ele>1247</ele>
        <time>2010-01-31T08:37:38Z</time>
      </trkpt>
      <trkpt lat="43.73709" lon="6.72489">
        <ele>1246</ele>
        <time>2010-01-31T08:37:40Z</time>
      </trkpt>
      <trkpt lat="43.73709" lon="6.72497">
        <ele>1246</ele>
        <time>2010-01-31T08:37:42Z</time>
      </trkpt>
      <trkpt lat="43.73708" lon="6.72505">
        <ele>1246</ele>
        <time>2010-01-31T08:37:44Z</time>
      </trkpt>
      <trkpt lat="43.73708" lon="6.72519">
        <ele>1248</ele>
        <time>2010-01-31T08:37:48Z</time>
      </trkpt>
      <trkpt lat="43.73706" lon="6.72535">
        <ele>1248</ele>
        <time>2010-01-31T08:37:51Z</time>
      </trkpt>
      <trkpt lat="43.73705" lon="6.72547">
        <ele>1248</ele>
        <time>2010-01-31T08:37:55Z</time>
      </trkpt>
      <trkpt lat="43.73703" lon="6.72566">
        <ele>1248</ele>
        <time>2010-01-31T08:37:58Z</time>
      </trkpt>
      <trkpt lat="43.73701" lon="6.72585">
        <ele>1248</ele>
        <time>2010-01-31T08:38:03Z</time>
      </trkpt>
      <trkpt lat="43.737" lon="6.72611">
        <ele>1248</ele>
        <time>2010-01-31T08:38:09Z</time>
      </trkpt>
      <trkpt lat="43.73701" lon="6.72628">
        <ele>1248</ele>
        <time>2010-01-31T08:38:12Z</time>
      </trkpt>
      <trkpt lat="43.73702" lon="6.72635">
        <ele>1248</ele>
        <time>2010-01-31T08:38:15Z</time>
      </trkpt>
      <trkpt lat="43.73704" lon="6.72654">
        <ele>1247</ele>
        <time>2010-01-31T08:38:20Z</time>
      </trkpt>
      <trkpt lat="43.73705" lon="6.72662">
        <ele>1246</ele>
        <time>2010-01-31T08:38:22Z</time>
      </trkpt>
      <trkpt lat="43.73707" lon="6.7268">
        <ele>1248</ele>
        <time>2010-01-31T08:38:27Z</time>
      </trkpt>
      <trkpt lat="43.73708" lon="6.72691">
        <ele>1248</ele>
        <time>2010-01-31T08:38:30Z</time>
      </trkpt>
      <trkpt lat="43.73711" lon="6.72705">
        <ele>1248</ele>
        <time>2010-01-31T08:38:34Z</time>
      </trkpt>
      <trkpt lat="43.73712" lon="6.72721">
        <ele>1250</ele>
        <time>2010-01-31T08:38:39Z</time>
      </trkpt>
      <trkpt lat="43.73713" lon="6.72729">
        <ele>1250</ele>
        <time>2010-01-31T08:38:41Z</time>
      </trkpt>
      <trkpt lat="43.73713" lon="6.72738">
        <ele>1251</ele>
        <time>2010-01-31T08:38:43Z</time>
      </trkpt>
      <trkpt lat="43.73713" lon="6.72746">
        <ele>1250</ele>
        <time>2010-01-31T08:38:45Z</time>
      </trkpt>
      <trkpt lat="43.73712" lon="6.72754">
        <ele>1250</ele>
        <time>2010-01-31T08:38:47Z</time>
      </trkpt>
      <trkpt lat="43.73712" lon="6.72761">
        <ele>1251</ele>
        <time>2010-01-31T08:38:50Z</time>
      </trkpt>
      <trkpt lat="43.73711" lon="6.72769">
        <ele>1251</ele>
        <time>2010-01-31T08:38:52Z</time>
      </trkpt>
      <trkpt lat="43.7371" lon="6.72777">
        <ele>1251</ele>
        <time>2010-01-31T08:38:54Z</time>
      </trkpt>
      <trkpt lat="43.73708" lon="6.72785">
        <ele>1252</ele>
        <time>2010-01-31T08:38:56Z</time>
      </trkpt>
      <trkpt lat="43.73707" lon="6.72793">
        <ele>1252</ele>
        <time>2010-01-31T08:38:58Z</time>
      </trkpt>
      <trkpt lat="43.73706" lon="6.728">
        <ele>1252</ele>
        <time>2010-01-31T08:39:00Z</time>
      </trkpt>
      <trkpt lat="43.73705" lon="6.72807">
        <ele>1253</ele>
        <time>2010-01-31T08:39:02Z</time>
      </trkpt>
      <trkpt lat="43.73703" lon="6.72815">
        <ele>1253</ele>
        <time>2010-01-31T08:39:04Z</time>
      </trkpt>
      <trkpt lat="43.73701" lon="6.72828">
        <ele>1252</ele>
        <time>2010-01-31T08:39:09Z</time>
      </trkpt>
      <trkpt lat="43.73699" lon="6.72834">
        <ele>1253</ele>
        <time>2010-01-31T08:39:12Z</time>
      </trkpt>
      <trkpt lat="43.73698" lon="6.7284">
        <ele>1254</ele>
        <time>2010-01-31T08:39:14Z</time>
      </trkpt>
      <trkpt lat="43.73696" lon="6.72844">
        <ele>1254</ele>
        <time>2010-01-31T08:39:16Z</time>
      </trkpt>
      <trkpt lat="43.73695" lon="6.72849">
        <ele>1253</ele>
        <time>2010-01-31T08:39:18Z</time>
      </trkpt>
      <trkpt lat="43.73695" lon="6.72852">
        <ele>1253</ele>
        <time>2010-01-31T08:39:20Z</time>
      </trkpt>
      <trkpt lat="43.73694" lon="6.72855">
        <ele>1252</ele>
        <time>2010-01-31T08:39:22Z</time>
      </trkpt>
      <trkpt lat="43.73693" lon="6.72858">
        <ele>1250</ele>
        <time>2010-01-31T08:39:24Z</time>
      </trkpt>
      <trkpt lat="43.73692" lon="6.7286">
        <ele>1250</ele>
        <time>2010-01-31T08:39:27Z</time>
      </trkpt>
      <trkpt lat="43.73691" lon="6.72862">
        <ele>1250</ele>
        <time>2010-01-31T08:39:29Z</time>
      </trkpt>
      <trkpt lat="43.7369" lon="6.72864">
        <ele>1249</ele>
        <time>2010-01-31T08:39:31Z</time>
      </trkpt>
      <trkpt lat="43.7369" lon="6.72865">
        <ele>1250</ele>
        <time>2010-01-31T08:39:33Z</time>
      </trkpt>
      <trkpt lat="43.73689" lon="6.72865">
        <ele>1250</ele>
        <time>2010-01-31T08:39:35Z</time>
      </trkpt>
      <trkpt lat="43.73688" lon="6.72866">
        <ele>1250</ele>
        <time>2010-01-31T08:39:37Z</time>
      </trkpt>
      <trkpt lat="43.73688" lon="6.72866">
        <ele>1250</ele>
        <time>2010-01-31T08:39:39Z</time>
      </trkpt>
      <trkpt lat="43.73687" lon="6.72867">
        <ele>1250</ele>
        <time>2010-01-31T08:39:41Z</time>
      </trkpt>
      <trkpt lat="43.73687" lon="6.72869">
        <ele>1247</ele>
        <time>2010-01-31T08:39:45Z</time>
      </trkpt>
      <trkpt lat="43.73688" lon="6.72884">
        <ele>1243</ele>
        <time>2010-01-31T08:40:21Z</time>
      </trkpt>
      <trkpt lat="43.73688" lon="6.72889">
        <ele>1243</ele>
        <time>2010-01-31T08:40:23Z</time>
      </trkpt>
      <trkpt lat="43.73689" lon="6.72894">
        <ele>1243</ele>
        <time>2010-01-31T08:40:25Z</time>
      </trkpt>
      <trkpt lat="43.73692" lon="6.72901">
        <ele>1244</ele>
        <time>2010-01-31T08:40:27Z</time>
      </trkpt>
      <trkpt lat="43.73695" lon="6.72908">
        <ele>1245</ele>
        <time>2010-01-31T08:40:29Z</time>
      </trkpt>
      <trkpt lat="43.73699" lon="6.72915">
        <ele>1246</ele>
        <time>2010-01-31T08:40:32Z</time>
      </trkpt>
      <trkpt lat="43.73703" lon="6.72922">
        <ele>1247</ele>
        <time>2010-01-31T08:40:34Z</time>
      </trkpt>
      <trkpt lat="43.73707" lon="6.72929">
        <ele>1247</ele>
        <time>2010-01-31T08:40:36Z</time>
      </trkpt>
      <trkpt lat="43.7371" lon="6.72934">
        <ele>1248</ele>
        <time>2010-01-31T08:40:38Z</time>
      </trkpt>
      <trkpt lat="43.73714" lon="6.72938">
        <ele>1248</ele>
        <time>2010-01-31T08:40:40Z</time>
      </trkpt>
      <trkpt lat="43.73716" lon="6.72943">
        <ele>1249</ele>
        <time>2010-01-31T08:40:42Z</time>
      </trkpt>
      <trkpt lat="43.73719" lon="6.72948">
        <ele>1250</ele>
        <time>2010-01-31T08:40:45Z</time>
      </trkpt>
      <trkpt lat="43.7372" lon="6.72951">
        <ele>1251</ele>
        <time>2010-01-31T08:40:47Z</time>
      </trkpt>
      <trkpt lat="43.73722" lon="6.72957">
        <ele>1251</ele>
        <time>2010-01-31T08:40:49Z</time>
      </trkpt>
      <trkpt lat="43.73724" lon="6.72963">
        <ele>1250</ele>
        <time>2010-01-31T08:40:51Z</time>
      </trkpt>
      <trkpt lat="43.73727" lon="6.7297">
        <ele>1251</ele>
        <time>2010-01-31T08:40:53Z</time>
      </trkpt>
      <trkpt lat="43.73729" lon="6.72976">
        <ele>1251</ele>
        <time>2010-01-31T08:40:56Z</time>
      </trkpt>
      <trkpt lat="43.73731" lon="6.72985">
        <ele>1252</ele>
        <time>2010-01-31T08:40:58Z</time>
      </trkpt>
      <trkpt lat="43.73734" lon="6.72994">
        <ele>1252</ele>
        <time>2010-01-31T08:41:00Z</time>
      </trkpt>
      <trkpt lat="43.73737" lon="6.73004">
        <ele>1252</ele>
        <time>2010-01-31T08:41:02Z</time>
      </trkpt>
      <trkpt lat="43.73739" lon="6.73013">
        <ele>1252</ele>
        <time>2010-01-31T08:41:05Z</time>
      </trkpt>
      <trkpt lat="43.7374" lon="6.73021">
        <ele>1253</ele>
        <time>2010-01-31T08:41:07Z</time>
      </trkpt>
      <trkpt lat="43.73743" lon="6.73031">
        <ele>1253</ele>
        <time>2010-01-31T08:41:10Z</time>
      </trkpt>
      <trkpt lat="43.73745" lon="6.73038">
        <ele>1253</ele>
        <time>2010-01-31T08:41:13Z</time>
      </trkpt>
      <trkpt lat="43.73747" lon="6.73046">
        <ele>1253</ele>
        <time>2010-01-31T08:41:16Z</time>
      </trkpt>
      <trkpt lat="43.73748" lon="6.73052">
        <ele>1254</ele>
        <time>2010-01-31T08:41:18Z</time>
      </trkpt>
      <trkpt lat="43.73749" lon="6.73057">
        <ele>1254</ele>
        <time>2010-01-31T08:41:20Z</time>
      </trkpt>
      <trkpt lat="43.73751" lon="6.73062">
        <ele>1254</ele>
        <time>2010-01-31T08:41:22Z</time>
      </trkpt>
      <trkpt lat="43.73752" lon="6.73068">
        <ele>1255</ele>
        <time>2010-01-31T08:41:24Z</time>
      </trkpt>
      <trkpt lat="43.73754" lon="6.73073">
        <ele>1255</ele>
        <time>2010-01-31T08:41:27Z</time>
      </trkpt>
      <trkpt lat="43.73755" lon="6.73079">
        <ele>1256</ele>
        <time>2010-01-31T08:41:29Z</time>
      </trkpt>
      <trkpt lat="43.73757" lon="6.73085">
        <ele>1256</ele>
        <time>2010-01-31T08:41:31Z</time>
      </trkpt>
      <trkpt lat="43.73758" lon="6.73092">
        <ele>1256</ele>
        <time>2010-01-31T08:41:33Z</time>
      </trkpt>
      <trkpt lat="43.7376" lon="6.73098">
        <ele>1257</ele>
        <time>2010-01-31T08:41:35Z</time>
      </trkpt>
      <trkpt lat="43.73762" lon="6.73104">
        <ele>1257</ele>
        <time>2010-01-31T08:41:38Z</time>
      </trkpt>
      <trkpt lat="43.73764" lon="6.73111">
        <ele>1257</ele>
        <time>2010-01-31T08:41:40Z</time>
      </trkpt>
      <trkpt lat="43.73765" lon="6.73117">
        <ele>1258</ele>
        <time>2010-01-31T08:41:42Z</time>
      </trkpt>
      <trkpt lat="43.73767" lon="6.73123">
        <ele>1258</ele>
        <time>2010-01-31T08:41:44Z</time>
      </trkpt>
      <trkpt lat="43.73769" lon="6.73129">
        <ele>1258</ele>
        <time>2010-01-31T08:41:46Z</time>
      </trkpt>
      <trkpt lat="43.7377" lon="6.73133">
        <ele>1257</ele>
        <time>2010-01-31T08:41:49Z</time>
      </trkpt>
      <trkpt lat="43.73771" lon="6.73139">
        <ele>1257</ele>
        <time>2010-01-31T08:41:51Z</time>
      </trkpt>
      <trkpt lat="43.73773" lon="6.73145">
        <ele>1256</ele>
        <time>2010-01-31T08:41:53Z</time>
      </trkpt>
      <trkpt lat="43.73774" lon="6.73151">
        <ele>1256</ele>
        <time>2010-01-31T08:41:55Z</time>
      </trkpt>
      <trkpt lat="43.73775" lon="6.73157">
        <ele>1256</ele>
        <time>2010-01-31T08:41:57Z</time>
      </trkpt>
      <trkpt lat="43.73776" lon="6.73163">
        <ele>1256</ele>
        <time>2010-01-31T08:42:00Z</time>
      </trkpt>
      <trkpt lat="43.73776" lon="6.73169">
        <ele>1257</ele>
        <time>2010-01-31T08:42:02Z</time>
      </trkpt>
      <trkpt lat="43.73776" lon="6.73175">
        <ele>1257</ele>
        <time>2010-01-31T08:42:04Z</time>
      </trkpt>
      <trkpt lat="43.73776" lon="6.7318">
        <ele>1257</ele>
        <time>2010-01-31T08:42:06Z</time>
      </trkpt>
      <trkpt lat="43.73776" lon="6.73187">
        <ele>1257</ele>
        <time>2010-01-31T08:42:09Z</time>
      </trkpt>
      <trkpt lat="43.73775" lon="6.73192">
        <ele>1257</ele>
        <time>2010-01-31T08:42:12Z</time>
      </trkpt>
      <trkpt lat="43.73773" lon="6.73195">
        <ele>1257</ele>
        <time>2010-01-31T08:42:14Z</time>
      </trkpt>
      <trkpt lat="43.73773" lon="6.73198">
        <ele>1256</ele>
        <time>2010-01-31T08:42:16Z</time>
      </trkpt>
      <trkpt lat="43.73772" lon="6.73202">
        <ele>1257</ele>
        <time>2010-01-31T08:42:18Z</time>
      </trkpt>
      <trkpt lat="43.73771" lon="6.73206">
        <ele>1256</ele>
        <time>2010-01-31T08:42:20Z</time>
      </trkpt>
      <trkpt lat="43.73771" lon="6.73212">
        <ele>1257</ele>
        <time>2010-01-31T08:42:22Z</time>
      </trkpt>
      <trkpt lat="43.7377" lon="6.73219">
        <ele>1257</ele>
        <time>2010-01-31T08:42:25Z</time>
      </trkpt>
      <trkpt lat="43.7377" lon="6.73225">
        <ele>1257</ele>
        <time>2010-01-31T08:42:27Z</time>
      </trkpt>
      <trkpt lat="43.7377" lon="6.73238">
        <ele>1257</ele>
        <time>2010-01-31T08:42:31Z</time>
      </trkpt>
      <trkpt lat="43.7377" lon="6.73246">
        <ele>1257</ele>
        <time>2010-01-31T08:42:33Z</time>
      </trkpt>
      <trkpt lat="43.7377" lon="6.73254">
        <ele>1257</ele>
        <time>2010-01-31T08:42:36Z</time>
      </trkpt>
      <trkpt lat="43.73769" lon="6.73269">
        <ele>1257</ele>
        <time>2010-01-31T08:42:40Z</time>
      </trkpt>
      <trkpt lat="43.73769" lon="6.73276">
        <ele>1258</ele>
        <time>2010-01-31T08:42:42Z</time>
      </trkpt>
      <trkpt lat="43.7377" lon="6.73283">
        <ele>1259</ele>
        <time>2010-01-31T08:42:44Z</time>
      </trkpt>
      <trkpt lat="43.7377" lon="6.7329">
        <ele>1259</ele>
        <time>2010-01-31T08:42:47Z</time>
      </trkpt>
      <trkpt lat="43.7377" lon="6.73298">
        <ele>1259</ele>
        <time>2010-01-31T08:42:49Z</time>
      </trkpt>
      <trkpt lat="43.7377" lon="6.73303">
        <ele>1259</ele>
        <time>2010-01-31T08:42:51Z</time>
      </trkpt>
      <trkpt lat="43.73771" lon="6.73311">
        <ele>1261</ele>
        <time>2010-01-31T08:42:53Z</time>
      </trkpt>
      <trkpt lat="43.73771" lon="6.73319">
        <ele>1261</ele>
        <time>2010-01-31T08:42:55Z</time>
      </trkpt>
      <trkpt lat="43.73772" lon="6.73327">
        <ele>1261</ele>
        <time>2010-01-31T08:42:58Z</time>
      </trkpt>
      <trkpt lat="43.73773" lon="6.73335">
        <ele>1263</ele>
        <time>2010-01-31T08:43:00Z</time>
      </trkpt>
      <trkpt lat="43.73774" lon="6.73343">
        <ele>1264</ele>
        <time>2010-01-31T08:43:02Z</time>
      </trkpt>
      <trkpt lat="43.73775" lon="6.73349">
        <ele>1265</ele>
        <time>2010-01-31T08:43:04Z</time>
      </trkpt>
      <trkpt lat="43.73777" lon="6.73361">
        <ele>1265</ele>
        <time>2010-01-31T08:43:09Z</time>
      </trkpt>
      <trkpt lat="43.73778" lon="6.73362">
        <ele>1264</ele>
        <time>2010-01-31T08:43:12Z</time>
      </trkpt>
      <trkpt lat="43.73779" lon="6.73366">
        <ele>1263</ele>
        <time>2010-01-31T08:43:14Z</time>
      </trkpt>
      <trkpt lat="43.7378" lon="6.73367">
        <ele>1263</ele>
        <time>2010-01-31T08:43:16Z</time>
      </trkpt>
      <trkpt lat="43.73781" lon="6.73368">
        <ele>1263</ele>
        <time>2010-01-31T08:43:18Z</time>
      </trkpt>
      <trkpt lat="43.73782" lon="6.73369">
        <ele>1263</ele>
        <time>2010-01-31T08:43:20Z</time>
      </trkpt>
      <trkpt lat="43.73782" lon="6.73369">
        <ele>1264</ele>
        <time>2010-01-31T08:43:22Z</time>
      </trkpt>
      <trkpt lat="43.73783" lon="6.7337">
        <ele>1263</ele>
        <time>2010-01-31T08:43:25Z</time>
      </trkpt>
      <trkpt lat="43.73783" lon="6.73371">
        <ele>1263</ele>
        <time>2010-01-31T08:43:27Z</time>
      </trkpt>
      <trkpt lat="43.73783" lon="6.73372">
        <ele>1262</ele>
        <time>2010-01-31T08:43:29Z</time>
      </trkpt>
      <trkpt lat="43.73783" lon="6.73373">
        <ele>1262</ele>
        <time>2010-01-31T08:43:31Z</time>
      </trkpt>
      <trkpt lat="43.73782" lon="6.73374">
        <ele>1263</ele>
        <time>2010-01-31T08:43:36Z</time>
      </trkpt>
      <trkpt lat="43.73779" lon="6.7339">
        <ele>1263</ele>
        <time>2010-01-31T08:43:50Z</time>
      </trkpt>
      <trkpt lat="43.73778" lon="6.73395">
        <ele>1263</ele>
        <time>2010-01-31T08:43:53Z</time>
      </trkpt>
      <trkpt lat="43.73778" lon="6.734">
        <ele>1263</ele>
        <time>2010-01-31T08:43:55Z</time>
      </trkpt>
      <trkpt lat="43.73778" lon="6.73404">
        <ele>1263</ele>
        <time>2010-01-31T08:43:57Z</time>
      </trkpt>
      <trkpt lat="43.73778" lon="6.73408">
        <ele>1263</ele>
        <time>2010-01-31T08:43:59Z</time>
      </trkpt>
      <trkpt lat="43.73777" lon="6.73412">
        <ele>1264</ele>
        <time>2010-01-31T08:44:01Z</time>
      </trkpt>
      <trkpt lat="43.73776" lon="6.73416">
        <ele>1264</ele>
        <time>2010-01-31T08:44:03Z</time>
      </trkpt>
      <trkpt lat="43.73775" lon="6.7342">
        <ele>1264</ele>
        <time>2010-01-31T08:44:06Z</time>
      </trkpt>
      <trkpt lat="43.73773" lon="6.73425">
        <ele>1265</ele>
        <time>2010-01-31T08:44:08Z</time>
      </trkpt>
      <trkpt lat="43.73772" lon="6.7343">
        <ele>1264</ele>
        <time>2010-01-31T08:44:10Z</time>
      </trkpt>
      <trkpt lat="43.7377" lon="6.73435">
        <ele>1264</ele>
        <time>2010-01-31T08:44:12Z</time>
      </trkpt>
      <trkpt lat="43.73768" lon="6.7344">
        <ele>1265</ele>
        <time>2010-01-31T08:44:14Z</time>
      </trkpt>
      <trkpt lat="43.73767" lon="6.73445">
        <ele>1265</ele>
        <time>2010-01-31T08:44:16Z</time>
      </trkpt>
      <trkpt lat="43.73765" lon="6.73449">
        <ele>1266</ele>
        <time>2010-01-31T08:44:18Z</time>
      </trkpt>
      <trkpt lat="43.73764" lon="6.73454">
        <ele>1267</ele>
        <time>2010-01-31T08:44:21Z</time>
      </trkpt>
      <trkpt lat="43.73761" lon="6.73462">
        <ele>1267</ele>
        <time>2010-01-31T08:44:24Z</time>
      </trkpt>
      <trkpt lat="43.7376" lon="6.73473">
        <ele>1269</ele>
        <time>2010-01-31T08:44:28Z</time>
      </trkpt>
      <trkpt lat="43.73759" lon="6.73485">
        <ele>1270</ele>
        <time>2010-01-31T08:44:31Z</time>
      </trkpt>
      <trkpt lat="43.73758" lon="6.73494">
        <ele>1271</ele>
        <time>2010-01-31T08:44:33Z</time>
      </trkpt>
      <trkpt lat="43.73758" lon="6.73502">
        <ele>1272</ele>
        <time>2010-01-31T08:44:35Z</time>
      </trkpt>
      <trkpt lat="43.73757" lon="6.7351">
        <ele>1273</ele>
        <time>2010-01-31T08:44:37Z</time>
      </trkpt>
      <trkpt lat="43.73756" lon="6.73517">
        <ele>1275</ele>
        <time>2010-01-31T08:44:39Z</time>
      </trkpt>
      <trkpt lat="43.73755" lon="6.73523">
        <ele>1276</ele>
        <time>2010-01-31T08:44:41Z</time>
      </trkpt>
      <trkpt lat="43.73754" lon="6.73536">
        <ele>1278</ele>
        <time>2010-01-31T08:44:46Z</time>
      </trkpt>
      <trkpt lat="43.73753" lon="6.7354">
        <ele>1279</ele>
        <time>2010-01-31T08:44:48Z</time>
      </trkpt>
      <trkpt lat="43.73752" lon="6.73543">
        <ele>1279</ele>
        <time>2010-01-31T08:44:50Z</time>
      </trkpt>
      <trkpt lat="43.73751" lon="6.73553">
        <ele>1280</ele>
        <time>2010-01-31T08:44:56Z</time>
      </trkpt>
      <trkpt lat="43.73751" lon="6.73554">
        <ele>1281</ele>
        <time>2010-01-31T08:44:58Z</time>
      </trkpt>
      <trkpt lat="43.7375" lon="6.73556">
        <ele>1282</ele>
        <time>2010-01-31T08:45:00Z</time>
      </trkpt>
      <trkpt lat="43.7375" lon="6.73557">
        <ele>1282</ele>
        <time>2010-01-31T08:45:02Z</time>
      </trkpt>
      <trkpt lat="43.7375" lon="6.73559">
        <ele>1281</ele>
        <time>2010-01-31T08:45:04Z</time>
      </trkpt>
      <trkpt lat="43.7375" lon="6.7356">
        <ele>1281</ele>
        <time>2010-01-31T08:45:06Z</time>
      </trkpt>
      <trkpt lat="43.73749" lon="6.73562">
        <ele>1280</ele>
        <time>2010-01-31T08:45:09Z</time>
      </trkpt>
      <trkpt lat="43.73749" lon="6.73564">
        <ele>1280</ele>
        <time>2010-01-31T08:45:11Z</time>
      </trkpt>
      <trkpt lat="43.73749" lon="6.73566">
        <ele>1280</ele>
        <time>2010-01-31T08:45:13Z</time>
      </trkpt>
      <trkpt lat="43.73749" lon="6.73568">
        <ele>1281</ele>
        <time>2010-01-31T08:45:15Z</time>
      </trkpt>
      <trkpt lat="43.73749" lon="6.73571">
        <ele>1281</ele>
        <time>2010-01-31T08:45:17Z</time>
      </trkpt>
      <trkpt lat="43.73748" lon="6.73573">
        <ele>1281</ele>
        <time>2010-01-31T08:45:19Z</time>
      </trkpt>
      <trkpt lat="43.73748" lon="6.73575">
        <ele>1281</ele>
        <time>2010-01-31T08:45:22Z</time>
      </trkpt>
      <trkpt lat="43.73748" lon="6.73578">
        <ele>1280</ele>
        <time>2010-01-31T08:45:24Z</time>
      </trkpt>
      <trkpt lat="43.73747" lon="6.7358">
        <ele>1281</ele>
        <time>2010-01-31T08:45:26Z</time>
      </trkpt>
      <trkpt lat="43.73747" lon="6.73582">
        <ele>1281</ele>
        <time>2010-01-31T08:45:28Z</time>
      </trkpt>
      <trkpt lat="43.73747" lon="6.73585">
        <ele>1281</ele>
        <time>2010-01-31T08:45:30Z</time>
      </trkpt>
      <trkpt lat="43.73746" lon="6.73587">
        <ele>1281</ele>
        <time>2010-01-31T08:45:33Z</time>
      </trkpt>
      <trkpt lat="43.73746" lon="6.73589">
        <ele>1281</ele>
        <time>2010-01-31T08:45:35Z</time>
      </trkpt>
      <trkpt lat="43.73747" lon="6.73592">
        <ele>1281</ele>
        <time>2010-01-31T08:45:37Z</time>
      </trkpt>
      <trkpt lat="43.73747" lon="6.73594">
        <ele>1281</ele>
        <time>2010-01-31T08:45:39Z</time>
      </trkpt>
      <trkpt lat="43.73747" lon="6.73596">
        <ele>1281</ele>
        <time>2010-01-31T08:45:41Z</time>
      </trkpt>
      <trkpt lat="43.73748" lon="6.73598">
        <ele>1280</ele>
        <time>2010-01-31T08:45:43Z</time>
      </trkpt>
      <trkpt lat="43.73748" lon="6.736">
        <ele>1281</ele>
        <time>2010-01-31T08:45:45Z</time>
      </trkpt>
      <trkpt lat="43.73749" lon="6.73602">
        <ele>1281</ele>
        <time>2010-01-31T08:45:48Z</time>
      </trkpt>
      <trkpt lat="43.7375" lon="6.73604">
        <ele>1280</ele>
        <time>2010-01-31T08:45:50Z</time>
      </trkpt>
      <trkpt lat="43.73751" lon="6.73606">
        <ele>1281</ele>
        <time>2010-01-31T08:45:52Z</time>
      </trkpt>
      <trkpt lat="43.73752" lon="6.73608">
        <ele>1281</ele>
        <time>2010-01-31T08:45:54Z</time>
      </trkpt>
      <trkpt lat="43.73753" lon="6.73612">
        <ele>1282</ele>
        <time>2010-01-31T08:45:58Z</time>
      </trkpt>
      <trkpt lat="43.73754" lon="6.73614">
        <ele>1281</ele>
        <time>2010-01-31T08:46:00Z</time>
      </trkpt>
      <trkpt lat="43.73755" lon="6.73616">
        <ele>1281</ele>
        <time>2010-01-31T08:46:02Z</time>
      </trkpt>
      <trkpt lat="43.73755" lon="6.73619">
        <ele>1281</ele>
        <time>2010-01-31T08:46:04Z</time>
      </trkpt>
      <trkpt lat="43.73756" lon="6.73622">
        <ele>1281</ele>
        <time>2010-01-31T08:46:06Z</time>
      </trkpt>
      <trkpt lat="43.73757" lon="6.73625">
        <ele>1282</ele>
        <time>2010-01-31T08:46:08Z</time>
      </trkpt>
      <trkpt lat="43.73758" lon="6.73628">
        <ele>1281</ele>
        <time>2010-01-31T08:46:11Z</time>
      </trkpt>
      <trkpt lat="43.73759" lon="6.73632">
        <ele>1281</ele>
        <time>2010-01-31T08:46:15Z</time>
      </trkpt>
      <trkpt lat="43.73758" lon="6.73632">
        <ele>1283</ele>
        <time>2010-01-31T08:46:18Z</time>
      </trkpt>
      <trkpt lat="43.73758" lon="6.73632">
        <ele>1283</ele>
        <time>2010-01-31T08:46:20Z</time>
      </trkpt>
      <trkpt lat="43.7376" lon="6.73645">
        <ele>1284</ele>
        <time>2010-01-31T08:46:44Z</time>
      </trkpt>
      <trkpt lat="43.73762" lon="6.7365">
        <ele>1284</ele>
        <time>2010-01-31T08:46:46Z</time>
      </trkpt>
      <trkpt lat="43.73763" lon="6.73655">
        <ele>1285</ele>
        <time>2010-01-31T08:46:48Z</time>
      </trkpt>
      <trkpt lat="43.73764" lon="6.7366">
        <ele>1285</ele>
        <time>2010-01-31T08:46:50Z</time>
      </trkpt>
      <trkpt lat="43.73766" lon="6.73666">
        <ele>1285</ele>
        <time>2010-01-31T08:46:52Z</time>
      </trkpt>
      <trkpt lat="43.73767" lon="6.73671">
        <ele>1285</ele>
        <time>2010-01-31T08:46:54Z</time>
      </trkpt>
      <trkpt lat="43.73769" lon="6.73676">
        <ele>1285</ele>
        <time>2010-01-31T08:46:57Z</time>
      </trkpt>
      <trkpt lat="43.7377" lon="6.73681">
        <ele>1285</ele>
        <time>2010-01-31T08:46:59Z</time>
      </trkpt>
      <trkpt lat="43.73771" lon="6.73686">
        <ele>1286</ele>
        <time>2010-01-31T08:47:01Z</time>
      </trkpt>
      <trkpt lat="43.73771" lon="6.7369">
        <ele>1287</ele>
        <time>2010-01-31T08:47:03Z</time>
      </trkpt>
      <trkpt lat="43.73772" lon="6.73695">
        <ele>1289</ele>
        <time>2010-01-31T08:47:06Z</time>
      </trkpt>
      <trkpt lat="43.73773" lon="6.737">
        <ele>1289</ele>
        <time>2010-01-31T08:47:08Z</time>
      </trkpt>
      <trkpt lat="43.73774" lon="6.73705">
        <ele>1289</ele>
        <time>2010-01-31T08:47:10Z</time>
      </trkpt>
      <trkpt lat="43.73774" lon="6.73709">
        <ele>1288</ele>
        <time>2010-01-31T08:47:12Z</time>
      </trkpt>
      <trkpt lat="43.73775" lon="6.73713">
        <ele>1287</ele>
        <time>2010-01-31T08:47:14Z</time>
      </trkpt>
      <trkpt lat="43.73775" lon="6.73715">
        <ele>1286</ele>
        <time>2010-01-31T08:47:17Z</time>
      </trkpt>
      <trkpt lat="43.73776" lon="6.73717">
        <ele>1286</ele>
        <time>2010-01-31T08:47:19Z</time>
      </trkpt>
      <trkpt lat="43.73776" lon="6.73721">
        <ele>1287</ele>
        <time>2010-01-31T08:47:23Z</time>
      </trkpt>
      <trkpt lat="43.73776" lon="6.73721">
        <ele>1287</ele>
        <time>2010-01-31T08:47:25Z</time>
      </trkpt>
      <trkpt lat="43.73776" lon="6.73722">
        <ele>1286</ele>
        <time>2010-01-31T08:47:28Z</time>
      </trkpt>
      <trkpt lat="43.73776" lon="6.73724">
        <ele>1285</ele>
        <time>2010-01-31T08:47:32Z</time>
      </trkpt>
      <trkpt lat="43.73769" lon="6.73739">
        <ele>1292</ele>
        <time>2010-01-31T08:48:06Z</time>
      </trkpt>
      <trkpt lat="43.73769" lon="6.7374">
        <ele>1292</ele>
        <time>2010-01-31T08:48:08Z</time>
      </trkpt>
      <trkpt lat="43.73767" lon="6.73742">
        <ele>1293</ele>
        <time>2010-01-31T08:48:11Z</time>
      </trkpt>
      <trkpt lat="43.73764" lon="6.73744">
        <ele>1293</ele>
        <time>2010-01-31T08:48:16Z</time>
      </trkpt>
      <trkpt lat="43.73759" lon="6.73745">
        <ele>1293</ele>
        <time>2010-01-31T08:48:20Z</time>
      </trkpt>
      <trkpt lat="43.73756" lon="6.73745">
        <ele>1292</ele>
        <time>2010-01-31T08:48:22Z</time>
      </trkpt>
      <trkpt lat="43.73752" lon="6.73744">
        <ele>1292</ele>
        <time>2010-01-31T08:48:24Z</time>
      </trkpt>
      <trkpt lat="43.73749" lon="6.73744">
        <ele>1293</ele>
        <time>2010-01-31T08:48:26Z</time>
      </trkpt>
      <trkpt lat="43.73744" lon="6.73744">
        <ele>1293</ele>
        <time>2010-01-31T08:48:31Z</time>
      </trkpt>
      <trkpt lat="43.73741" lon="6.73743">
        <ele>1293</ele>
        <time>2010-01-31T08:48:33Z</time>
      </trkpt>
      <trkpt lat="43.73738" lon="6.73742">
        <ele>1294</ele>
        <time>2010-01-31T08:48:36Z</time>
      </trkpt>
      <trkpt lat="43.73736" lon="6.73741">
        <ele>1295</ele>
        <time>2010-01-31T08:48:38Z</time>
      </trkpt>
      <trkpt lat="43.73731" lon="6.73739">
        <ele>1295</ele>
        <time>2010-01-31T08:48:41Z</time>
      </trkpt>
      <trkpt lat="43.73727" lon="6.73737">
        <ele>1295</ele>
        <time>2010-01-31T08:48:44Z</time>
      </trkpt>
      <trkpt lat="43.73723" lon="6.73734">
        <ele>1295</ele>
        <time>2010-01-31T08:48:47Z</time>
      </trkpt>
      <trkpt lat="43.73719" lon="6.73732">
        <ele>1295</ele>
        <time>2010-01-31T08:48:50Z</time>
      </trkpt>
      <trkpt lat="43.73714" lon="6.73729">
        <ele>1296</ele>
        <time>2010-01-31T08:48:53Z</time>
      </trkpt>
      <trkpt lat="43.7371" lon="6.73726">
        <ele>1296</ele>
        <time>2010-01-31T08:48:55Z</time>
      </trkpt>
      <trkpt lat="43.73706" lon="6.73721">
        <ele>1296</ele>
        <time>2010-01-31T08:48:58Z</time>
      </trkpt>
      <trkpt lat="43.73703" lon="6.73717">
        <ele>1296</ele>
        <time>2010-01-31T08:49:00Z</time>
      </trkpt>
      <trkpt lat="43.73699" lon="6.73712">
        <ele>1296</ele>
        <time>2010-01-31T08:49:03Z</time>
      </trkpt>
      <trkpt lat="43.73695" lon="6.73708">
        <ele>1296</ele>
        <time>2010-01-31T08:49:05Z</time>
      </trkpt>
      <trkpt lat="43.73691" lon="6.73704">
        <ele>1296</ele>
        <time>2010-01-31T08:49:07Z</time>
      </trkpt>
      <trkpt lat="43.73687" lon="6.737">
        <ele>1296</ele>
        <time>2010-01-31T08:49:09Z</time>
      </trkpt>
      <trkpt lat="43.73684" lon="6.73696">
        <ele>1296</ele>
        <time>2010-01-31T08:49:12Z</time>
      </trkpt>
      <trkpt lat="43.73681" lon="6.73694">
        <ele>1295</ele>
        <time>2010-01-31T08:49:14Z</time>
      </trkpt>
      <trkpt lat="43.73678" lon="6.73692">
        <ele>1295</ele>
        <time>2010-01-31T08:49:16Z</time>
      </trkpt>
      <trkpt lat="43.73673" lon="6.7369">
        <ele>1295</ele>
        <time>2010-01-31T08:49:19Z</time>
      </trkpt>
      <trkpt lat="43.73669" lon="6.73688">
        <ele>1295</ele>
        <time>2010-01-31T08:49:22Z</time>
      </trkpt>
      <trkpt lat="43.73665" lon="6.73686">
        <ele>1295</ele>
        <time>2010-01-31T08:49:24Z</time>
      </trkpt>
      <trkpt lat="43.73661" lon="6.73684">
        <ele>1295</ele>
        <time>2010-01-31T08:49:27Z</time>
      </trkpt>
      <trkpt lat="43.73656" lon="6.73682">
        <ele>1296</ele>
        <time>2010-01-31T08:49:29Z</time>
      </trkpt>
      <trkpt lat="43.73651" lon="6.73679">
        <ele>1295</ele>
        <time>2010-01-31T08:49:32Z</time>
      </trkpt>
      <trkpt lat="43.73646" lon="6.73676">
        <ele>1296</ele>
        <time>2010-01-31T08:49:34Z</time>
      </trkpt>
      <trkpt lat="43.73642" lon="6.73673">
        <ele>1296</ele>
        <time>2010-01-31T08:49:36Z</time>
      </trkpt>
      <trkpt lat="43.73637" lon="6.73671">
        <ele>1297</ele>
        <time>2010-01-31T08:49:39Z</time>
      </trkpt>
      <trkpt lat="43.73633" lon="6.73668">
        <ele>1297</ele>
        <time>2010-01-31T08:49:41Z</time>
      </trkpt>
      <trkpt lat="43.73629" lon="6.73665">
        <ele>1297</ele>
        <time>2010-01-31T08:49:43Z</time>
      </trkpt>
      <trkpt lat="43.73625" lon="6.73661">
        <ele>1297</ele>
        <time>2010-01-31T08:49:45Z</time>
      </trkpt>
      <trkpt lat="43.73621" lon="6.73658">
        <ele>1298</ele>
        <time>2010-01-31T08:49:47Z</time>
      </trkpt>
      <trkpt lat="43.73618" lon="6.73654">
        <ele>1298</ele>
        <time>2010-01-31T08:49:49Z</time>
      </trkpt>
      <trkpt lat="43.73615" lon="6.7365">
        <ele>1299</ele>
        <time>2010-01-31T08:49:51Z</time>
      </trkpt>
      <trkpt lat="43.73612" lon="6.73646">
        <ele>1299</ele>
        <time>2010-01-31T08:49:54Z</time>
      </trkpt>
      <trkpt lat="43.7361" lon="6.73642">
        <ele>1299</ele>
        <time>2010-01-31T08:49:56Z</time>
      </trkpt>
      <trkpt lat="43.73607" lon="6.73637">
        <ele>1300</ele>
        <time>2010-01-31T08:49:58Z</time>
      </trkpt>
      <trkpt lat="43.73605" lon="6.73633">
        <ele>1301</ele>
        <time>2010-01-31T08:50:00Z</time>
      </trkpt>
      <trkpt lat="43.73602" lon="6.73629">
        <ele>1300</ele>
        <time>2010-01-31T08:50:02Z</time>
      </trkpt>
      <trkpt lat="43.736" lon="6.73624">
        <ele>1300</ele>
        <time>2010-01-31T08:50:04Z</time>
      </trkpt>
      <trkpt lat="43.73598" lon="6.7362">
        <ele>1300</ele>
        <time>2010-01-31T08:50:07Z</time>
      </trkpt>
      <trkpt lat="43.73595" lon="6.73615">
        <ele>1300</ele>
        <time>2010-01-31T08:50:09Z</time>
      </trkpt>
      <trkpt lat="43.73593" lon="6.7361">
        <ele>1300</ele>
        <time>2010-01-31T08:50:11Z</time>
      </trkpt>
      <trkpt lat="43.73591" lon="6.73606">
        <ele>1300</ele>
        <time>2010-01-31T08:50:13Z</time>
      </trkpt>
      <trkpt lat="43.73588" lon="6.73601">
        <ele>1300</ele>
        <time>2010-01-31T08:50:15Z</time>
      </trkpt>
      <trkpt lat="43.73585" lon="6.73596">
        <ele>1301</ele>
        <time>2010-01-31T08:50:17Z</time>
      </trkpt>
      <trkpt lat="43.73582" lon="6.73592">
        <ele>1301</ele>
        <time>2010-01-31T08:50:20Z</time>
      </trkpt>
      <trkpt lat="43.73579" lon="6.73587">
        <ele>1302</ele>
        <time>2010-01-31T08:50:22Z</time>
      </trkpt>
      <trkpt lat="43.73576" lon="6.73583">
        <ele>1302</ele>
        <time>2010-01-31T08:50:24Z</time>
      </trkpt>
      <trkpt lat="43.73573" lon="6.73577">
        <ele>1302</ele>
        <time>2010-01-31T08:50:26Z</time>
      </trkpt>
      <trkpt lat="43.7357" lon="6.73572">
        <ele>1302</ele>
        <time>2010-01-31T08:50:28Z</time>
      </trkpt>
      <trkpt lat="43.73567" lon="6.73566">
        <ele>1303</ele>
        <time>2010-01-31T08:50:31Z</time>
      </trkpt>
      <trkpt lat="43.73564" lon="6.73561">
        <ele>1303</ele>
        <time>2010-01-31T08:50:33Z</time>
      </trkpt>
      <trkpt lat="43.73561" lon="6.73556">
        <ele>1303</ele>
        <time>2010-01-31T08:50:35Z</time>
      </trkpt>
      <trkpt lat="43.73559" lon="6.7355">
        <ele>1303</ele>
        <time>2010-01-31T08:50:37Z</time>
      </trkpt>
      <trkpt lat="43.73557" lon="6.73545">
        <ele>1304</ele>
        <time>2010-01-31T08:50:39Z</time>
      </trkpt>
      <trkpt lat="43.73555" lon="6.73539">
        <ele>1305</ele>
        <time>2010-01-31T08:50:41Z</time>
      </trkpt>
      <trkpt lat="43.73553" lon="6.73534">
        <ele>1305</ele>
        <time>2010-01-31T08:50:44Z</time>
      </trkpt>
      <trkpt lat="43.73552" lon="6.73528">
        <ele>1305</ele>
        <time>2010-01-31T08:50:46Z</time>
      </trkpt>
      <trkpt lat="43.7355" lon="6.73523">
        <ele>1305</ele>
        <time>2010-01-31T08:50:48Z</time>
      </trkpt>
      <trkpt lat="43.73548" lon="6.73518">
        <ele>1306</ele>
        <time>2010-01-31T08:50:50Z</time>
      </trkpt>
      <trkpt lat="43.73547" lon="6.73513">
        <ele>1307</ele>
        <time>2010-01-31T08:50:52Z</time>
      </trkpt>
      <trkpt lat="43.73545" lon="6.73508">
        <ele>1307</ele>
        <time>2010-01-31T08:50:54Z</time>
      </trkpt>
      <trkpt lat="43.73543" lon="6.73503">
        <ele>1308</ele>
        <time>2010-01-31T08:50:57Z</time>
      </trkpt>
      <trkpt lat="43.7354" lon="6.73498">
        <ele>1308</ele>
        <time>2010-01-31T08:50:59Z</time>
      </trkpt>
      <trkpt lat="43.73537" lon="6.73493">
        <ele>1309</ele>
        <time>2010-01-31T08:51:01Z</time>
      </trkpt>
      <trkpt lat="43.73535" lon="6.73487">
        <ele>1309</ele>
        <time>2010-01-31T08:51:03Z</time>
      </trkpt>
      <trkpt lat="43.73533" lon="6.73482">
        <ele>1310</ele>
        <time>2010-01-31T08:51:05Z</time>
      </trkpt>
      <trkpt lat="43.7353" lon="6.73474">
        <ele>1309</ele>
        <time>2010-01-31T08:51:09Z</time>
      </trkpt>
      <trkpt lat="43.73531" lon="6.73472">
        <ele>1309</ele>
        <time>2010-01-31T08:51:11Z</time>
      </trkpt>
      <trkpt lat="43.73531" lon="6.73469">
        <ele>1309</ele>
        <time>2010-01-31T08:51:16Z</time>
      </trkpt>
      <trkpt lat="43.73533" lon="6.73472">
        <ele>1309</ele>
        <time>2010-01-31T08:51:18Z</time>
      </trkpt>
      <trkpt lat="43.73534" lon="6.7347">
        <ele>1310</ele>
        <time>2010-01-31T08:51:21Z</time>
      </trkpt>
      <trkpt lat="43.73535" lon="6.73469">
        <ele>1309</ele>
        <time>2010-01-31T08:51:23Z</time>
      </trkpt>
      <trkpt lat="43.73536" lon="6.73469">
        <ele>1308</ele>
        <time>2010-01-31T08:51:24Z</time>
      </trkpt>
      <trkpt lat="43.73531" lon="6.73455">
        <ele>1298</ele>
        <time>2010-01-31T08:58:42Z</time>
      </trkpt>
      <trkpt lat="43.7353" lon="6.73452">
        <ele>1298</ele>
        <time>2010-01-31T08:58:45Z</time>
      </trkpt>
      <trkpt lat="43.73528" lon="6.73449">
        <ele>1298</ele>
        <time>2010-01-31T08:58:47Z</time>
      </trkpt>
      <trkpt lat="43.73526" lon="6.73444">
        <ele>1298</ele>
        <time>2010-01-31T08:58:49Z</time>
      </trkpt>
      <trkpt lat="43.73524" lon="6.73439">
        <ele>1299</ele>
        <time>2010-01-31T08:58:51Z</time>
      </trkpt>
      <trkpt lat="43.73522" lon="6.73432">
        <ele>1300</ele>
        <time>2010-01-31T08:58:54Z</time>
      </trkpt>
      <trkpt lat="43.73519" lon="6.73425">
        <ele>1300</ele>
        <time>2010-01-31T08:58:56Z</time>
      </trkpt>
      <trkpt lat="43.73516" lon="6.73418">
        <ele>1301</ele>
        <time>2010-01-31T08:58:58Z</time>
      </trkpt>
      <trkpt lat="43.73513" lon="6.7341">
        <ele>1302</ele>
        <time>2010-01-31T08:59:00Z</time>
      </trkpt>
      <trkpt lat="43.73511" lon="6.73403">
        <ele>1303</ele>
        <time>2010-01-31T08:59:02Z</time>
      </trkpt>
      <trkpt lat="43.73508" lon="6.73396">
        <ele>1303</ele>
        <time>2010-01-31T08:59:04Z</time>
      </trkpt>
      <trkpt lat="43.73505" lon="6.73389">
        <ele>1305</ele>
        <time>2010-01-31T08:59:07Z</time>
      </trkpt>
      <trkpt lat="43.73501" lon="6.73383">
        <ele>1306</ele>
        <time>2010-01-31T08:59:09Z</time>
      </trkpt>
      <trkpt lat="43.73496" lon="6.73371">
        <ele>1305</ele>
        <time>2010-01-31T08:59:14Z</time>
      </trkpt>
      <trkpt lat="43.73495" lon="6.73366">
        <ele>1306</ele>
        <time>2010-01-31T08:59:16Z</time>
      </trkpt>
      <trkpt lat="43.73493" lon="6.73361">
        <ele>1306</ele>
        <time>2010-01-31T08:59:19Z</time>
      </trkpt>
      <trkpt lat="43.73491" lon="6.73356">
        <ele>1306</ele>
        <time>2010-01-31T08:59:21Z</time>
      </trkpt>
      <trkpt lat="43.73488" lon="6.73348">
        <ele>1306</ele>
        <time>2010-01-31T08:59:24Z</time>
      </trkpt>
      <trkpt lat="43.73486" lon="6.7334">
        <ele>1305</ele>
        <time>2010-01-31T08:59:26Z</time>
      </trkpt>
      <trkpt lat="43.73483" lon="6.73333">
        <ele>1305</ele>
        <time>2010-01-31T08:59:28Z</time>
      </trkpt>
      <trkpt lat="43.7348" lon="6.73324">
        <ele>1305</ele>
        <time>2010-01-31T08:59:31Z</time>
      </trkpt>
      <trkpt lat="43.73476" lon="6.73314">
        <ele>1304</ele>
        <time>2010-01-31T08:59:34Z</time>
      </trkpt>
      <trkpt lat="43.73473" lon="6.73306">
        <ele>1304</ele>
        <time>2010-01-31T08:59:36Z</time>
      </trkpt>
      <trkpt lat="43.7347" lon="6.73298">
        <ele>1306</ele>
        <time>2010-01-31T08:59:38Z</time>
      </trkpt>
      <trkpt lat="43.73467" lon="6.73289">
        <ele>1307</ele>
        <time>2010-01-31T08:59:40Z</time>
      </trkpt>
      <trkpt lat="43.73464" lon="6.7328">
        <ele>1307</ele>
        <time>2010-01-31T08:59:42Z</time>
      </trkpt>
      <trkpt lat="43.73462" lon="6.73271">
        <ele>1308</ele>
        <time>2010-01-31T08:59:45Z</time>
      </trkpt>
      <trkpt lat="43.73457" lon="6.73254">
        <ele>1310</ele>
        <time>2010-01-31T08:59:49Z</time>
      </trkpt>
      <trkpt lat="43.73455" lon="6.73244">
        <ele>1311</ele>
        <time>2010-01-31T08:59:51Z</time>
      </trkpt>
      <trkpt lat="43.73453" lon="6.73234">
        <ele>1311</ele>
        <time>2010-01-31T08:59:53Z</time>
      </trkpt>
      <trkpt lat="43.73451" lon="6.73224">
        <ele>1312</ele>
        <time>2010-01-31T08:59:55Z</time>
      </trkpt>
      <trkpt lat="43.73449" lon="6.73215">
        <ele>1312</ele>
        <time>2010-01-31T08:59:58Z</time>
      </trkpt>
      <trkpt lat="43.73447" lon="6.73207">
        <ele>1312</ele>
        <time>2010-01-31T09:00:00Z</time>
      </trkpt>
      <trkpt lat="43.73445" lon="6.732">
        <ele>1312</ele>
        <time>2010-01-31T09:00:02Z</time>
      </trkpt>
      <trkpt lat="43.73443" lon="6.73193">
        <ele>1312</ele>
        <time>2010-01-31T09:00:04Z</time>
      </trkpt>
      <trkpt lat="43.73441" lon="6.73185">
        <ele>1312</ele>
        <time>2010-01-31T09:00:06Z</time>
      </trkpt>
      <trkpt lat="43.73438" lon="6.73176">
        <ele>1311</ele>
        <time>2010-01-31T09:00:08Z</time>
      </trkpt>
      <trkpt lat="43.73435" lon="6.73169">
        <ele>1311</ele>
        <time>2010-01-31T09:00:11Z</time>
      </trkpt>
      <trkpt lat="43.73431" lon="6.73162">
        <ele>1312</ele>
        <time>2010-01-31T09:00:13Z</time>
      </trkpt>
      <trkpt lat="43.73427" lon="6.73155">
        <ele>1313</ele>
        <time>2010-01-31T09:00:15Z</time>
      </trkpt>
      <trkpt lat="43.73423" lon="6.73148">
        <ele>1313</ele>
        <time>2010-01-31T09:00:17Z</time>
      </trkpt>
      <trkpt lat="43.73419" lon="6.73142">
        <ele>1313</ele>
        <time>2010-01-31T09:00:19Z</time>
      </trkpt>
      <trkpt lat="43.73415" lon="6.73137">
        <ele>1313</ele>
        <time>2010-01-31T09:00:21Z</time>
      </trkpt>
      <trkpt lat="43.73407" lon="6.73125">
        <ele>1312</ele>
        <time>2010-01-31T09:00:25Z</time>
      </trkpt>
      <trkpt lat="43.73403" lon="6.73118">
        <ele>1312</ele>
        <time>2010-01-31T09:00:28Z</time>
      </trkpt>
      <trkpt lat="43.73398" lon="6.73108">
        <ele>1311</ele>
        <time>2010-01-31T09:00:30Z</time>
      </trkpt>
      <trkpt lat="43.73394" lon="6.73102">
        <ele>1310</ele>
        <time>2010-01-31T09:00:32Z</time>
      </trkpt>
      <trkpt lat="43.7339" lon="6.73094">
        <ele>1309</ele>
        <time>2010-01-31T09:00:34Z</time>
      </trkpt>
      <trkpt lat="43.73385" lon="6.73088">
        <ele>1309</ele>
        <time>2010-01-31T09:00:37Z</time>
      </trkpt>
      <trkpt lat="43.73381" lon="6.73081">
        <ele>1309</ele>
        <time>2010-01-31T09:00:39Z</time>
      </trkpt>
      <trkpt lat="43.73377" lon="6.73073">
        <ele>1310</ele>
        <time>2010-01-31T09:00:41Z</time>
      </trkpt>
      <trkpt lat="43.73373" lon="6.73066">
        <ele>1311</ele>
        <time>2010-01-31T09:00:43Z</time>
      </trkpt>
      <trkpt lat="43.7337" lon="6.7306">
        <ele>1311</ele>
        <time>2010-01-31T09:00:46Z</time>
      </trkpt>
      <trkpt lat="43.73368" lon="6.73055">
        <ele>1311</ele>
        <time>2010-01-31T09:00:48Z</time>
      </trkpt>
      <trkpt lat="43.73366" lon="6.7305">
        <ele>1312</ele>
        <time>2010-01-31T09:00:50Z</time>
      </trkpt>
      <trkpt lat="43.73363" lon="6.73046">
        <ele>1312</ele>
        <time>2010-01-31T09:00:52Z</time>
      </trkpt>
      <trkpt lat="43.73359" lon="6.73042">
        <ele>1314</ele>
        <time>2010-01-31T09:00:54Z</time>
      </trkpt>
      <trkpt lat="43.73355" lon="6.73037">
        <ele>1315</ele>
        <time>2010-01-31T09:00:57Z</time>
      </trkpt>
      <trkpt lat="43.73349" lon="6.73031">
        <ele>1315</ele>
        <time>2010-01-31T09:00:59Z</time>
      </trkpt>
      <trkpt lat="43.73343" lon="6.73025">
        <ele>1316</ele>
        <time>2010-01-31T09:01:01Z</time>
      </trkpt>
      <trkpt lat="43.73335" lon="6.73017">
        <ele>1316</ele>
        <time>2010-01-31T09:01:03Z</time>
      </trkpt>
      <trkpt lat="43.73329" lon="6.73012">
        <ele>1316</ele>
        <time>2010-01-31T09:01:05Z</time>
      </trkpt>
      <trkpt lat="43.73323" lon="6.73008">
        <ele>1316</ele>
        <time>2010-01-31T09:01:08Z</time>
      </trkpt>
      <trkpt lat="43.73317" lon="6.73005">
        <ele>1316</ele>
        <time>2010-01-31T09:01:10Z</time>
      </trkpt>
      <trkpt lat="43.73311" lon="6.73002">
        <ele>1316</ele>
        <time>2010-01-31T09:01:12Z</time>
      </trkpt>
      <trkpt lat="43.73304" lon="6.73001">
        <ele>1316</ele>
        <time>2010-01-31T09:01:14Z</time>
      </trkpt>
      <trkpt lat="43.73298" lon="6.72999">
        <ele>1316</ele>
        <time>2010-01-31T09:01:17Z</time>
      </trkpt>
      <trkpt lat="43.73292" lon="6.72999">
        <ele>1317</ele>
        <time>2010-01-31T09:01:19Z</time>
      </trkpt>
      <trkpt lat="43.73287" lon="6.72998">
        <ele>1317</ele>
        <time>2010-01-31T09:01:21Z</time>
      </trkpt>
      <trkpt lat="43.7328" lon="6.72998">
        <ele>1317</ele>
        <time>2010-01-31T09:01:23Z</time>
      </trkpt>
      <trkpt lat="43.73273" lon="6.72997">
        <ele>1317</ele>
        <time>2010-01-31T09:01:26Z</time>
      </trkpt>
      <trkpt lat="43.73266" lon="6.72995">
        <ele>1317</ele>
        <time>2010-01-31T09:01:28Z</time>
      </trkpt>
      <trkpt lat="43.73259" lon="6.72994">
        <ele>1317</ele>
        <time>2010-01-31T09:01:30Z</time>
      </trkpt>
      <trkpt lat="43.73252" lon="6.72994">
        <ele>1317</ele>
        <time>2010-01-31T09:01:33Z</time>
      </trkpt>
      <trkpt lat="43.73246" lon="6.72993">
        <ele>1317</ele>
        <time>2010-01-31T09:01:35Z</time>
      </trkpt>
      <trkpt lat="43.7324" lon="6.72994">
        <ele>1318</ele>
        <time>2010-01-31T09:01:37Z</time>
      </trkpt>
      <trkpt lat="43.73235" lon="6.72994">
        <ele>1319</ele>
        <time>2010-01-31T09:01:39Z</time>
      </trkpt>
      <trkpt lat="43.73231" lon="6.72995">
        <ele>1320</ele>
        <time>2010-01-31T09:01:41Z</time>
      </trkpt>
      <trkpt lat="43.73227" lon="6.72996">
        <ele>1321</ele>
        <time>2010-01-31T09:01:44Z</time>
      </trkpt>
      <trkpt lat="43.73222" lon="6.72997">
        <ele>1321</ele>
        <time>2010-01-31T09:01:46Z</time>
      </trkpt>
      <trkpt lat="43.73216" lon="6.72997">
        <ele>1322</ele>
        <time>2010-01-31T09:01:48Z</time>
      </trkpt>
      <trkpt lat="43.7321" lon="6.72997">
        <ele>1323</ele>
        <time>2010-01-31T09:01:50Z</time>
      </trkpt>
      <trkpt lat="43.73205" lon="6.72999">
        <ele>1323</ele>
        <time>2010-01-31T09:01:53Z</time>
      </trkpt>
      <trkpt lat="43.732" lon="6.73002">
        <ele>1322</ele>
        <time>2010-01-31T09:01:55Z</time>
      </trkpt>
      <trkpt lat="43.73196" lon="6.73008">
        <ele>1323</ele>
        <time>2010-01-31T09:01:57Z</time>
      </trkpt>
      <trkpt lat="43.73192" lon="6.73013">
        <ele>1324</ele>
        <time>2010-01-31T09:02:00Z</time>
      </trkpt>
      <trkpt lat="43.73188" lon="6.73018">
        <ele>1324</ele>
        <time>2010-01-31T09:02:02Z</time>
      </trkpt>
      <trkpt lat="43.73183" lon="6.73022">
        <ele>1326</ele>
        <time>2010-01-31T09:02:04Z</time>
      </trkpt>
      <trkpt lat="43.73176" lon="6.73024">
        <ele>1326</ele>
        <time>2010-01-31T09:02:06Z</time>
      </trkpt>
      <trkpt lat="43.73168" lon="6.73024">
        <ele>1326</ele>
        <time>2010-01-31T09:02:09Z</time>
      </trkpt>
      <trkpt lat="43.73159" lon="6.73023">
        <ele>1325</ele>
        <time>2010-01-31T09:02:11Z</time>
      </trkpt>
      <trkpt lat="43.73151" lon="6.73024">
        <ele>1325</ele>
        <time>2010-01-31T09:02:13Z</time>
      </trkpt>
      <trkpt lat="43.73143" lon="6.73025">
        <ele>1324</ele>
        <time>2010-01-31T09:02:16Z</time>
      </trkpt>
      <trkpt lat="43.73138" lon="6.73025">
        <ele>1324</ele>
        <time>2010-01-31T09:02:18Z</time>
      </trkpt>
      <trkpt lat="43.73127" lon="6.7303">
        <ele>1319</ele>
        <time>2010-01-31T09:02:33Z</time>
      </trkpt>
      <trkpt lat="43.73126" lon="6.7303">
        <ele>1317</ele>
        <time>2010-01-31T09:02:36Z</time>
      </trkpt>
      <trkpt lat="43.73125" lon="6.7303">
        <ele>1316</ele>
        <time>2010-01-31T09:02:37Z</time>
      </trkpt>
      <trkpt lat="43.73114" lon="6.73034">
        <ele>1296</ele>
        <time>2010-01-31T09:08:15Z</time>
      </trkpt>
      <trkpt lat="43.7311" lon="6.73041">
        <ele>1297</ele>
        <time>2010-01-31T09:08:17Z</time>
      </trkpt>
      <trkpt lat="43.73107" lon="6.7305">
        <ele>1297</ele>
        <time>2010-01-31T09:08:19Z</time>
      </trkpt>
      <trkpt lat="43.73105" lon="6.73058">
        <ele>1297</ele>
        <time>2010-01-31T09:08:21Z</time>
      </trkpt>
      <trkpt lat="43.73103" lon="6.73069">
        <ele>1299</ele>
        <time>2010-01-31T09:08:24Z</time>
      </trkpt>
      <trkpt lat="43.73101" lon="6.73077">
        <ele>1300</ele>
        <time>2010-01-31T09:08:26Z</time>
      </trkpt>
      <trkpt lat="43.731" lon="6.73083">
        <ele>1301</ele>
        <time>2010-01-31T09:08:28Z</time>
      </trkpt>
      <trkpt lat="43.73098" lon="6.73087">
        <ele>1301</ele>
        <time>2010-01-31T09:08:31Z</time>
      </trkpt>
      <trkpt lat="43.73098" lon="6.7309">
        <ele>1301</ele>
        <time>2010-01-31T09:08:33Z</time>
      </trkpt>
      <trkpt lat="43.73097" lon="6.73092">
        <ele>1302</ele>
        <time>2010-01-31T09:08:35Z</time>
      </trkpt>
      <trkpt lat="43.73097" lon="6.73095">
        <ele>1302</ele>
        <time>2010-01-31T09:08:37Z</time>
      </trkpt>
      <trkpt lat="43.73096" lon="6.731">
        <ele>1303</ele>
        <time>2010-01-31T09:08:40Z</time>
      </trkpt>
      <trkpt lat="43.73095" lon="6.73107">
        <ele>1303</ele>
        <time>2010-01-31T09:08:43Z</time>
      </trkpt>
      <trkpt lat="43.73094" lon="6.73116">
        <ele>1303</ele>
        <time>2010-01-31T09:08:45Z</time>
      </trkpt>
      <trkpt lat="43.73094" lon="6.73124">
        <ele>1303</ele>
        <time>2010-01-31T09:08:47Z</time>
      </trkpt>
      <trkpt lat="43.73092" lon="6.73136">
        <ele>1304</ele>
        <time>2010-01-31T09:08:51Z</time>
      </trkpt>
      <trkpt lat="43.73091" lon="6.73144">
        <ele>1305</ele>
        <time>2010-01-31T09:08:53Z</time>
      </trkpt>
      <trkpt lat="43.7309" lon="6.73151">
        <ele>1306</ele>
        <time>2010-01-31T09:08:55Z</time>
      </trkpt>
      <trkpt lat="43.73089" lon="6.73157">
        <ele>1308</ele>
        <time>2010-01-31T09:08:57Z</time>
      </trkpt>
      <trkpt lat="43.73087" lon="6.73161">
        <ele>1310</ele>
        <time>2010-01-31T09:08:59Z</time>
      </trkpt>
      <trkpt lat="43.73084" lon="6.73166">
        <ele>1312</ele>
        <time>2010-01-31T09:09:02Z</time>
      </trkpt>
      <trkpt lat="43.73078" lon="6.73169">
        <ele>1312</ele>
        <time>2010-01-31T09:09:04Z</time>
      </trkpt>
      <trkpt lat="43.73072" lon="6.73171">
        <ele>1312</ele>
        <time>2010-01-31T09:09:06Z</time>
      </trkpt>
      <trkpt lat="43.73066" lon="6.73173">
        <ele>1313</ele>
        <time>2010-01-31T09:09:08Z</time>
      </trkpt>
      <trkpt lat="43.7306" lon="6.73176">
        <ele>1313</ele>
        <time>2010-01-31T09:09:10Z</time>
      </trkpt>
      <trkpt lat="43.73053" lon="6.73179">
        <ele>1312</ele>
        <time>2010-01-31T09:09:13Z</time>
      </trkpt>
      <trkpt lat="43.73047" lon="6.73183">
        <ele>1312</ele>
        <time>2010-01-31T09:09:15Z</time>
      </trkpt>
      <trkpt lat="43.73042" lon="6.73186">
        <ele>1313</ele>
        <time>2010-01-31T09:09:17Z</time>
      </trkpt>
      <trkpt lat="43.73037" lon="6.7319">
        <ele>1313</ele>
        <time>2010-01-31T09:09:19Z</time>
      </trkpt>
      <trkpt lat="43.73032" lon="6.73193">
        <ele>1315</ele>
        <time>2010-01-31T09:09:22Z</time>
      </trkpt>
      <trkpt lat="43.73028" lon="6.73196">
        <ele>1315</ele>
        <time>2010-01-31T09:09:24Z</time>
      </trkpt>
      <trkpt lat="43.73023" lon="6.73199">
        <ele>1314</ele>
        <time>2010-01-31T09:09:26Z</time>
      </trkpt>
      <trkpt lat="43.73018" lon="6.73202">
        <ele>1315</ele>
        <time>2010-01-31T09:09:28Z</time>
      </trkpt>
      <trkpt lat="43.73013" lon="6.73205">
        <ele>1316</ele>
        <time>2010-01-31T09:09:30Z</time>
      </trkpt>
      <trkpt lat="43.73009" lon="6.73208">
        <ele>1316</ele>
        <time>2010-01-31T09:09:33Z</time>
      </trkpt>
      <trkpt lat="43.73005" lon="6.73212">
        <ele>1316</ele>
        <time>2010-01-31T09:09:35Z</time>
      </trkpt>
      <trkpt lat="43.73002" lon="6.73217">
        <ele>1316</ele>
        <time>2010-01-31T09:09:37Z</time>
      </trkpt>
      <trkpt lat="43.73" lon="6.73222">
        <ele>1317</ele>
        <time>2010-01-31T09:09:39Z</time>
      </trkpt>
      <trkpt lat="43.72998" lon="6.73228">
        <ele>1318</ele>
        <time>2010-01-31T09:09:41Z</time>
      </trkpt>
      <trkpt lat="43.72996" lon="6.73234">
        <ele>1319</ele>
        <time>2010-01-31T09:09:44Z</time>
      </trkpt>
      <trkpt lat="43.72993" lon="6.7324">
        <ele>1320</ele>
        <time>2010-01-31T09:09:46Z</time>
      </trkpt>
      <trkpt lat="43.72989" lon="6.73246">
        <ele>1322</ele>
        <time>2010-01-31T09:09:48Z</time>
      </trkpt>
      <trkpt lat="43.72985" lon="6.7325">
        <ele>1323</ele>
        <time>2010-01-31T09:09:50Z</time>
      </trkpt>
      <trkpt lat="43.7298" lon="6.73253">
        <ele>1325</ele>
        <time>2010-01-31T09:09:53Z</time>
      </trkpt>
      <trkpt lat="43.72976" lon="6.73257">
        <ele>1324</ele>
        <time>2010-01-31T09:09:55Z</time>
      </trkpt>
      <trkpt lat="43.72971" lon="6.7326">
        <ele>1325</ele>
        <time>2010-01-31T09:09:57Z</time>
      </trkpt>
      <trkpt lat="43.72967" lon="6.73266">
        <ele>1325</ele>
        <time>2010-01-31T09:10:00Z</time>
      </trkpt>
      <trkpt lat="43.72963" lon="6.73272">
        <ele>1325</ele>
        <time>2010-01-31T09:10:02Z</time>
      </trkpt>
      <trkpt lat="43.7296" lon="6.73279">
        <ele>1326</ele>
        <time>2010-01-31T09:10:04Z</time>
      </trkpt>
      <trkpt lat="43.72957" lon="6.73287">
        <ele>1328</ele>
        <time>2010-01-31T09:10:06Z</time>
      </trkpt>
      <trkpt lat="43.72955" lon="6.73298">
        <ele>1328</ele>
        <time>2010-01-31T09:10:09Z</time>
      </trkpt>
      <trkpt lat="43.72953" lon="6.7331">
        <ele>1329</ele>
        <time>2010-01-31T09:10:11Z</time>
      </trkpt>
      <trkpt lat="43.72951" lon="6.73321">
        <ele>1328</ele>
        <time>2010-01-31T09:10:13Z</time>
      </trkpt>
      <trkpt lat="43.72949" lon="6.73333">
        <ele>1328</ele>
        <time>2010-01-31T09:10:15Z</time>
      </trkpt>
      <trkpt lat="43.72946" lon="6.73345">
        <ele>1329</ele>
        <time>2010-01-31T09:10:18Z</time>
      </trkpt>
      <trkpt lat="43.72943" lon="6.73356">
        <ele>1331</ele>
        <time>2010-01-31T09:10:20Z</time>
      </trkpt>
      <trkpt lat="43.7294" lon="6.73367">
        <ele>1332</ele>
        <time>2010-01-31T09:10:22Z</time>
      </trkpt>
      <trkpt lat="43.72938" lon="6.73378">
        <ele>1331</ele>
        <time>2010-01-31T09:10:24Z</time>
      </trkpt>
      <trkpt lat="43.72935" lon="6.73389">
        <ele>1329</ele>
        <time>2010-01-31T09:10:26Z</time>
      </trkpt>
      <trkpt lat="43.72932" lon="6.73399">
        <ele>1328</ele>
        <time>2010-01-31T09:10:29Z</time>
      </trkpt>
      <trkpt lat="43.7293" lon="6.73409">
        <ele>1328</ele>
        <time>2010-01-31T09:10:31Z</time>
      </trkpt>
      <trkpt lat="43.72929" lon="6.73417">
        <ele>1328</ele>
        <time>2010-01-31T09:10:33Z</time>
      </trkpt>
      <trkpt lat="43.72928" lon="6.73424">
        <ele>1327</ele>
        <time>2010-01-31T09:10:35Z</time>
      </trkpt>
      <trkpt lat="43.72927" lon="6.73431">
        <ele>1327</ele>
        <time>2010-01-31T09:10:37Z</time>
      </trkpt>
      <trkpt lat="43.72926" lon="6.73439">
        <ele>1326</ele>
        <time>2010-01-31T09:10:39Z</time>
      </trkpt>
      <trkpt lat="43.72923" lon="6.73445">
        <ele>1326</ele>
        <time>2010-01-31T09:10:42Z</time>
      </trkpt>
      <trkpt lat="43.7292" lon="6.73451">
        <ele>1326</ele>
        <time>2010-01-31T09:10:44Z</time>
      </trkpt>
      <trkpt lat="43.72916" lon="6.73455">
        <ele>1325</ele>
        <time>2010-01-31T09:10:46Z</time>
      </trkpt>
      <trkpt lat="43.72915" lon="6.73456">
        <ele>1325</ele>
        <time>2010-01-31T09:10:47Z</time>
      </trkpt>
      <trkpt lat="43.72901" lon="6.73463">
        <ele>1322</ele>
        <time>2010-01-31T09:10:55Z</time>
      </trkpt>
      <trkpt lat="43.72898" lon="6.73464">
        <ele>1321</ele>
        <time>2010-01-31T09:10:57Z</time>
      </trkpt>
      <trkpt lat="43.72897" lon="6.73464">
        <ele>1321</ele>
        <time>2010-01-31T09:10:58Z</time>
      </trkpt>
      <trkpt lat="43.72892" lon="6.73464">
        <ele>1315</ele>
        <time>2010-01-31T09:11:04Z</time>
      </trkpt>
      <trkpt lat="43.72885" lon="6.73464">
        <ele>1315</ele>
        <time>2010-01-31T09:11:06Z</time>
      </trkpt>
      <trkpt lat="43.72877" lon="6.73463">
        <ele>1314</ele>
        <time>2010-01-31T09:11:09Z</time>
      </trkpt>
      <trkpt lat="43.72863" lon="6.73459">
        <ele>1314</ele>
        <time>2010-01-31T09:11:11Z</time>
      </trkpt>
      <trkpt lat="43.72854" lon="6.73457">
        <ele>1314</ele>
        <time>2010-01-31T09:11:13Z</time>
      </trkpt>
      <trkpt lat="43.72846" lon="6.73454">
        <ele>1314</ele>
        <time>2010-01-31T09:11:16Z</time>
      </trkpt>
      <trkpt lat="43.72838" lon="6.73453">
        <ele>1313</ele>
        <time>2010-01-31T09:11:18Z</time>
      </trkpt>
      <trkpt lat="43.72833" lon="6.73451">
        <ele>1312</ele>
        <time>2010-01-31T09:11:20Z</time>
      </trkpt>
      <trkpt lat="43.72821" lon="6.73447">
        <ele>1315</ele>
        <time>2010-01-31T09:11:39Z</time>
      </trkpt>
      <trkpt lat="43.72819" lon="6.73446">
        <ele>1315</ele>
        <time>2010-01-31T09:11:41Z</time>
      </trkpt>
      <trkpt lat="43.72818" lon="6.73446">
        <ele>1315</ele>
        <time>2010-01-31T09:11:43Z</time>
      </trkpt>
      <trkpt lat="43.72808" lon="6.73441">
        <ele>1316</ele>
        <time>2010-01-31T09:11:50Z</time>
      </trkpt>
      <trkpt lat="43.72803" lon="6.7344">
        <ele>1316</ele>
        <time>2010-01-31T09:11:52Z</time>
      </trkpt>
      <trkpt lat="43.72797" lon="6.73439">
        <ele>1317</ele>
        <time>2010-01-31T09:11:54Z</time>
      </trkpt>
      <trkpt lat="43.72791" lon="6.7344">
        <ele>1317</ele>
        <time>2010-01-31T09:11:56Z</time>
      </trkpt>
      <trkpt lat="43.72786" lon="6.73441">
        <ele>1318</ele>
        <time>2010-01-31T09:11:59Z</time>
      </trkpt>
      <trkpt lat="43.72781" lon="6.73443">
        <ele>1318</ele>
        <time>2010-01-31T09:12:01Z</time>
      </trkpt>
      <trkpt lat="43.72778" lon="6.73445">
        <ele>1318</ele>
        <time>2010-01-31T09:12:03Z</time>
      </trkpt>
      <trkpt lat="43.72773" lon="6.73448">
        <ele>1319</ele>
        <time>2010-01-31T09:12:06Z</time>
      </trkpt>
      <trkpt lat="43.7277" lon="6.73451">
        <ele>1319</ele>
        <time>2010-01-31T09:12:08Z</time>
      </trkpt>
      <trkpt lat="43.72768" lon="6.73455">
        <ele>1320</ele>
        <time>2010-01-31T09:12:10Z</time>
      </trkpt>
      <trkpt lat="43.72766" lon="6.73459">
        <ele>1319</ele>
        <time>2010-01-31T09:12:12Z</time>
      </trkpt>
      <trkpt lat="43.72764" lon="6.73464">
        <ele>1320</ele>
        <time>2010-01-31T09:12:14Z</time>
      </trkpt>
      <trkpt lat="43.72762" lon="6.73469">
        <ele>1320</ele>
        <time>2010-01-31T09:12:16Z</time>
      </trkpt>
      <trkpt lat="43.7276" lon="6.73475">
        <ele>1322</ele>
        <time>2010-01-31T09:12:19Z</time>
      </trkpt>
      <trkpt lat="43.72758" lon="6.73481">
        <ele>1323</ele>
        <time>2010-01-31T09:12:21Z</time>
      </trkpt>
      <trkpt lat="43.72756" lon="6.73487">
        <ele>1323</ele>
        <time>2010-01-31T09:12:23Z</time>
      </trkpt>
      <trkpt lat="43.72755" lon="6.73495">
        <ele>1325</ele>
        <time>2010-01-31T09:12:25Z</time>
      </trkpt>
      <trkpt lat="43.72752" lon="6.73502">
        <ele>1327</ele>
        <time>2010-01-31T09:12:27Z</time>
      </trkpt>
      <trkpt lat="43.7275" lon="6.73508">
        <ele>1328</ele>
        <time>2010-01-31T09:12:30Z</time>
      </trkpt>
      <trkpt lat="43.72747" lon="6.73514">
        <ele>1328</ele>
        <time>2010-01-31T09:12:32Z</time>
      </trkpt>
      <trkpt lat="43.72741" lon="6.73524">
        <ele>1328</ele>
        <time>2010-01-31T09:12:37Z</time>
      </trkpt>
      <trkpt lat="43.72737" lon="6.73527">
        <ele>1327</ele>
        <time>2010-01-31T09:12:41Z</time>
      </trkpt>
      <trkpt lat="43.72733" lon="6.73525">
        <ele>1327</ele>
        <time>2010-01-31T09:12:44Z</time>
      </trkpt>
      <trkpt lat="43.72731" lon="6.73525">
        <ele>1326</ele>
        <time>2010-01-31T09:12:46Z</time>
      </trkpt>
      <trkpt lat="43.72729" lon="6.73524">
        <ele>1325</ele>
        <time>2010-01-31T09:12:48Z</time>
      </trkpt>
      <trkpt lat="43.72724" lon="6.73525">
        <ele>1322</ele>
        <time>2010-01-31T09:12:53Z</time>
      </trkpt>
      <trkpt lat="43.72722" lon="6.73523">
        <ele>1321</ele>
        <time>2010-01-31T09:12:56Z</time>
      </trkpt>
      <trkpt lat="43.72721" lon="6.73523">
        <ele>1320</ele>
        <time>2010-01-31T09:12:58Z</time>
      </trkpt>
      <trkpt lat="43.7272" lon="6.73522">
        <ele>1320</ele>
        <time>2010-01-31T09:13:03Z</time>
      </trkpt>
      <trkpt lat="43.72722" lon="6.7352">
        <ele>1315</ele>
        <time>2010-01-31T09:13:05Z</time>
      </trkpt>
      <trkpt lat="43.72721" lon="6.73538">
        <ele>1321</ele>
        <time>2010-01-31T09:15:36Z</time>
      </trkpt>
      <trkpt lat="43.7272" lon="6.73543">
        <ele>1321</ele>
        <time>2010-01-31T09:15:38Z</time>
      </trkpt>
      <trkpt lat="43.72718" lon="6.73549">
        <ele>1323</ele>
        <time>2010-01-31T09:15:40Z</time>
      </trkpt>
      <trkpt lat="43.72716" lon="6.73554">
        <ele>1323</ele>
        <time>2010-01-31T09:15:43Z</time>
      </trkpt>
      <trkpt lat="43.72715" lon="6.73558">
        <ele>1323</ele>
        <time>2010-01-31T09:15:45Z</time>
      </trkpt>
      <trkpt lat="43.72714" lon="6.73562">
        <ele>1323</ele>
        <time>2010-01-31T09:15:47Z</time>
      </trkpt>
      <trkpt lat="43.72713" lon="6.73566">
        <ele>1322</ele>
        <time>2010-01-31T09:15:49Z</time>
      </trkpt>
      <trkpt lat="43.72713" lon="6.73569">
        <ele>1321</ele>
        <time>2010-01-31T09:15:51Z</time>
      </trkpt>
      <trkpt lat="43.72712" lon="6.73575">
        <ele>1322</ele>
        <time>2010-01-31T09:15:55Z</time>
      </trkpt>
      <trkpt lat="43.72711" lon="6.7358">
        <ele>1322</ele>
        <time>2010-01-31T09:15:57Z</time>
      </trkpt>
      <trkpt lat="43.72711" lon="6.73586">
        <ele>1322</ele>
        <time>2010-01-31T09:16:00Z</time>
      </trkpt>
      <trkpt lat="43.7271" lon="6.73596">
        <ele>1322</ele>
        <time>2010-01-31T09:16:02Z</time>
      </trkpt>
      <trkpt lat="43.72709" lon="6.73609">
        <ele>1324</ele>
        <time>2010-01-31T09:16:05Z</time>
      </trkpt>
      <trkpt lat="43.72708" lon="6.73621">
        <ele>1327</ele>
        <time>2010-01-31T09:16:07Z</time>
      </trkpt>
      <trkpt lat="43.72707" lon="6.73632">
        <ele>1328</ele>
        <time>2010-01-31T09:16:09Z</time>
      </trkpt>
      <trkpt lat="43.72707" lon="6.73643">
        <ele>1329</ele>
        <time>2010-01-31T09:16:11Z</time>
      </trkpt>
      <trkpt lat="43.72706" lon="6.73651">
        <ele>1330</ele>
        <time>2010-01-31T09:16:13Z</time>
      </trkpt>
      <trkpt lat="43.72704" lon="6.73654">
        <ele>1330</ele>
        <time>2010-01-31T09:16:16Z</time>
      </trkpt>
      <trkpt lat="43.7269" lon="6.73657">
        <ele>1323</ele>
        <time>2010-01-31T09:16:43Z</time>
      </trkpt>
      <trkpt lat="43.72689" lon="6.73658">
        <ele>1323</ele>
        <time>2010-01-31T09:16:46Z</time>
      </trkpt>
      <trkpt lat="43.72688" lon="6.73659">
        <ele>1323</ele>
        <time>2010-01-31T09:16:48Z</time>
      </trkpt>
      <trkpt lat="43.72687" lon="6.73661">
        <ele>1323</ele>
        <time>2010-01-31T09:16:50Z</time>
      </trkpt>
      <trkpt lat="43.72685" lon="6.73662">
        <ele>1323</ele>
        <time>2010-01-31T09:16:52Z</time>
      </trkpt>
      <trkpt lat="43.72684" lon="6.73665">
        <ele>1324</ele>
        <time>2010-01-31T09:16:54Z</time>
      </trkpt>
      <trkpt lat="43.72682" lon="6.73668">
        <ele>1324</ele>
        <time>2010-01-31T09:16:56Z</time>
      </trkpt>
      <trkpt lat="43.7268" lon="6.7367">
        <ele>1324</ele>
        <time>2010-01-31T09:16:58Z</time>
      </trkpt>
      <trkpt lat="43.72678" lon="6.73674">
        <ele>1324</ele>
        <time>2010-01-31T09:17:01Z</time>
      </trkpt>
      <trkpt lat="43.72676" lon="6.73677">
        <ele>1324</ele>
        <time>2010-01-31T09:17:03Z</time>
      </trkpt>
      <trkpt lat="43.72675" lon="6.7368">
        <ele>1325</ele>
        <time>2010-01-31T09:17:06Z</time>
      </trkpt>
      <trkpt lat="43.72673" lon="6.73683">
        <ele>1326</ele>
        <time>2010-01-31T09:17:08Z</time>
      </trkpt>
      <trkpt lat="43.72672" lon="6.73686">
        <ele>1326</ele>
        <time>2010-01-31T09:17:10Z</time>
      </trkpt>
      <trkpt lat="43.72671" lon="6.73689">
        <ele>1326</ele>
        <time>2010-01-31T09:17:12Z</time>
      </trkpt>
      <trkpt lat="43.72669" lon="6.73692">
        <ele>1327</ele>
        <time>2010-01-31T09:17:14Z</time>
      </trkpt>
      <trkpt lat="43.72668" lon="6.73695">
        <ele>1327</ele>
        <time>2010-01-31T09:17:16Z</time>
      </trkpt>
      <trkpt lat="43.72666" lon="6.737">
        <ele>1328</ele>
        <time>2010-01-31T09:17:21Z</time>
      </trkpt>
      <trkpt lat="43.72664" lon="6.73703">
        <ele>1329</ele>
        <time>2010-01-31T09:17:23Z</time>
      </trkpt>
      <trkpt lat="43.72664" lon="6.73705">
        <ele>1330</ele>
        <time>2010-01-31T09:17:26Z</time>
      </trkpt>
      <trkpt lat="43.72663" lon="6.73708">
        <ele>1331</ele>
        <time>2010-01-31T09:17:30Z</time>
      </trkpt>
      <trkpt lat="43.72664" lon="6.73709">
        <ele>1328</ele>
        <time>2010-01-31T09:17:33Z</time>
      </trkpt>
      <trkpt lat="43.72665" lon="6.7371">
        <ele>1327</ele>
        <time>2010-01-31T09:17:35Z</time>
      </trkpt>
      <trkpt lat="43.72665" lon="6.73711">
        <ele>1327</ele>
        <time>2010-01-31T09:17:37Z</time>
      </trkpt>
      <trkpt lat="43.72665" lon="6.73712">
        <ele>1327</ele>
        <time>2010-01-31T09:17:39Z</time>
      </trkpt>
      <trkpt lat="43.72666" lon="6.73715">
        <ele>1328</ele>
        <time>2010-01-31T09:17:41Z</time>
      </trkpt>
      <trkpt lat="43.72666" lon="6.73719">
        <ele>1328</ele>
        <time>2010-01-31T09:17:43Z</time>
      </trkpt>
      <trkpt lat="43.72665" lon="6.73724">
        <ele>1329</ele>
        <time>2010-01-31T09:17:46Z</time>
      </trkpt>
      <trkpt lat="43.72665" lon="6.73731">
        <ele>1329</ele>
        <time>2010-01-31T09:17:48Z</time>
      </trkpt>
      <trkpt lat="43.72665" lon="6.73739">
        <ele>1330</ele>
        <time>2010-01-31T09:17:50Z</time>
      </trkpt>
      <trkpt lat="43.72665" lon="6.73748">
        <ele>1330</ele>
        <time>2010-01-31T09:17:52Z</time>
      </trkpt>
      <trkpt lat="43.72665" lon="6.73764">
        <ele>1329</ele>
        <time>2010-01-31T09:17:56Z</time>
      </trkpt>
      <trkpt lat="43.72665" lon="6.73774">
        <ele>1329</ele>
        <time>2010-01-31T09:17:59Z</time>
      </trkpt>
      <trkpt lat="43.72665" lon="6.73784">
        <ele>1329</ele>
        <time>2010-01-31T09:18:01Z</time>
      </trkpt>
      <trkpt lat="43.72664" lon="6.73793">
        <ele>1330</ele>
        <time>2010-01-31T09:18:03Z</time>
      </trkpt>
      <trkpt lat="43.72663" lon="6.73801">
        <ele>1331</ele>
        <time>2010-01-31T09:18:05Z</time>
      </trkpt>
      <trkpt lat="43.72661" lon="6.73809">
        <ele>1331</ele>
        <time>2010-01-31T09:18:07Z</time>
      </trkpt>
      <trkpt lat="43.72658" lon="6.73815">
        <ele>1331</ele>
        <time>2010-01-31T09:18:09Z</time>
      </trkpt>
      <trkpt lat="43.72654" lon="6.73822">
        <ele>1331</ele>
        <time>2010-01-31T09:18:12Z</time>
      </trkpt>
      <trkpt lat="43.72649" lon="6.73827">
        <ele>1331</ele>
        <time>2010-01-31T09:18:14Z</time>
      </trkpt>
      <trkpt lat="43.72646" lon="6.73832">
        <ele>1331</ele>
        <time>2010-01-31T09:18:16Z</time>
      </trkpt>
      <trkpt lat="43.7264" lon="6.73837">
        <ele>1331</ele>
        <time>2010-01-31T09:18:19Z</time>
      </trkpt>
      <trkpt lat="43.72634" lon="6.73841">
        <ele>1330</ele>
        <time>2010-01-31T09:18:22Z</time>
      </trkpt>
      <trkpt lat="43.72629" lon="6.73844">
        <ele>1330</ele>
        <time>2010-01-31T09:18:24Z</time>
      </trkpt>
      <trkpt lat="43.72624" lon="6.73846">
        <ele>1329</ele>
        <time>2010-01-31T09:18:27Z</time>
      </trkpt>
      <trkpt lat="43.72619" lon="6.73848">
        <ele>1329</ele>
        <time>2010-01-31T09:18:29Z</time>
      </trkpt>
      <trkpt lat="43.72613" lon="6.7385">
        <ele>1330</ele>
        <time>2010-01-31T09:18:31Z</time>
      </trkpt>
      <trkpt lat="43.72604" lon="6.73854">
        <ele>1331</ele>
        <time>2010-01-31T09:18:35Z</time>
      </trkpt>
      <trkpt lat="43.72598" lon="6.73856">
        <ele>1331</ele>
        <time>2010-01-31T09:18:38Z</time>
      </trkpt>
      <trkpt lat="43.72594" lon="6.73856">
        <ele>1331</ele>
        <time>2010-01-31T09:18:40Z</time>
      </trkpt>
      <trkpt lat="43.7259" lon="6.73856">
        <ele>1332</ele>
        <time>2010-01-31T09:18:43Z</time>
      </trkpt>
      <trkpt lat="43.72583" lon="6.73858">
        <ele>1331</ele>
        <time>2010-01-31T09:18:47Z</time>
      </trkpt>
      <trkpt lat="43.72581" lon="6.73857">
        <ele>1331</ele>
        <time>2010-01-31T09:18:49Z</time>
      </trkpt>
      <trkpt lat="43.7258" lon="6.73856">
        <ele>1331</ele>
        <time>2010-01-31T09:18:52Z</time>
      </trkpt>
      <trkpt lat="43.72578" lon="6.73855">
        <ele>1331</ele>
        <time>2010-01-31T09:18:54Z</time>
      </trkpt>
      <trkpt lat="43.72577" lon="6.73855">
        <ele>1331</ele>
        <time>2010-01-31T09:18:56Z</time>
      </trkpt>
      <trkpt lat="43.72575" lon="6.73854">
        <ele>1332</ele>
        <time>2010-01-31T09:19:01Z</time>
      </trkpt>
      <trkpt lat="43.72575" lon="6.73853">
        <ele>1332</ele>
        <time>2010-01-31T09:19:03Z</time>
      </trkpt>
      <trkpt lat="43.72573" lon="6.73852">
        <ele>1332</ele>
        <time>2010-01-31T09:19:05Z</time>
      </trkpt>
      <trkpt lat="43.72572" lon="6.73852">
        <ele>1331</ele>
        <time>2010-01-31T09:19:08Z</time>
      </trkpt>
      <trkpt lat="43.72569" lon="6.73851">
        <ele>1331</ele>
        <time>2010-01-31T09:19:10Z</time>
      </trkpt>
      <trkpt lat="43.72566" lon="6.7385">
        <ele>1331</ele>
        <time>2010-01-31T09:19:12Z</time>
      </trkpt>
      <trkpt lat="43.72564" lon="6.73849">
        <ele>1331</ele>
        <time>2010-01-31T09:19:14Z</time>
      </trkpt>
      <trkpt lat="43.72561" lon="6.73848">
        <ele>1331</ele>
        <time>2010-01-31T09:19:17Z</time>
      </trkpt>
      <trkpt lat="43.72559" lon="6.73846">
        <ele>1330</ele>
        <time>2010-01-31T09:19:19Z</time>
      </trkpt>
      <trkpt lat="43.72556" lon="6.73845">
        <ele>1329</ele>
        <time>2010-01-31T09:19:22Z</time>
      </trkpt>
      <trkpt lat="43.72554" lon="6.73844">
        <ele>1330</ele>
        <time>2010-01-31T09:19:24Z</time>
      </trkpt>
      <trkpt lat="43.72552" lon="6.73843">
        <ele>1330</ele>
        <time>2010-01-31T09:19:26Z</time>
      </trkpt>
      <trkpt lat="43.7255" lon="6.73842">
        <ele>1329</ele>
        <time>2010-01-31T09:19:28Z</time>
      </trkpt>
      <trkpt lat="43.72549" lon="6.73841">
        <ele>1329</ele>
        <time>2010-01-31T09:19:31Z</time>
      </trkpt>
      <trkpt lat="43.72548" lon="6.7384">
        <ele>1329</ele>
        <time>2010-01-31T09:19:33Z</time>
      </trkpt>
      <trkpt lat="43.72548" lon="6.73839">
        <ele>1328</ele>
        <time>2010-01-31T09:19:35Z</time>
      </trkpt>
      <trkpt lat="43.72547" lon="6.73838">
        <ele>1328</ele>
        <time>2010-01-31T09:19:37Z</time>
      </trkpt>
      <trkpt lat="43.72547" lon="6.73837">
        <ele>1328</ele>
        <time>2010-01-31T09:19:39Z</time>
      </trkpt>
      <trkpt lat="43.72544" lon="6.73836">
        <ele>1328</ele>
        <time>2010-01-31T09:19:44Z</time>
      </trkpt>
      <trkpt lat="43.72543" lon="6.73836">
        <ele>1328</ele>
        <time>2010-01-31T09:19:46Z</time>
      </trkpt>
      <trkpt lat="43.72542" lon="6.73835">
        <ele>1328</ele>
        <time>2010-01-31T09:19:48Z</time>
      </trkpt>
      <trkpt lat="43.72541" lon="6.73835">
        <ele>1330</ele>
        <time>2010-01-31T09:19:50Z</time>
      </trkpt>
      <trkpt lat="43.72538" lon="6.73834">
        <ele>1331</ele>
        <time>2010-01-31T09:19:53Z</time>
      </trkpt>
      <trkpt lat="43.72535" lon="6.73832">
        <ele>1332</ele>
        <time>2010-01-31T09:19:55Z</time>
      </trkpt>
      <trkpt lat="43.72532" lon="6.7383">
        <ele>1333</ele>
        <time>2010-01-31T09:19:57Z</time>
      </trkpt>
      <trkpt lat="43.72528" lon="6.73828">
        <ele>1333</ele>
        <time>2010-01-31T09:19:59Z</time>
      </trkpt>
      <trkpt lat="43.72525" lon="6.73825">
        <ele>1333</ele>
        <time>2010-01-31T09:20:01Z</time>
      </trkpt>
      <trkpt lat="43.72521" lon="6.73822">
        <ele>1333</ele>
        <time>2010-01-31T09:20:04Z</time>
      </trkpt>
      <trkpt lat="43.72518" lon="6.73819">
        <ele>1334</ele>
        <time>2010-01-31T09:20:06Z</time>
      </trkpt>
      <trkpt lat="43.72514" lon="6.73816">
        <ele>1335</ele>
        <time>2010-01-31T09:20:08Z</time>
      </trkpt>
      <trkpt lat="43.7251" lon="6.73813">
        <ele>1336</ele>
        <time>2010-01-31T09:20:10Z</time>
      </trkpt>
      <trkpt lat="43.72505" lon="6.73809">
        <ele>1337</ele>
        <time>2010-01-31T09:20:12Z</time>
      </trkpt>
      <trkpt lat="43.72501" lon="6.73806">
        <ele>1337</ele>
        <time>2010-01-31T09:20:15Z</time>
      </trkpt>
      <trkpt lat="43.72497" lon="6.73803">
        <ele>1337</ele>
        <time>2010-01-31T09:20:17Z</time>
      </trkpt>
      <trkpt lat="43.72493" lon="6.73799">
        <ele>1337</ele>
        <time>2010-01-31T09:20:19Z</time>
      </trkpt>
      <trkpt lat="43.72488" lon="6.73795">
        <ele>1338</ele>
        <time>2010-01-31T09:20:21Z</time>
      </trkpt>
      <trkpt lat="43.72484" lon="6.73791">
        <ele>1338</ele>
        <time>2010-01-31T09:20:23Z</time>
      </trkpt>
      <trkpt lat="43.7248" lon="6.73787">
        <ele>1339</ele>
        <time>2010-01-31T09:20:25Z</time>
      </trkpt>
      <trkpt lat="43.72476" lon="6.73782">
        <ele>1338</ele>
        <time>2010-01-31T09:20:28Z</time>
      </trkpt>
      <trkpt lat="43.72472" lon="6.73778">
        <ele>1339</ele>
        <time>2010-01-31T09:20:30Z</time>
      </trkpt>
      <trkpt lat="43.72469" lon="6.73773">
        <ele>1339</ele>
        <time>2010-01-31T09:20:32Z</time>
      </trkpt>
      <trkpt lat="43.72465" lon="6.73769">
        <ele>1339</ele>
        <time>2010-01-31T09:20:34Z</time>
      </trkpt>
      <trkpt lat="43.72462" lon="6.73764">
        <ele>1339</ele>
        <time>2010-01-31T09:20:36Z</time>
      </trkpt>
      <trkpt lat="43.72459" lon="6.73759">
        <ele>1339</ele>
        <time>2010-01-31T09:20:38Z</time>
      </trkpt>
      <trkpt lat="43.72455" lon="6.73755">
        <ele>1339</ele>
        <time>2010-01-31T09:20:40Z</time>
      </trkpt>
      <trkpt lat="43.72452" lon="6.7375">
        <ele>1340</ele>
        <time>2010-01-31T09:20:43Z</time>
      </trkpt>
      <trkpt lat="43.72449" lon="6.73745">
        <ele>1339</ele>
        <time>2010-01-31T09:20:45Z</time>
      </trkpt>
      <trkpt lat="43.72445" lon="6.7374">
        <ele>1340</ele>
        <time>2010-01-31T09:20:47Z</time>
      </trkpt>
      <trkpt lat="43.72442" lon="6.73734">
        <ele>1340</ele>
        <time>2010-01-31T09:20:49Z</time>
      </trkpt>
      <trkpt lat="43.72439" lon="6.73728">
        <ele>1340</ele>
        <time>2010-01-31T09:20:51Z</time>
      </trkpt>
      <trkpt lat="43.72435" lon="6.73721">
        <ele>1341</ele>
        <time>2010-01-31T09:20:53Z</time>
      </trkpt>
      <trkpt lat="43.72432" lon="6.73715">
        <ele>1341</ele>
        <time>2010-01-31T09:20:56Z</time>
      </trkpt>
      <trkpt lat="43.72429" lon="6.7371">
        <ele>1341</ele>
        <time>2010-01-31T09:20:58Z</time>
      </trkpt>
      <trkpt lat="43.72427" lon="6.73706">
        <ele>1342</ele>
        <time>2010-01-31T09:21:00Z</time>
      </trkpt>
      <trkpt lat="43.72426" lon="6.73703">
        <ele>1342</ele>
        <time>2010-01-31T09:21:02Z</time>
      </trkpt>
      <trkpt lat="43.72426" lon="6.73702">
        <ele>1343</ele>
        <time>2010-01-31T09:21:04Z</time>
      </trkpt>
      <trkpt lat="43.72425" lon="6.73702">
        <ele>1341</ele>
        <time>2010-01-31T09:21:09Z</time>
      </trkpt>
      <trkpt lat="43.72427" lon="6.73706">
        <ele>1341</ele>
        <time>2010-01-31T09:21:11Z</time>
      </trkpt>
      <trkpt lat="43.72426" lon="6.73702">
        <ele>1348</ele>
        <time>2010-01-31T09:22:29Z</time>
      </trkpt>
      <trkpt lat="43.72424" lon="6.73695">
        <ele>1348</ele>
        <time>2010-01-31T09:22:32Z</time>
      </trkpt>
      <trkpt lat="43.72422" lon="6.73689">
        <ele>1348</ele>
        <time>2010-01-31T09:22:34Z</time>
      </trkpt>
      <trkpt lat="43.7242" lon="6.73681">
        <ele>1349</ele>
        <time>2010-01-31T09:22:36Z</time>
      </trkpt>
      <trkpt lat="43.72418" lon="6.73675">
        <ele>1349</ele>
        <time>2010-01-31T09:22:38Z</time>
      </trkpt>
      <trkpt lat="43.72415" lon="6.73667">
        <ele>1349</ele>
        <time>2010-01-31T09:22:40Z</time>
      </trkpt>
      <trkpt lat="43.72412" lon="6.7366">
        <ele>1350</ele>
        <time>2010-01-31T09:22:42Z</time>
      </trkpt>
      <trkpt lat="43.72409" lon="6.73652">
        <ele>1350</ele>
        <time>2010-01-31T09:22:45Z</time>
      </trkpt>
      <trkpt lat="43.72406" lon="6.73645">
        <ele>1350</ele>
        <time>2010-01-31T09:22:47Z</time>
      </trkpt>
      <trkpt lat="43.72403" lon="6.73638">
        <ele>1351</ele>
        <time>2010-01-31T09:22:49Z</time>
      </trkpt>
      <trkpt lat="43.724" lon="6.73631">
        <ele>1352</ele>
        <time>2010-01-31T09:22:51Z</time>
      </trkpt>
      <trkpt lat="43.72397" lon="6.73624">
        <ele>1353</ele>
        <time>2010-01-31T09:22:53Z</time>
      </trkpt>
      <trkpt lat="43.72393" lon="6.73617">
        <ele>1353</ele>
        <time>2010-01-31T09:22:56Z</time>
      </trkpt>
      <trkpt lat="43.72389" lon="6.7361">
        <ele>1352</ele>
        <time>2010-01-31T09:22:58Z</time>
      </trkpt>
      <trkpt lat="43.72384" lon="6.73604">
        <ele>1352</ele>
        <time>2010-01-31T09:23:00Z</time>
      </trkpt>
      <trkpt lat="43.72379" lon="6.73596">
        <ele>1353</ele>
        <time>2010-01-31T09:23:02Z</time>
      </trkpt>
      <trkpt lat="43.72373" lon="6.73589">
        <ele>1353</ele>
        <time>2010-01-31T09:23:04Z</time>
      </trkpt>
      <trkpt lat="43.72368" lon="6.73583">
        <ele>1353</ele>
        <time>2010-01-31T09:23:07Z</time>
      </trkpt>
      <trkpt lat="43.72362" lon="6.73577">
        <ele>1354</ele>
        <time>2010-01-31T09:23:09Z</time>
      </trkpt>
      <trkpt lat="43.72357" lon="6.73572">
        <ele>1355</ele>
        <time>2010-01-31T09:23:11Z</time>
      </trkpt>
      <trkpt lat="43.72351" lon="6.73567">
        <ele>1356</ele>
        <time>2010-01-31T09:23:13Z</time>
      </trkpt>
      <trkpt lat="43.72346" lon="6.73562">
        <ele>1356</ele>
        <time>2010-01-31T09:23:16Z</time>
      </trkpt>
      <trkpt lat="43.72341" lon="6.73557">
        <ele>1356</ele>
        <time>2010-01-31T09:23:18Z</time>
      </trkpt>
      <trkpt lat="43.72335" lon="6.73553">
        <ele>1356</ele>
        <time>2010-01-31T09:23:20Z</time>
      </trkpt>
      <trkpt lat="43.7233" lon="6.73549">
        <ele>1356</ele>
        <time>2010-01-31T09:23:22Z</time>
      </trkpt>
      <trkpt lat="43.72324" lon="6.73546">
        <ele>1357</ele>
        <time>2010-01-31T09:23:24Z</time>
      </trkpt>
      <trkpt lat="43.72317" lon="6.73543">
        <ele>1357</ele>
        <time>2010-01-31T09:23:27Z</time>
      </trkpt>
      <trkpt lat="43.72309" lon="6.73538">
        <ele>1358</ele>
        <time>2010-01-31T09:23:29Z</time>
      </trkpt>
      <trkpt lat="43.723" lon="6.73533">
        <ele>1358</ele>
        <time>2010-01-31T09:23:31Z</time>
      </trkpt>
      <trkpt lat="43.72291" lon="6.73529">
        <ele>1359</ele>
        <time>2010-01-31T09:23:33Z</time>
      </trkpt>
      <trkpt lat="43.72281" lon="6.73527">
        <ele>1359</ele>
        <time>2010-01-31T09:23:35Z</time>
      </trkpt>
      <trkpt lat="43.72272" lon="6.73525">
        <ele>1359</ele>
        <time>2010-01-31T09:23:38Z</time>
      </trkpt>
      <trkpt lat="43.72264" lon="6.73523">
        <ele>1359</ele>
        <time>2010-01-31T09:23:40Z</time>
      </trkpt>
      <trkpt lat="43.72256" lon="6.73523">
        <ele>1359</ele>
        <time>2010-01-31T09:23:42Z</time>
      </trkpt>
      <trkpt lat="43.72248" lon="6.73521">
        <ele>1360</ele>
        <time>2010-01-31T09:23:44Z</time>
      </trkpt>
      <trkpt lat="43.7224" lon="6.73519">
        <ele>1360</ele>
        <time>2010-01-31T09:23:46Z</time>
      </trkpt>
      <trkpt lat="43.72233" lon="6.73517">
        <ele>1360</ele>
        <time>2010-01-31T09:23:49Z</time>
      </trkpt>
      <trkpt lat="43.72226" lon="6.73514">
        <ele>1361</ele>
        <time>2010-01-31T09:23:51Z</time>
      </trkpt>
      <trkpt lat="43.72219" lon="6.7351">
        <ele>1362</ele>
        <time>2010-01-31T09:23:53Z</time>
      </trkpt>
      <trkpt lat="43.72211" lon="6.73507">
        <ele>1362</ele>
        <time>2010-01-31T09:23:55Z</time>
      </trkpt>
      <trkpt lat="43.72204" lon="6.73502">
        <ele>1362</ele>
        <time>2010-01-31T09:23:57Z</time>
      </trkpt>
      <trkpt lat="43.72196" lon="6.73497">
        <ele>1363</ele>
        <time>2010-01-31T09:24:00Z</time>
      </trkpt>
      <trkpt lat="43.72189" lon="6.73492">
        <ele>1363</ele>
        <time>2010-01-31T09:24:02Z</time>
      </trkpt>
      <trkpt lat="43.72181" lon="6.73487">
        <ele>1363</ele>
        <time>2010-01-31T09:24:04Z</time>
      </trkpt>
      <trkpt lat="43.72174" lon="6.73483">
        <ele>1362</ele>
        <time>2010-01-31T09:24:06Z</time>
      </trkpt>
      <trkpt lat="43.72166" lon="6.73478">
        <ele>1362</ele>
        <time>2010-01-31T09:24:08Z</time>
      </trkpt>
      <trkpt lat="43.72158" lon="6.73473">
        <ele>1360</ele>
        <time>2010-01-31T09:24:10Z</time>
      </trkpt>
      <trkpt lat="43.72151" lon="6.73468">
        <ele>1359</ele>
        <time>2010-01-31T09:24:13Z</time>
      </trkpt>
      <trkpt lat="43.72143" lon="6.73462">
        <ele>1357</ele>
        <time>2010-01-31T09:24:15Z</time>
      </trkpt>
      <trkpt lat="43.72135" lon="6.73455">
        <ele>1356</ele>
        <time>2010-01-31T09:24:17Z</time>
      </trkpt>
      <trkpt lat="43.72127" lon="6.73449">
        <ele>1356</ele>
        <time>2010-01-31T09:24:19Z</time>
      </trkpt>
      <trkpt lat="43.72118" lon="6.73442">
        <ele>1355</ele>
        <time>2010-01-31T09:24:21Z</time>
      </trkpt>
      <trkpt lat="43.7211" lon="6.73435">
        <ele>1354</ele>
        <time>2010-01-31T09:24:24Z</time>
      </trkpt>
      <trkpt lat="43.72102" lon="6.73428">
        <ele>1354</ele>
        <time>2010-01-31T09:24:26Z</time>
      </trkpt>
      <trkpt lat="43.72095" lon="6.73423">
        <ele>1354</ele>
        <time>2010-01-31T09:24:28Z</time>
      </trkpt>
      <trkpt lat="43.72086" lon="6.73418">
        <ele>1353</ele>
        <time>2010-01-31T09:24:30Z</time>
      </trkpt>
      <trkpt lat="43.72078" lon="6.73414">
        <ele>1353</ele>
        <time>2010-01-31T09:24:33Z</time>
      </trkpt>
      <trkpt lat="43.7207" lon="6.73412">
        <ele>1353</ele>
        <time>2010-01-31T09:24:35Z</time>
      </trkpt>
      <trkpt lat="43.72061" lon="6.7341">
        <ele>1353</ele>
        <time>2010-01-31T09:24:37Z</time>
      </trkpt>
      <trkpt lat="43.72054" lon="6.73409">
        <ele>1353</ele>
        <time>2010-01-31T09:24:39Z</time>
      </trkpt>
      <trkpt lat="43.72046" lon="6.73409">
        <ele>1353</ele>
        <time>2010-01-31T09:24:41Z</time>
      </trkpt>
      <trkpt lat="43.72039" lon="6.73408">
        <ele>1353</ele>
        <time>2010-01-31T09:24:43Z</time>
      </trkpt>
      <trkpt lat="43.72032" lon="6.73408">
        <ele>1354</ele>
        <time>2010-01-31T09:24:46Z</time>
      </trkpt>
      <trkpt lat="43.72027" lon="6.73408">
        <ele>1354</ele>
        <time>2010-01-31T09:24:48Z</time>
      </trkpt>
      <trkpt lat="43.72021" lon="6.73408">
        <ele>1354</ele>
        <time>2010-01-31T09:24:50Z</time>
      </trkpt>
      <trkpt lat="43.72017" lon="6.73408">
        <ele>1354</ele>
        <time>2010-01-31T09:24:52Z</time>
      </trkpt>
      <trkpt lat="43.72012" lon="6.73408">
        <ele>1354</ele>
        <time>2010-01-31T09:24:55Z</time>
      </trkpt>
      <trkpt lat="43.72008" lon="6.73407">
        <ele>1352</ele>
        <time>2010-01-31T09:24:57Z</time>
      </trkpt>
      <trkpt lat="43.72005" lon="6.73407">
        <ele>1351</ele>
        <time>2010-01-31T09:24:59Z</time>
      </trkpt>
      <trkpt lat="43.72005" lon="6.73407">
        <ele>1351</ele>
        <time>2010-01-31T09:25:00Z</time>
      </trkpt>
      <trkpt lat="43.71998" lon="6.73407">
        <ele>1350</ele>
        <time>2010-01-31T09:25:42Z</time>
      </trkpt>
      <trkpt lat="43.71989" lon="6.73411">
        <ele>1351</ele>
        <time>2010-01-31T09:25:45Z</time>
      </trkpt>
      <trkpt lat="43.71981" lon="6.73416">
        <ele>1352</ele>
        <time>2010-01-31T09:25:47Z</time>
      </trkpt>
      <trkpt lat="43.71973" lon="6.73421">
        <ele>1352</ele>
        <time>2010-01-31T09:25:49Z</time>
      </trkpt>
      <trkpt lat="43.71964" lon="6.73424">
        <ele>1353</ele>
        <time>2010-01-31T09:25:52Z</time>
      </trkpt>
      <trkpt lat="43.71954" lon="6.73426">
        <ele>1353</ele>
        <time>2010-01-31T09:25:54Z</time>
      </trkpt>
      <trkpt lat="43.71944" lon="6.73426">
        <ele>1353</ele>
        <time>2010-01-31T09:25:56Z</time>
      </trkpt>
      <trkpt lat="43.71934" lon="6.73424">
        <ele>1353</ele>
        <time>2010-01-31T09:25:58Z</time>
      </trkpt>
      <trkpt lat="43.71923" lon="6.73417">
        <ele>1352</ele>
        <time>2010-01-31T09:26:01Z</time>
      </trkpt>
      <trkpt lat="43.71912" lon="6.73408">
        <ele>1351</ele>
        <time>2010-01-31T09:26:03Z</time>
      </trkpt>
      <trkpt lat="43.71903" lon="6.73396">
        <ele>1350</ele>
        <time>2010-01-31T09:26:05Z</time>
      </trkpt>
      <trkpt lat="43.71896" lon="6.73383">
        <ele>1350</ele>
        <time>2010-01-31T09:26:07Z</time>
      </trkpt>
      <trkpt lat="43.7189" lon="6.7337">
        <ele>1350</ele>
        <time>2010-01-31T09:26:10Z</time>
      </trkpt>
      <trkpt lat="43.71885" lon="6.73357">
        <ele>1349</ele>
        <time>2010-01-31T09:26:12Z</time>
      </trkpt>
      <trkpt lat="43.7188" lon="6.73345">
        <ele>1348</ele>
        <time>2010-01-31T09:26:14Z</time>
      </trkpt>
      <trkpt lat="43.71876" lon="6.73333">
        <ele>1348</ele>
        <time>2010-01-31T09:26:16Z</time>
      </trkpt>
      <trkpt lat="43.71873" lon="6.73323">
        <ele>1348</ele>
        <time>2010-01-31T09:26:19Z</time>
      </trkpt>
      <trkpt lat="43.71869" lon="6.73313">
        <ele>1348</ele>
        <time>2010-01-31T09:26:21Z</time>
      </trkpt>
      <trkpt lat="43.71866" lon="6.73302">
        <ele>1348</ele>
        <time>2010-01-31T09:26:23Z</time>
      </trkpt>
      <trkpt lat="43.71862" lon="6.73291">
        <ele>1347</ele>
        <time>2010-01-31T09:26:25Z</time>
      </trkpt>
      <trkpt lat="43.71858" lon="6.73279">
        <ele>1348</ele>
        <time>2010-01-31T09:26:27Z</time>
      </trkpt>
      <trkpt lat="43.71855" lon="6.73266">
        <ele>1347</ele>
        <time>2010-01-31T09:26:29Z</time>
      </trkpt>
      <trkpt lat="43.71852" lon="6.73253">
        <ele>1347</ele>
        <time>2010-01-31T09:26:32Z</time>
      </trkpt>
      <trkpt lat="43.71847" lon="6.7324">
        <ele>1347</ele>
        <time>2010-01-31T09:26:34Z</time>
      </trkpt>
      <trkpt lat="43.71841" lon="6.73229">
        <ele>1346</ele>
        <time>2010-01-31T09:26:36Z</time>
      </trkpt>
      <trkpt lat="43.71835" lon="6.7322">
        <ele>1345</ele>
        <time>2010-01-31T09:26:38Z</time>
      </trkpt>
      <trkpt lat="43.71834" lon="6.73215">
        <ele>1345</ele>
        <time>2010-01-31T09:26:40Z</time>
      </trkpt>
      <trkpt lat="43.71833" lon="6.73214">
        <ele>1345</ele>
        <time>2010-01-31T09:26:42Z</time>
      </trkpt>
      <trkpt lat="43.71825" lon="6.73205">
        <ele>1346</ele>
        <time>2010-01-31T09:26:57Z</time>
      </trkpt>
      <trkpt lat="43.71819" lon="6.73199">
        <ele>1346</ele>
        <time>2010-01-31T09:26:59Z</time>
      </trkpt>
      <trkpt lat="43.71812" lon="6.73192">
        <ele>1345</ele>
        <time>2010-01-31T09:27:01Z</time>
      </trkpt>
      <trkpt lat="43.71808" lon="6.73188">
        <ele>1345</ele>
        <time>2010-01-31T09:27:02Z</time>
      </trkpt>
      <trkpt lat="43.71808" lon="6.73188">
        <ele>1345</ele>
        <time>2010-01-31T09:27:08Z</time>
      </trkpt>
      <trkpt lat="43.71807" lon="6.73187">
        <ele>1345</ele>
        <time>2010-01-31T09:27:10Z</time>
      </trkpt>
      <trkpt lat="43.71805" lon="6.73183">
        <ele>1345</ele>
        <time>2010-01-31T09:27:12Z</time>
      </trkpt>
      <trkpt lat="43.71801" lon="6.73179">
        <ele>1345</ele>
        <time>2010-01-31T09:27:14Z</time>
      </trkpt>
      <trkpt lat="43.71798" lon="6.73175">
        <ele>1345</ele>
        <time>2010-01-31T09:27:16Z</time>
      </trkpt>
      <trkpt lat="43.71794" lon="6.7317">
        <ele>1345</ele>
        <time>2010-01-31T09:27:20Z</time>
      </trkpt>
      <trkpt lat="43.71785" lon="6.73175">
        <ele>1336</ele>
        <time>2010-01-31T09:35:17Z</time>
      </trkpt>
      <trkpt lat="43.71782" lon="6.73176">
        <ele>1336</ele>
        <time>2010-01-31T09:35:19Z</time>
      </trkpt>
      <trkpt lat="43.71777" lon="6.73176">
        <ele>1335</ele>
        <time>2010-01-31T09:35:21Z</time>
      </trkpt>
      <trkpt lat="43.71769" lon="6.73177">
        <ele>1334</ele>
        <time>2010-01-31T09:35:26Z</time>
      </trkpt>
      <trkpt lat="43.71766" lon="6.73177">
        <ele>1333</ele>
        <time>2010-01-31T09:35:29Z</time>
      </trkpt>
      <trkpt lat="43.71766" lon="6.73177">
        <ele>1331</ele>
        <time>2010-01-31T09:35:31Z</time>
      </trkpt>
      <trkpt lat="43.71764" lon="6.73178">
        <ele>1329</ele>
        <time>2010-01-31T09:35:35Z</time>
      </trkpt>
      <trkpt lat="43.71766" lon="6.73178">
        <ele>1329</ele>
        <time>2010-01-31T09:35:37Z</time>
      </trkpt>
      <trkpt lat="43.71767" lon="6.73178">
        <ele>1331</ele>
        <time>2010-01-31T09:35:41Z</time>
      </trkpt>
      <trkpt lat="43.71767" lon="6.73167">
        <ele>1321</ele>
        <time>2010-01-31T09:36:49Z</time>
      </trkpt>
      <trkpt lat="43.71767" lon="6.73166">
        <ele>1321</ele>
        <time>2010-01-31T09:36:51Z</time>
      </trkpt>
      <trkpt lat="43.71766" lon="6.73166">
        <ele>1320</ele>
        <time>2010-01-31T09:36:52Z</time>
      </trkpt>
      <trkpt lat="43.71761" lon="6.73158">
        <ele>1320</ele>
        <time>2010-01-31T09:37:00Z</time>
      </trkpt>
      <trkpt lat="43.71759" lon="6.73155">
        <ele>1320</ele>
        <time>2010-01-31T09:37:02Z</time>
      </trkpt>
      <trkpt lat="43.71757" lon="6.73153">
        <ele>1320</ele>
        <time>2010-01-31T09:37:04Z</time>
      </trkpt>
      <trkpt lat="43.71754" lon="6.7315">
        <ele>1320</ele>
        <time>2010-01-31T09:37:07Z</time>
      </trkpt>
      <trkpt lat="43.7175" lon="6.73147">
        <ele>1320</ele>
        <time>2010-01-31T09:37:09Z</time>
      </trkpt>
      <trkpt lat="43.71746" lon="6.73143">
        <ele>1321</ele>
        <time>2010-01-31T09:37:11Z</time>
      </trkpt>
      <trkpt lat="43.71741" lon="6.73138">
        <ele>1321</ele>
        <time>2010-01-31T09:37:13Z</time>
      </trkpt>
      <trkpt lat="43.71738" lon="6.73134">
        <ele>1321</ele>
        <time>2010-01-31T09:37:16Z</time>
      </trkpt>
      <trkpt lat="43.71736" lon="6.7313">
        <ele>1320</ele>
        <time>2010-01-31T09:37:18Z</time>
      </trkpt>
      <trkpt lat="43.71734" lon="6.73127">
        <ele>1320</ele>
        <time>2010-01-31T09:37:20Z</time>
      </trkpt>
      <trkpt lat="43.71732" lon="6.73123">
        <ele>1320</ele>
        <time>2010-01-31T09:37:22Z</time>
      </trkpt>
      <trkpt lat="43.71729" lon="6.7312">
        <ele>1320</ele>
        <time>2010-01-31T09:37:25Z</time>
      </trkpt>
      <trkpt lat="43.71727" lon="6.73116">
        <ele>1320</ele>
        <time>2010-01-31T09:37:27Z</time>
      </trkpt>
      <trkpt lat="43.71725" lon="6.73113">
        <ele>1320</ele>
        <time>2010-01-31T09:37:29Z</time>
      </trkpt>
      <trkpt lat="43.71723" lon="6.73109">
        <ele>1321</ele>
        <time>2010-01-31T09:37:31Z</time>
      </trkpt>
      <trkpt lat="43.7172" lon="6.73105">
        <ele>1321</ele>
        <time>2010-01-31T09:37:34Z</time>
      </trkpt>
      <trkpt lat="43.71717" lon="6.73102">
        <ele>1321</ele>
        <time>2010-01-31T09:37:36Z</time>
      </trkpt>
      <trkpt lat="43.71714" lon="6.73099">
        <ele>1322</ele>
        <time>2010-01-31T09:37:38Z</time>
      </trkpt>
      <trkpt lat="43.71711" lon="6.73096">
        <ele>1322</ele>
        <time>2010-01-31T09:37:40Z</time>
      </trkpt>
      <trkpt lat="43.71708" lon="6.73094">
        <ele>1322</ele>
        <time>2010-01-31T09:37:43Z</time>
      </trkpt>
      <trkpt lat="43.71705" lon="6.73092">
        <ele>1322</ele>
        <time>2010-01-31T09:37:45Z</time>
      </trkpt>
      <trkpt lat="43.71702" lon="6.73091">
        <ele>1322</ele>
        <time>2010-01-31T09:37:47Z</time>
      </trkpt>
      <trkpt lat="43.717" lon="6.7309">
        <ele>1322</ele>
        <time>2010-01-31T09:37:50Z</time>
      </trkpt>
      <trkpt lat="43.71697" lon="6.73088">
        <ele>1322</ele>
        <time>2010-01-31T09:37:52Z</time>
      </trkpt>
      <trkpt lat="43.71694" lon="6.73087">
        <ele>1322</ele>
        <time>2010-01-31T09:37:54Z</time>
      </trkpt>
      <trkpt lat="43.71692" lon="6.73085">
        <ele>1321</ele>
        <time>2010-01-31T09:37:57Z</time>
      </trkpt>
      <trkpt lat="43.71689" lon="6.73083">
        <ele>1321</ele>
        <time>2010-01-31T09:37:59Z</time>
      </trkpt>
      <trkpt lat="43.71687" lon="6.73082">
        <ele>1320</ele>
        <time>2010-01-31T09:38:01Z</time>
      </trkpt>
      <trkpt lat="43.71686" lon="6.7308">
        <ele>1320</ele>
        <time>2010-01-31T09:38:04Z</time>
      </trkpt>
      <trkpt lat="43.71683" lon="6.73078">
        <ele>1320</ele>
        <time>2010-01-31T09:38:06Z</time>
      </trkpt>
      <trkpt lat="43.71679" lon="6.73076">
        <ele>1320</ele>
        <time>2010-01-31T09:38:08Z</time>
      </trkpt>
      <trkpt lat="43.71675" lon="6.73074">
        <ele>1320</ele>
        <time>2010-01-31T09:38:10Z</time>
      </trkpt>
      <trkpt lat="43.71671" lon="6.73072">
        <ele>1321</ele>
        <time>2010-01-31T09:38:13Z</time>
      </trkpt>
      <trkpt lat="43.71667" lon="6.7307">
        <ele>1321</ele>
        <time>2010-01-31T09:38:15Z</time>
      </trkpt>
      <trkpt lat="43.71664" lon="6.73067">
        <ele>1321</ele>
        <time>2010-01-31T09:38:17Z</time>
      </trkpt>
      <trkpt lat="43.71661" lon="6.73066">
        <ele>1321</ele>
        <time>2010-01-31T09:38:20Z</time>
      </trkpt>
      <trkpt lat="43.71659" lon="6.73065">
        <ele>1322</ele>
        <time>2010-01-31T09:38:22Z</time>
      </trkpt>
      <trkpt lat="43.71657" lon="6.73063">
        <ele>1321</ele>
        <time>2010-01-31T09:38:24Z</time>
      </trkpt>
      <trkpt lat="43.71654" lon="6.73061">
        <ele>1320</ele>
        <time>2010-01-31T09:38:26Z</time>
      </trkpt>
      <trkpt lat="43.71647" lon="6.73057">
        <ele>1320</ele>
        <time>2010-01-31T09:38:29Z</time>
      </trkpt>
      <trkpt lat="43.71641" lon="6.73053">
        <ele>1319</ele>
        <time>2010-01-31T09:38:31Z</time>
      </trkpt>
      <trkpt lat="43.71637" lon="6.7305">
        <ele>1319</ele>
        <time>2010-01-31T09:38:33Z</time>
      </trkpt>
      <trkpt lat="43.71634" lon="6.73047">
        <ele>1318</ele>
        <time>2010-01-31T09:38:35Z</time>
      </trkpt>
      <trkpt lat="43.7163" lon="6.73044">
        <ele>1317</ele>
        <time>2010-01-31T09:38:38Z</time>
      </trkpt>
      <trkpt lat="43.71626" lon="6.73041">
        <ele>1317</ele>
        <time>2010-01-31T09:38:40Z</time>
      </trkpt>
      <trkpt lat="43.71625" lon="6.7304">
        <ele>1317</ele>
        <time>2010-01-31T09:38:41Z</time>
      </trkpt>
      <trkpt lat="43.71618" lon="6.7303">
        <ele>1313</ele>
        <time>2010-01-31T09:38:54Z</time>
      </trkpt>
      <trkpt lat="43.71618" lon="6.73029">
        <ele>1312</ele>
        <time>2010-01-31T09:38:56Z</time>
      </trkpt>
      <trkpt lat="43.71617" lon="6.73029">
        <ele>1312</ele>
        <time>2010-01-31T09:38:57Z</time>
      </trkpt>
      <trkpt lat="43.71608" lon="6.73022">
        <ele>1309</ele>
        <time>2010-01-31T09:39:11Z</time>
      </trkpt>
      <trkpt lat="43.71606" lon="6.7302">
        <ele>1309</ele>
        <time>2010-01-31T09:39:14Z</time>
      </trkpt>
      <trkpt lat="43.71603" lon="6.73017">
        <ele>1309</ele>
        <time>2010-01-31T09:39:16Z</time>
      </trkpt>
      <trkpt lat="43.71598" lon="6.73014">
        <ele>1309</ele>
        <time>2010-01-31T09:39:18Z</time>
      </trkpt>
      <trkpt lat="43.71595" lon="6.73012">
        <ele>1309</ele>
        <time>2010-01-31T09:39:21Z</time>
      </trkpt>
      <trkpt lat="43.71593" lon="6.7301">
        <ele>1308</ele>
        <time>2010-01-31T09:39:23Z</time>
      </trkpt>
      <trkpt lat="43.71591" lon="6.73009">
        <ele>1307</ele>
        <time>2010-01-31T09:39:25Z</time>
      </trkpt>
      <trkpt lat="43.7159" lon="6.73007">
        <ele>1307</ele>
        <time>2010-01-31T09:39:28Z</time>
      </trkpt>
      <trkpt lat="43.71588" lon="6.73005">
        <ele>1307</ele>
        <time>2010-01-31T09:39:30Z</time>
      </trkpt>
      <trkpt lat="43.71586" lon="6.73004">
        <ele>1307</ele>
        <time>2010-01-31T09:39:32Z</time>
      </trkpt>
      <trkpt lat="43.71583" lon="6.73003">
        <ele>1307</ele>
        <time>2010-01-31T09:39:35Z</time>
      </trkpt>
      <trkpt lat="43.71579" lon="6.73001">
        <ele>1306</ele>
        <time>2010-01-31T09:39:37Z</time>
      </trkpt>
      <trkpt lat="43.71575" lon="6.72999">
        <ele>1307</ele>
        <time>2010-01-31T09:39:39Z</time>
      </trkpt>
      <trkpt lat="43.71571" lon="6.72997">
        <ele>1306</ele>
        <time>2010-01-31T09:39:41Z</time>
      </trkpt>
      <trkpt lat="43.71567" lon="6.72995">
        <ele>1306</ele>
        <time>2010-01-31T09:39:44Z</time>
      </trkpt>
      <trkpt lat="43.71563" lon="6.72991">
        <ele>1306</ele>
        <time>2010-01-31T09:39:46Z</time>
      </trkpt>
      <trkpt lat="43.71559" lon="6.72987">
        <ele>1306</ele>
        <time>2010-01-31T09:39:48Z</time>
      </trkpt>
      <trkpt lat="43.71556" lon="6.72982">
        <ele>1305</ele>
        <time>2010-01-31T09:39:51Z</time>
      </trkpt>
      <trkpt lat="43.71553" lon="6.72976">
        <ele>1305</ele>
        <time>2010-01-31T09:39:53Z</time>
      </trkpt>
      <trkpt lat="43.71551" lon="6.72969">
        <ele>1304</ele>
        <time>2010-01-31T09:39:55Z</time>
      </trkpt>
      <trkpt lat="43.71549" lon="6.72961">
        <ele>1304</ele>
        <time>2010-01-31T09:39:57Z</time>
      </trkpt>
      <trkpt lat="43.71547" lon="6.72953">
        <ele>1303</ele>
        <time>2010-01-31T09:40:00Z</time>
      </trkpt>
      <trkpt lat="43.71545" lon="6.72945">
        <ele>1303</ele>
        <time>2010-01-31T09:40:02Z</time>
      </trkpt>
      <trkpt lat="43.71543" lon="6.72934">
        <ele>1303</ele>
        <time>2010-01-31T09:40:04Z</time>
      </trkpt>
      <trkpt lat="43.7154" lon="6.72923">
        <ele>1302</ele>
        <time>2010-01-31T09:40:07Z</time>
      </trkpt>
      <trkpt lat="43.71535" lon="6.72913">
        <ele>1302</ele>
        <time>2010-01-31T09:40:09Z</time>
      </trkpt>
      <trkpt lat="43.71529" lon="6.72902">
        <ele>1301</ele>
        <time>2010-01-31T09:40:11Z</time>
      </trkpt>
      <trkpt lat="43.71525" lon="6.72895">
        <ele>1301</ele>
        <time>2010-01-31T09:40:14Z</time>
      </trkpt>
      <trkpt lat="43.7152" lon="6.72887">
        <ele>1300</ele>
        <time>2010-01-31T09:40:16Z</time>
      </trkpt>
      <trkpt lat="43.71513" lon="6.7288">
        <ele>1299</ele>
        <time>2010-01-31T09:40:18Z</time>
      </trkpt>
      <trkpt lat="43.71506" lon="6.72874">
        <ele>1299</ele>
        <time>2010-01-31T09:40:21Z</time>
      </trkpt>
      <trkpt lat="43.715" lon="6.72868">
        <ele>1298</ele>
        <time>2010-01-31T09:40:23Z</time>
      </trkpt>
      <trkpt lat="43.71495" lon="6.7286">
        <ele>1298</ele>
        <time>2010-01-31T09:40:25Z</time>
      </trkpt>
      <trkpt lat="43.71491" lon="6.72855">
        <ele>1297</ele>
        <time>2010-01-31T09:40:28Z</time>
      </trkpt>
      <trkpt lat="43.71488" lon="6.72852">
        <ele>1296</ele>
        <time>2010-01-31T09:40:30Z</time>
      </trkpt>
      <trkpt lat="43.71487" lon="6.72851">
        <ele>1296</ele>
        <time>2010-01-31T09:40:32Z</time>
      </trkpt>
      <trkpt lat="43.7148" lon="6.72845">
        <ele>1292</ele>
        <time>2010-01-31T09:40:37Z</time>
      </trkpt>
      <trkpt lat="43.71475" lon="6.72844">
        <ele>1291</ele>
        <time>2010-01-31T09:40:40Z</time>
      </trkpt>
      <trkpt lat="43.71469" lon="6.72842">
        <ele>1290</ele>
        <time>2010-01-31T09:40:42Z</time>
      </trkpt>
      <trkpt lat="43.71462" lon="6.72838">
        <ele>1290</ele>
        <time>2010-01-31T09:40:44Z</time>
      </trkpt>
      <trkpt lat="43.71456" lon="6.72834">
        <ele>1289</ele>
        <time>2010-01-31T09:40:46Z</time>
      </trkpt>
      <trkpt lat="43.7145" lon="6.72828">
        <ele>1289</ele>
        <time>2010-01-31T09:40:49Z</time>
      </trkpt>
      <trkpt lat="43.71444" lon="6.72822">
        <ele>1288</ele>
        <time>2010-01-31T09:40:51Z</time>
      </trkpt>
      <trkpt lat="43.71439" lon="6.72817">
        <ele>1287</ele>
        <time>2010-01-31T09:40:53Z</time>
      </trkpt>
      <trkpt lat="43.71435" lon="6.72811">
        <ele>1287</ele>
        <time>2010-01-31T09:40:55Z</time>
      </trkpt>
      <trkpt lat="43.7143" lon="6.72804">
        <ele>1286</ele>
        <time>2010-01-31T09:40:57Z</time>
      </trkpt>
      <trkpt lat="43.71427" lon="6.72796">
        <ele>1285</ele>
        <time>2010-01-31T09:40:59Z</time>
      </trkpt>
      <trkpt lat="43.71423" lon="6.72787">
        <ele>1284</ele>
        <time>2010-01-31T09:41:02Z</time>
      </trkpt>
      <trkpt lat="43.71419" lon="6.72777">
        <ele>1282</ele>
        <time>2010-01-31T09:41:04Z</time>
      </trkpt>
      <trkpt lat="43.71415" lon="6.72766">
        <ele>1281</ele>
        <time>2010-01-31T09:41:06Z</time>
      </trkpt>
      <trkpt lat="43.71412" lon="6.72755">
        <ele>1279</ele>
        <time>2010-01-31T09:41:08Z</time>
      </trkpt>
      <trkpt lat="43.71409" lon="6.72745">
        <ele>1277</ele>
        <time>2010-01-31T09:41:10Z</time>
      </trkpt>
      <trkpt lat="43.71405" lon="6.72735">
        <ele>1276</ele>
        <time>2010-01-31T09:41:12Z</time>
      </trkpt>
      <trkpt lat="43.71401" lon="6.72725">
        <ele>1275</ele>
        <time>2010-01-31T09:41:14Z</time>
      </trkpt>
      <trkpt lat="43.71396" lon="6.72714">
        <ele>1272</ele>
        <time>2010-01-31T09:41:17Z</time>
      </trkpt>
      <trkpt lat="43.71391" lon="6.72703">
        <ele>1271</ele>
        <time>2010-01-31T09:41:19Z</time>
      </trkpt>
      <trkpt lat="43.71385" lon="6.72691">
        <ele>1269</ele>
        <time>2010-01-31T09:41:21Z</time>
      </trkpt>
      <trkpt lat="43.7138" lon="6.7268">
        <ele>1268</ele>
        <time>2010-01-31T09:41:23Z</time>
      </trkpt>
      <trkpt lat="43.71375" lon="6.72669">
        <ele>1267</ele>
        <time>2010-01-31T09:41:25Z</time>
      </trkpt>
      <trkpt lat="43.71371" lon="6.72658">
        <ele>1265</ele>
        <time>2010-01-31T09:41:28Z</time>
      </trkpt>
      <trkpt lat="43.71367" lon="6.72645">
        <ele>1262</ele>
        <time>2010-01-31T09:41:30Z</time>
      </trkpt>
      <trkpt lat="43.71364" lon="6.72632">
        <ele>1259</ele>
        <time>2010-01-31T09:41:32Z</time>
      </trkpt>
      <trkpt lat="43.71361" lon="6.72619">
        <ele>1257</ele>
        <time>2010-01-31T09:41:34Z</time>
      </trkpt>
      <trkpt lat="43.71357" lon="6.72606">
        <ele>1255</ele>
        <time>2010-01-31T09:41:36Z</time>
      </trkpt>
      <trkpt lat="43.71354" lon="6.72594">
        <ele>1253</ele>
        <time>2010-01-31T09:41:39Z</time>
      </trkpt>
      <trkpt lat="43.71351" lon="6.72586">
        <ele>1252</ele>
        <time>2010-01-31T09:41:41Z</time>
      </trkpt>
      <trkpt lat="43.7135" lon="6.72582">
        <ele>1251</ele>
        <time>2010-01-31T09:41:42Z</time>
      </trkpt>
      <trkpt lat="43.71348" lon="6.72576">
        <ele>1248</ele>
        <time>2010-01-31T09:41:47Z</time>
      </trkpt>
      <trkpt lat="43.71346" lon="6.72571">
        <ele>1246</ele>
        <time>2010-01-31T09:41:49Z</time>
      </trkpt>
      <trkpt lat="43.71344" lon="6.72566">
        <ele>1245</ele>
        <time>2010-01-31T09:41:51Z</time>
      </trkpt>
      <trkpt lat="43.71342" lon="6.7256">
        <ele>1244</ele>
        <time>2010-01-31T09:41:53Z</time>
      </trkpt>
      <trkpt lat="43.7134" lon="6.72556">
        <ele>1242</ele>
        <time>2010-01-31T09:41:55Z</time>
      </trkpt>
      <trkpt lat="43.71338" lon="6.72552">
        <ele>1240</ele>
        <time>2010-01-31T09:41:58Z</time>
      </trkpt>
      <trkpt lat="43.71336" lon="6.72548">
        <ele>1239</ele>
        <time>2010-01-31T09:42:00Z</time>
      </trkpt>
      <trkpt lat="43.71333" lon="6.72544">
        <ele>1238</ele>
        <time>2010-01-31T09:42:02Z</time>
      </trkpt>
      <trkpt lat="43.71328" lon="6.72541">
        <ele>1237</ele>
        <time>2010-01-31T09:42:04Z</time>
      </trkpt>
      <trkpt lat="43.71323" lon="6.72537">
        <ele>1236</ele>
        <time>2010-01-31T09:42:06Z</time>
      </trkpt>
      <trkpt lat="43.71317" lon="6.72534">
        <ele>1236</ele>
        <time>2010-01-31T09:42:09Z</time>
      </trkpt>
      <trkpt lat="43.71311" lon="6.7253">
        <ele>1235</ele>
        <time>2010-01-31T09:42:11Z</time>
      </trkpt>
      <trkpt lat="43.71303" lon="6.72527">
        <ele>1235</ele>
        <time>2010-01-31T09:42:13Z</time>
      </trkpt>
      <trkpt lat="43.71292" lon="6.72522">
        <ele>1234</ele>
        <time>2010-01-31T09:42:15Z</time>
      </trkpt>
      <trkpt lat="43.71282" lon="6.72517">
        <ele>1234</ele>
        <time>2010-01-31T09:42:17Z</time>
      </trkpt>
      <trkpt lat="43.71272" lon="6.72511">
        <ele>1233</ele>
        <time>2010-01-31T09:42:20Z</time>
      </trkpt>
      <trkpt lat="43.71263" lon="6.72506">
        <ele>1233</ele>
        <time>2010-01-31T09:42:22Z</time>
      </trkpt>
      <trkpt lat="43.71254" lon="6.72503">
        <ele>1232</ele>
        <time>2010-01-31T09:42:24Z</time>
      </trkpt>
      <trkpt lat="43.71245" lon="6.725">
        <ele>1231</ele>
        <time>2010-01-31T09:42:26Z</time>
      </trkpt>
      <trkpt lat="43.71237" lon="6.72497">
        <ele>1230</ele>
        <time>2010-01-31T09:42:29Z</time>
      </trkpt>
      <trkpt lat="43.71229" lon="6.72495">
        <ele>1228</ele>
        <time>2010-01-31T09:42:31Z</time>
      </trkpt>
      <trkpt lat="43.71221" lon="6.72494">
        <ele>1226</ele>
        <time>2010-01-31T09:42:33Z</time>
      </trkpt>
      <trkpt lat="43.71212" lon="6.72494">
        <ele>1225</ele>
        <time>2010-01-31T09:42:35Z</time>
      </trkpt>
      <trkpt lat="43.71204" lon="6.72494">
        <ele>1222</ele>
        <time>2010-01-31T09:42:38Z</time>
      </trkpt>
      <trkpt lat="43.71196" lon="6.72494">
        <ele>1220</ele>
        <time>2010-01-31T09:42:40Z</time>
      </trkpt>
      <trkpt lat="43.71188" lon="6.72494">
        <ele>1218</ele>
        <time>2010-01-31T09:42:42Z</time>
      </trkpt>
      <trkpt lat="43.71184" lon="6.72494">
        <ele>1216</ele>
        <time>2010-01-31T09:42:44Z</time>
      </trkpt>
      <trkpt lat="43.71175" lon="6.7249">
        <ele>1188</ele>
        <time>2010-01-31T09:45:06Z</time>
      </trkpt>
      <trkpt lat="43.71171" lon="6.7249">
        <ele>1188</ele>
        <time>2010-01-31T09:45:08Z</time>
      </trkpt>
      <trkpt lat="43.71165" lon="6.7249">
        <ele>1187</ele>
        <time>2010-01-31T09:45:11Z</time>
      </trkpt>
      <trkpt lat="43.71153" lon="6.7249">
        <ele>1187</ele>
        <time>2010-01-31T09:45:13Z</time>
      </trkpt>
      <trkpt lat="43.71142" lon="6.72491">
        <ele>1187</ele>
        <time>2010-01-31T09:45:15Z</time>
      </trkpt>
      <trkpt lat="43.7113" lon="6.72493">
        <ele>1187</ele>
        <time>2010-01-31T09:45:17Z</time>
      </trkpt>
      <trkpt lat="43.71118" lon="6.72495">
        <ele>1187</ele>
        <time>2010-01-31T09:45:20Z</time>
      </trkpt>
      <trkpt lat="43.71107" lon="6.72499">
        <ele>1187</ele>
        <time>2010-01-31T09:45:22Z</time>
      </trkpt>
      <trkpt lat="43.71095" lon="6.72501">
        <ele>1187</ele>
        <time>2010-01-31T09:45:25Z</time>
      </trkpt>
      <trkpt lat="43.71082" lon="6.72506">
        <ele>1187</ele>
        <time>2010-01-31T09:45:27Z</time>
      </trkpt>
      <trkpt lat="43.71067" lon="6.72512">
        <ele>1187</ele>
        <time>2010-01-31T09:45:29Z</time>
      </trkpt>
      <trkpt lat="43.71051" lon="6.72518">
        <ele>1187</ele>
        <time>2010-01-31T09:45:32Z</time>
      </trkpt>
      <trkpt lat="43.71035" lon="6.72523">
        <ele>1186</ele>
        <time>2010-01-31T09:45:34Z</time>
      </trkpt>
      <trkpt lat="43.71019" lon="6.72529">
        <ele>1186</ele>
        <time>2010-01-31T09:45:36Z</time>
      </trkpt>
      <trkpt lat="43.71005" lon="6.72538">
        <ele>1186</ele>
        <time>2010-01-31T09:45:39Z</time>
      </trkpt>
      <trkpt lat="43.70992" lon="6.72546">
        <ele>1185</ele>
        <time>2010-01-31T09:45:41Z</time>
      </trkpt>
      <trkpt lat="43.7098" lon="6.72554">
        <ele>1184</ele>
        <time>2010-01-31T09:45:43Z</time>
      </trkpt>
      <trkpt lat="43.70967" lon="6.72562">
        <ele>1184</ele>
        <time>2010-01-31T09:45:45Z</time>
      </trkpt>
      <trkpt lat="43.70955" lon="6.72572">
        <ele>1183</ele>
        <time>2010-01-31T09:45:48Z</time>
      </trkpt>
      <trkpt lat="43.70941" lon="6.72585">
        <ele>1183</ele>
        <time>2010-01-31T09:45:50Z</time>
      </trkpt>
      <trkpt lat="43.70926" lon="6.72599">
        <ele>1182</ele>
        <time>2010-01-31T09:45:52Z</time>
      </trkpt>
      <trkpt lat="43.70912" lon="6.72609">
        <ele>1182</ele>
        <time>2010-01-31T09:45:55Z</time>
      </trkpt>
      <trkpt lat="43.70897" lon="6.72615">
        <ele>1181</ele>
        <time>2010-01-31T09:45:57Z</time>
      </trkpt>
      <trkpt lat="43.70882" lon="6.7262">
        <ele>1180</ele>
        <time>2010-01-31T09:45:59Z</time>
      </trkpt>
      <trkpt lat="43.70868" lon="6.72625">
        <ele>1178</ele>
        <time>2010-01-31T09:46:02Z</time>
      </trkpt>
      <trkpt lat="43.7086" lon="6.72627">
        <ele>1177</ele>
        <time>2010-01-31T09:46:04Z</time>
      </trkpt>
      <trkpt lat="43.7085" lon="6.72628">
        <ele>1175</ele>
        <time>2010-01-31T09:46:06Z</time>
      </trkpt>
      <trkpt lat="43.70841" lon="6.72627">
        <ele>1173</ele>
        <time>2010-01-31T09:46:08Z</time>
      </trkpt>
      <trkpt lat="43.70832" lon="6.72628">
        <ele>1171</ele>
        <time>2010-01-31T09:46:11Z</time>
      </trkpt>
      <trkpt lat="43.70822" lon="6.72627">
        <ele>1170</ele>
        <time>2010-01-31T09:46:13Z</time>
      </trkpt>
      <trkpt lat="43.70813" lon="6.72626">
        <ele>1167</ele>
        <time>2010-01-31T09:46:15Z</time>
      </trkpt>
      <trkpt lat="43.70802" lon="6.72626">
        <ele>1164</ele>
        <time>2010-01-31T09:46:18Z</time>
      </trkpt>
      <trkpt lat="43.70791" lon="6.72625">
        <ele>1161</ele>
        <time>2010-01-31T09:46:20Z</time>
      </trkpt>
      <trkpt lat="43.70782" lon="6.72621">
        <ele>1157</ele>
        <time>2010-01-31T09:46:22Z</time>
      </trkpt>
      <trkpt lat="43.70774" lon="6.72618">
        <ele>1154</ele>
        <time>2010-01-31T09:46:25Z</time>
      </trkpt>
      <trkpt lat="43.70765" lon="6.72613">
        <ele>1151</ele>
        <time>2010-01-31T09:46:27Z</time>
      </trkpt>
      <trkpt lat="43.70755" lon="6.72609">
        <ele>1148</ele>
        <time>2010-01-31T09:46:29Z</time>
      </trkpt>
      <trkpt lat="43.70745" lon="6.72607">
        <ele>1144</ele>
        <time>2010-01-31T09:46:32Z</time>
      </trkpt>
      <trkpt lat="43.70735" lon="6.7261">
        <ele>1141</ele>
        <time>2010-01-31T09:46:34Z</time>
      </trkpt>
      <trkpt lat="43.70726" lon="6.72614">
        <ele>1138</ele>
        <time>2010-01-31T09:46:36Z</time>
      </trkpt>
      <trkpt lat="43.70717" lon="6.72616">
        <ele>1135</ele>
        <time>2010-01-31T09:46:39Z</time>
      </trkpt>
      <trkpt lat="43.7071" lon="6.72616">
        <ele>1132</ele>
        <time>2010-01-31T09:46:41Z</time>
      </trkpt>
      <trkpt lat="43.70707" lon="6.72616">
        <ele>1129</ele>
        <time>2010-01-31T09:46:42Z</time>
      </trkpt>
      <trkpt lat="43.70706" lon="6.72616">
        <ele>1103</ele>
        <time>2010-01-31T09:47:55Z</time>
      </trkpt>
      <trkpt lat="43.70704" lon="6.72617">
        <ele>1103</ele>
        <time>2010-01-31T09:48:00Z</time>
      </trkpt>
      <trkpt lat="43.70688" lon="6.72614">
        <ele>1103</ele>
        <time>2010-01-31T09:56:59Z</time>
      </trkpt>
      <trkpt lat="43.7068" lon="6.72614">
        <ele>1103</ele>
        <time>2010-01-31T09:57:01Z</time>
      </trkpt>
      <trkpt lat="43.70672" lon="6.72613">
        <ele>1103</ele>
        <time>2010-01-31T09:57:03Z</time>
      </trkpt>
      <trkpt lat="43.70663" lon="6.72614">
        <ele>1102</ele>
        <time>2010-01-31T09:57:06Z</time>
      </trkpt>
      <trkpt lat="43.70656" lon="6.72614">
        <ele>1102</ele>
        <time>2010-01-31T09:57:08Z</time>
      </trkpt>
      <trkpt lat="43.70649" lon="6.72615">
        <ele>1102</ele>
        <time>2010-01-31T09:57:10Z</time>
      </trkpt>
      <trkpt lat="43.70641" lon="6.72617">
        <ele>1102</ele>
        <time>2010-01-31T09:57:12Z</time>
      </trkpt>
      <trkpt lat="43.70632" lon="6.7262">
        <ele>1101</ele>
        <time>2010-01-31T09:57:15Z</time>
      </trkpt>
      <trkpt lat="43.70623" lon="6.72624">
        <ele>1101</ele>
        <time>2010-01-31T09:57:17Z</time>
      </trkpt>
      <trkpt lat="43.70613" lon="6.72624">
        <ele>1100</ele>
        <time>2010-01-31T09:57:19Z</time>
      </trkpt>
      <trkpt lat="43.70602" lon="6.72622">
        <ele>1100</ele>
        <time>2010-01-31T09:57:22Z</time>
      </trkpt>
      <trkpt lat="43.70591" lon="6.72621">
        <ele>1100</ele>
        <time>2010-01-31T09:57:24Z</time>
      </trkpt>
      <trkpt lat="43.7058" lon="6.72622">
        <ele>1099</ele>
        <time>2010-01-31T09:57:26Z</time>
      </trkpt>
      <trkpt lat="43.70569" lon="6.72626">
        <ele>1098</ele>
        <time>2010-01-31T09:57:29Z</time>
      </trkpt>
      <trkpt lat="43.70559" lon="6.72634">
        <ele>1097</ele>
        <time>2010-01-31T09:57:31Z</time>
      </trkpt>
      <trkpt lat="43.7055" lon="6.72644">
        <ele>1095</ele>
        <time>2010-01-31T09:57:33Z</time>
      </trkpt>
      <trkpt lat="43.70543" lon="6.72655">
        <ele>1093</ele>
        <time>2010-01-31T09:57:36Z</time>
      </trkpt>
      <trkpt lat="43.70536" lon="6.72664">
        <ele>1092</ele>
        <time>2010-01-31T09:57:38Z</time>
      </trkpt>
      <trkpt lat="43.70529" lon="6.72672">
        <ele>1091</ele>
        <time>2010-01-31T09:57:40Z</time>
      </trkpt>
      <trkpt lat="43.70524" lon="6.72679">
        <ele>1090</ele>
        <time>2010-01-31T09:57:42Z</time>
      </trkpt>
      <trkpt lat="43.70521" lon="6.72686">
        <ele>1089</ele>
        <time>2010-01-31T09:57:45Z</time>
      </trkpt>
      <trkpt lat="43.70519" lon="6.72695">
        <ele>1088</ele>
        <time>2010-01-31T09:57:47Z</time>
      </trkpt>
      <trkpt lat="43.70517" lon="6.72702">
        <ele>1088</ele>
        <time>2010-01-31T09:57:49Z</time>
      </trkpt>
      <trkpt lat="43.70516" lon="6.7271">
        <ele>1087</ele>
        <time>2010-01-31T09:57:51Z</time>
      </trkpt>
      <trkpt lat="43.70514" lon="6.72718">
        <ele>1086</ele>
        <time>2010-01-31T09:57:54Z</time>
      </trkpt>
      <trkpt lat="43.70511" lon="6.72727">
        <ele>1085</ele>
        <time>2010-01-31T09:57:56Z</time>
      </trkpt>
      <trkpt lat="43.70508" lon="6.72735">
        <ele>1084</ele>
        <time>2010-01-31T09:57:58Z</time>
      </trkpt>
      <trkpt lat="43.70504" lon="6.72745">
        <ele>1084</ele>
        <time>2010-01-31T09:58:00Z</time>
      </trkpt>
      <trkpt lat="43.705" lon="6.72755">
        <ele>1082</ele>
        <time>2010-01-31T09:58:03Z</time>
      </trkpt>
      <trkpt lat="43.70494" lon="6.72765">
        <ele>1080</ele>
        <time>2010-01-31T09:58:05Z</time>
      </trkpt>
      <trkpt lat="43.70488" lon="6.72775">
        <ele>1077</ele>
        <time>2010-01-31T09:58:07Z</time>
      </trkpt>
      <trkpt lat="43.70483" lon="6.72785">
        <ele>1074</ele>
        <time>2010-01-31T09:58:09Z</time>
      </trkpt>
      <trkpt lat="43.7048" lon="6.72796">
        <ele>1072</ele>
        <time>2010-01-31T09:58:11Z</time>
      </trkpt>
      <trkpt lat="43.70477" lon="6.72807">
        <ele>1070</ele>
        <time>2010-01-31T09:58:14Z</time>
      </trkpt>
      <trkpt lat="43.70473" lon="6.72818">
        <ele>1067</ele>
        <time>2010-01-31T09:58:16Z</time>
      </trkpt>
      <trkpt lat="43.7047" lon="6.72826">
        <ele>1066</ele>
        <time>2010-01-31T09:58:18Z</time>
      </trkpt>
      <trkpt lat="43.70467" lon="6.72833">
        <ele>1064</ele>
        <time>2010-01-31T09:58:20Z</time>
      </trkpt>
      <trkpt lat="43.70464" lon="6.7284">
        <ele>1063</ele>
        <time>2010-01-31T09:58:23Z</time>
      </trkpt>
      <trkpt lat="43.7046" lon="6.72847">
        <ele>1062</ele>
        <time>2010-01-31T09:58:25Z</time>
      </trkpt>
      <trkpt lat="43.70457" lon="6.72853">
        <ele>1061</ele>
        <time>2010-01-31T09:58:27Z</time>
      </trkpt>
      <trkpt lat="43.70454" lon="6.72861">
        <ele>1059</ele>
        <time>2010-01-31T09:58:29Z</time>
      </trkpt>
      <trkpt lat="43.70451" lon="6.72868">
        <ele>1058</ele>
        <time>2010-01-31T09:58:32Z</time>
      </trkpt>
      <trkpt lat="43.70448" lon="6.72875">
        <ele>1058</ele>
        <time>2010-01-31T09:58:34Z</time>
      </trkpt>
      <trkpt lat="43.70442" lon="6.72886">
        <ele>1056</ele>
        <time>2010-01-31T09:58:42Z</time>
      </trkpt>
      <trkpt lat="43.70438" lon="6.72891">
        <ele>1054</ele>
        <time>2010-01-31T09:58:44Z</time>
      </trkpt>
      <trkpt lat="43.7043" lon="6.72902">
        <ele>1048</ele>
        <time>2010-01-31T09:58:54Z</time>
      </trkpt>
      <trkpt lat="43.70421" lon="6.72919">
        <ele>1039</ele>
        <time>2010-01-31T09:59:08Z</time>
      </trkpt>
      <trkpt lat="43.70421" lon="6.72943">
        <ele>1038</ele>
        <time>2010-01-31T09:59:26Z</time>
      </trkpt>
      <trkpt lat="43.70423" lon="6.72952">
        <ele>1038</ele>
        <time>2010-01-31T09:59:38Z</time>
      </trkpt>
      <trkpt lat="43.70425" lon="6.72952">
        <ele>1038</ele>
        <time>2010-01-31T09:59:41Z</time>
      </trkpt>
      <trkpt lat="43.70427" lon="6.72963">
        <ele>1041</ele>
        <time>2010-01-31T09:59:43Z</time>
      </trkpt>
      <trkpt lat="43.70428" lon="6.72983">
        <ele>1044</ele>
        <time>2010-01-31T09:59:49Z</time>
      </trkpt>
      <trkpt lat="43.70429" lon="6.73">
        <ele>1045</ele>
        <time>2010-01-31T09:59:52Z</time>
      </trkpt>
      <trkpt lat="43.70426" lon="6.73009">
        <ele>1044</ele>
        <time>2010-01-31T09:59:54Z</time>
      </trkpt>
      <trkpt lat="43.70421" lon="6.73004">
        <ele>1043</ele>
        <time>2010-01-31T09:59:56Z</time>
      </trkpt>
      <trkpt lat="43.70415" lon="6.73002">
        <ele>1041</ele>
        <time>2010-01-31T09:59:59Z</time>
      </trkpt>
      <trkpt lat="43.7041" lon="6.73006">
        <ele>1039</ele>
        <time>2010-01-31T10:00:01Z</time>
      </trkpt>
      <trkpt lat="43.7041" lon="6.73017">
        <ele>1039</ele>
        <time>2010-01-31T10:00:03Z</time>
      </trkpt>
      <trkpt lat="43.7041" lon="6.73032">
        <ele>1039</ele>
        <time>2010-01-31T10:00:05Z</time>
      </trkpt>
      <trkpt lat="43.70414" lon="6.7305">
        <ele>1038</ele>
        <time>2010-01-31T10:00:07Z</time>
      </trkpt>
      <trkpt lat="43.70417" lon="6.73064">
        <ele>1038</ele>
        <time>2010-01-31T10:00:10Z</time>
      </trkpt>
      <trkpt lat="43.70416" lon="6.73074">
        <ele>1039</ele>
        <time>2010-01-31T10:00:12Z</time>
      </trkpt>
      <trkpt lat="43.70408" lon="6.73077">
        <ele>1040</ele>
        <time>2010-01-31T10:00:14Z</time>
      </trkpt>
      <trkpt lat="43.70401" lon="6.73072">
        <ele>1039</ele>
        <time>2010-01-31T10:00:16Z</time>
      </trkpt>
      <trkpt lat="43.70394" lon="6.7306">
        <ele>1039</ele>
        <time>2010-01-31T10:00:19Z</time>
      </trkpt>
      <trkpt lat="43.70389" lon="6.73047">
        <ele>1038</ele>
        <time>2010-01-31T10:00:21Z</time>
      </trkpt>
      <trkpt lat="43.70385" lon="6.73036">
        <ele>1037</ele>
        <time>2010-01-31T10:00:23Z</time>
      </trkpt>
      <trkpt lat="43.70385" lon="6.73026">
        <ele>1036</ele>
        <time>2010-01-31T10:00:26Z</time>
      </trkpt>
      <trkpt lat="43.70385" lon="6.73016">
        <ele>1034</ele>
        <time>2010-01-31T10:00:28Z</time>
      </trkpt>
      <trkpt lat="43.70382" lon="6.73006">
        <ele>1034</ele>
        <time>2010-01-31T10:00:30Z</time>
      </trkpt>
      <trkpt lat="43.70379" lon="6.72995">
        <ele>1033</ele>
        <time>2010-01-31T10:00:32Z</time>
      </trkpt>
      <trkpt lat="43.70376" lon="6.72982">
        <ele>1032</ele>
        <time>2010-01-31T10:00:35Z</time>
      </trkpt>
      <trkpt lat="43.70375" lon="6.72971">
        <ele>1032</ele>
        <time>2010-01-31T10:00:37Z</time>
      </trkpt>
      <trkpt lat="43.70373" lon="6.7296">
        <ele>1032</ele>
        <time>2010-01-31T10:00:39Z</time>
      </trkpt>
      <trkpt lat="43.70372" lon="6.72949">
        <ele>1032</ele>
        <time>2010-01-31T10:00:41Z</time>
      </trkpt>
      <trkpt lat="43.70369" lon="6.72938">
        <ele>1031</ele>
        <time>2010-01-31T10:00:44Z</time>
      </trkpt>
      <trkpt lat="43.70367" lon="6.72928">
        <ele>1031</ele>
        <time>2010-01-31T10:00:46Z</time>
      </trkpt>
      <trkpt lat="43.70364" lon="6.72916">
        <ele>1030</ele>
        <time>2010-01-31T10:00:48Z</time>
      </trkpt>
      <trkpt lat="43.70362" lon="6.72905">
        <ele>1030</ele>
        <time>2010-01-31T10:00:50Z</time>
      </trkpt>
      <trkpt lat="43.7036" lon="6.72895">
        <ele>1030</ele>
        <time>2010-01-31T10:00:53Z</time>
      </trkpt>
      <trkpt lat="43.70357" lon="6.7288">
        <ele>1029</ele>
        <time>2010-01-31T10:00:55Z</time>
      </trkpt>
      <trkpt lat="43.70353" lon="6.7286">
        <ele>1029</ele>
        <time>2010-01-31T10:00:57Z</time>
      </trkpt>
      <trkpt lat="43.70349" lon="6.72837">
        <ele>1029</ele>
        <time>2010-01-31T10:00:59Z</time>
      </trkpt>
      <trkpt lat="43.70346" lon="6.72815">
        <ele>1028</ele>
        <time>2010-01-31T10:01:02Z</time>
      </trkpt>
      <trkpt lat="43.70345" lon="6.72794">
        <ele>1028</ele>
        <time>2010-01-31T10:01:04Z</time>
      </trkpt>
      <trkpt lat="43.70338" lon="6.72782">
        <ele>1026</ele>
        <time>2010-01-31T10:01:06Z</time>
      </trkpt>
      <trkpt lat="43.70324" lon="6.72779">
        <ele>1024</ele>
        <time>2010-01-31T10:01:08Z</time>
      </trkpt>
      <trkpt lat="43.70308" lon="6.72781">
        <ele>1022</ele>
        <time>2010-01-31T10:01:11Z</time>
      </trkpt>
      <trkpt lat="43.70295" lon="6.72774">
        <ele>1020</ele>
        <time>2010-01-31T10:01:13Z</time>
      </trkpt>
      <trkpt lat="43.70286" lon="6.72765">
        <ele>1019</ele>
        <time>2010-01-31T10:01:15Z</time>
      </trkpt>
      <trkpt lat="43.70285" lon="6.72764">
        <ele>1018</ele>
        <time>2010-01-31T10:01:16Z</time>
      </trkpt>
      <trkpt lat="43.70278" lon="6.72772">
        <ele>1016</ele>
        <time>2010-01-31T10:01:23Z</time>
      </trkpt>
      <trkpt lat="43.70279" lon="6.72786">
        <ele>1017</ele>
        <time>2010-01-31T10:01:26Z</time>
      </trkpt>
      <trkpt lat="43.7028" lon="6.72807">
        <ele>1018</ele>
        <time>2010-01-31T10:01:28Z</time>
      </trkpt>
      <trkpt lat="43.7028" lon="6.72829">
        <ele>1019</ele>
        <time>2010-01-31T10:01:30Z</time>
      </trkpt>
      <trkpt lat="43.70271" lon="6.72841">
        <ele>1020</ele>
        <time>2010-01-31T10:01:32Z</time>
      </trkpt>
      <trkpt lat="43.70257" lon="6.72837">
        <ele>1020</ele>
        <time>2010-01-31T10:01:34Z</time>
      </trkpt>
      <trkpt lat="43.70245" lon="6.72829">
        <ele>1021</ele>
        <time>2010-01-31T10:01:37Z</time>
      </trkpt>
      <trkpt lat="43.70235" lon="6.72828">
        <ele>1020</ele>
        <time>2010-01-31T10:01:39Z</time>
      </trkpt>
      <trkpt lat="43.70227" lon="6.72839">
        <ele>1019</ele>
        <time>2010-01-31T10:01:41Z</time>
      </trkpt>
      <trkpt lat="43.70218" lon="6.72845">
        <ele>1019</ele>
        <time>2010-01-31T10:01:44Z</time>
      </trkpt>
      <trkpt lat="43.7021" lon="6.7284">
        <ele>1018</ele>
        <time>2010-01-31T10:01:46Z</time>
      </trkpt>
      <trkpt lat="43.70206" lon="6.72835">
        <ele>1017</ele>
        <time>2010-01-31T10:01:48Z</time>
      </trkpt>
      <trkpt lat="43.70205" lon="6.72825">
        <ele>1017</ele>
        <time>2010-01-31T10:01:50Z</time>
      </trkpt>
      <trkpt lat="43.70206" lon="6.7281">
        <ele>1015</ele>
        <time>2010-01-31T10:01:52Z</time>
      </trkpt>
      <trkpt lat="43.70204" lon="6.7279">
        <ele>1012</ele>
        <time>2010-01-31T10:01:55Z</time>
      </trkpt>
      <trkpt lat="43.70197" lon="6.72773">
        <ele>1009</ele>
        <time>2010-01-31T10:01:57Z</time>
      </trkpt>
      <trkpt lat="43.70187" lon="6.7277">
        <ele>1007</ele>
        <time>2010-01-31T10:01:59Z</time>
      </trkpt>
      <trkpt lat="43.70175" lon="6.72775">
        <ele>1006</ele>
        <time>2010-01-31T10:02:01Z</time>
      </trkpt>
      <trkpt lat="43.70159" lon="6.72777">
        <ele>1005</ele>
        <time>2010-01-31T10:02:04Z</time>
      </trkpt>
      <trkpt lat="43.70144" lon="6.72774">
        <ele>1003</ele>
        <time>2010-01-31T10:02:06Z</time>
      </trkpt>
      <trkpt lat="43.70127" lon="6.72764">
        <ele>999</ele>
        <time>2010-01-31T10:02:08Z</time>
      </trkpt>
      <trkpt lat="43.70108" lon="6.72756">
        <ele>995</ele>
        <time>2010-01-31T10:02:10Z</time>
      </trkpt>
      <trkpt lat="43.70088" lon="6.72753">
        <ele>992</ele>
        <time>2010-01-31T10:02:13Z</time>
      </trkpt>
      <trkpt lat="43.70065" lon="6.72753">
        <ele>988</ele>
        <time>2010-01-31T10:02:15Z</time>
      </trkpt>
      <trkpt lat="43.70043" lon="6.72752">
        <ele>985</ele>
        <time>2010-01-31T10:02:17Z</time>
      </trkpt>
      <trkpt lat="43.70027" lon="6.7274">
        <ele>981</ele>
        <time>2010-01-31T10:02:20Z</time>
      </trkpt>
      <trkpt lat="43.70014" lon="6.72721">
        <ele>977</ele>
        <time>2010-01-31T10:02:22Z</time>
      </trkpt>
      <trkpt lat="43.70003" lon="6.72698">
        <ele>973</ele>
        <time>2010-01-31T10:02:24Z</time>
      </trkpt>
      <trkpt lat="43.69999" lon="6.72671">
        <ele>970</ele>
        <time>2010-01-31T10:02:26Z</time>
      </trkpt>
      <trkpt lat="43.69997" lon="6.72643">
        <ele>968</ele>
        <time>2010-01-31T10:02:29Z</time>
      </trkpt>
      <trkpt lat="43.69991" lon="6.72616">
        <ele>966</ele>
        <time>2010-01-31T10:02:31Z</time>
      </trkpt>
      <trkpt lat="43.69974" lon="6.72602">
        <ele>964</ele>
        <time>2010-01-31T10:02:33Z</time>
      </trkpt>
      <trkpt lat="43.69958" lon="6.72593">
        <ele>963</ele>
        <time>2010-01-31T10:02:35Z</time>
      </trkpt>
      <trkpt lat="43.69942" lon="6.72589">
        <ele>961</ele>
        <time>2010-01-31T10:02:38Z</time>
      </trkpt>
      <trkpt lat="43.69926" lon="6.72594">
        <ele>959</ele>
        <time>2010-01-31T10:02:40Z</time>
      </trkpt>
      <trkpt lat="43.69911" lon="6.72607">
        <ele>959</ele>
        <time>2010-01-31T10:02:42Z</time>
      </trkpt>
      <trkpt lat="43.69894" lon="6.72622">
        <ele>958</ele>
        <time>2010-01-31T10:02:44Z</time>
      </trkpt>
      <trkpt lat="43.69875" lon="6.72635">
        <ele>958</ele>
        <time>2010-01-31T10:02:47Z</time>
      </trkpt>
      <trkpt lat="43.69858" lon="6.72635">
        <ele>957</ele>
        <time>2010-01-31T10:02:49Z</time>
      </trkpt>
      <trkpt lat="43.69845" lon="6.72619">
        <ele>955</ele>
        <time>2010-01-31T10:02:51Z</time>
      </trkpt>
      <trkpt lat="43.69835" lon="6.726">
        <ele>953</ele>
        <time>2010-01-31T10:02:53Z</time>
      </trkpt>
      <trkpt lat="43.69823" lon="6.72584">
        <ele>951</ele>
        <time>2010-01-31T10:02:56Z</time>
      </trkpt>
      <trkpt lat="43.69807" lon="6.72574">
        <ele>950</ele>
        <time>2010-01-31T10:02:58Z</time>
      </trkpt>
      <trkpt lat="43.69788" lon="6.72563">
        <ele>949</ele>
        <time>2010-01-31T10:03:00Z</time>
      </trkpt>
      <trkpt lat="43.69768" lon="6.72551">
        <ele>948</ele>
        <time>2010-01-31T10:03:03Z</time>
      </trkpt>
      <trkpt lat="43.69749" lon="6.72533">
        <ele>947</ele>
        <time>2010-01-31T10:03:05Z</time>
      </trkpt>
      <trkpt lat="43.69732" lon="6.72516">
        <ele>946</ele>
        <time>2010-01-31T10:03:07Z</time>
      </trkpt>
      <trkpt lat="43.69713" lon="6.7251">
        <ele>943</ele>
        <time>2010-01-31T10:03:09Z</time>
      </trkpt>
      <trkpt lat="43.69694" lon="6.72502">
        <ele>941</ele>
        <time>2010-01-31T10:03:12Z</time>
      </trkpt>
      <trkpt lat="43.69676" lon="6.72491">
        <ele>939</ele>
        <time>2010-01-31T10:03:14Z</time>
      </trkpt>
      <trkpt lat="43.6966" lon="6.72476">
        <ele>936</ele>
        <time>2010-01-31T10:03:16Z</time>
      </trkpt>
      <trkpt lat="43.69647" lon="6.72456">
        <ele>934</ele>
        <time>2010-01-31T10:03:19Z</time>
      </trkpt>
      <trkpt lat="43.69635" lon="6.72435">
        <ele>931</ele>
        <time>2010-01-31T10:03:21Z</time>
      </trkpt>
      <trkpt lat="43.69624" lon="6.72414">
        <ele>929</ele>
        <time>2010-01-31T10:03:23Z</time>
      </trkpt>
      <trkpt lat="43.69612" lon="6.72398">
        <ele>928</ele>
        <time>2010-01-31T10:03:25Z</time>
      </trkpt>
      <trkpt lat="43.696" lon="6.72383">
        <ele>926</ele>
        <time>2010-01-31T10:03:28Z</time>
      </trkpt>
      <trkpt lat="43.69589" lon="6.72366">
        <ele>925</ele>
        <time>2010-01-31T10:03:30Z</time>
      </trkpt>
      <trkpt lat="43.69579" lon="6.72348">
        <ele>924</ele>
        <time>2010-01-31T10:03:32Z</time>
      </trkpt>
      <trkpt lat="43.69571" lon="6.72331">
        <ele>923</ele>
        <time>2010-01-31T10:03:35Z</time>
      </trkpt>
      <trkpt lat="43.69565" lon="6.72317">
        <ele>922</ele>
        <time>2010-01-31T10:03:37Z</time>
      </trkpt>
      <trkpt lat="43.69561" lon="6.72306">
        <ele>921</ele>
        <time>2010-01-31T10:03:39Z</time>
      </trkpt>
      <trkpt lat="43.69557" lon="6.72295">
        <ele>920</ele>
        <time>2010-01-31T10:03:41Z</time>
      </trkpt>
      <trkpt lat="43.69552" lon="6.72283">
        <ele>919</ele>
        <time>2010-01-31T10:03:44Z</time>
      </trkpt>
      <trkpt lat="43.69548" lon="6.7227">
        <ele>917</ele>
        <time>2010-01-31T10:03:46Z</time>
      </trkpt>
      <trkpt lat="43.69545" lon="6.72255">
        <ele>917</ele>
        <time>2010-01-31T10:03:48Z</time>
      </trkpt>
      <trkpt lat="43.69542" lon="6.72237">
        <ele>916</ele>
        <time>2010-01-31T10:03:51Z</time>
      </trkpt>
      <trkpt lat="43.6954" lon="6.72222">
        <ele>914</ele>
        <time>2010-01-31T10:03:53Z</time>
      </trkpt>
      <trkpt lat="43.69538" lon="6.7221">
        <ele>914</ele>
        <time>2010-01-31T10:03:55Z</time>
      </trkpt>
      <trkpt lat="43.69535" lon="6.72201">
        <ele>914</ele>
        <time>2010-01-31T10:03:58Z</time>
      </trkpt>
      <trkpt lat="43.69531" lon="6.72192">
        <ele>914</ele>
        <time>2010-01-31T10:04:00Z</time>
      </trkpt>
      <trkpt lat="43.69526" lon="6.7218">
        <ele>913</ele>
        <time>2010-01-31T10:04:02Z</time>
      </trkpt>
      <trkpt lat="43.69523" lon="6.72169">
        <ele>913</ele>
        <time>2010-01-31T10:04:04Z</time>
      </trkpt>
      <trkpt lat="43.6952" lon="6.72158">
        <ele>912</ele>
        <time>2010-01-31T10:04:07Z</time>
      </trkpt>
      <trkpt lat="43.69518" lon="6.72147">
        <ele>912</ele>
        <time>2010-01-31T10:04:09Z</time>
      </trkpt>
      <trkpt lat="43.69515" lon="6.72136">
        <ele>912</ele>
        <time>2010-01-31T10:04:11Z</time>
      </trkpt>
      <trkpt lat="43.69514" lon="6.72125">
        <ele>912</ele>
        <time>2010-01-31T10:04:13Z</time>
      </trkpt>
      <trkpt lat="43.69512" lon="6.72114">
        <ele>912</ele>
        <time>2010-01-31T10:04:16Z</time>
      </trkpt>
      <trkpt lat="43.69509" lon="6.72103">
        <ele>912</ele>
        <time>2010-01-31T10:04:18Z</time>
      </trkpt>
      <trkpt lat="43.69502" lon="6.72095">
        <ele>911</ele>
        <time>2010-01-31T10:04:20Z</time>
      </trkpt>
      <trkpt lat="43.69493" lon="6.72086">
        <ele>911</ele>
        <time>2010-01-31T10:04:23Z</time>
      </trkpt>
      <trkpt lat="43.69486" lon="6.72071">
        <ele>911</ele>
        <time>2010-01-31T10:04:25Z</time>
      </trkpt>
      <trkpt lat="43.6948" lon="6.72054">
        <ele>910</ele>
        <time>2010-01-31T10:04:27Z</time>
      </trkpt>
      <trkpt lat="43.69472" lon="6.72037">
        <ele>911</ele>
        <time>2010-01-31T10:04:30Z</time>
      </trkpt>
      <trkpt lat="43.69463" lon="6.72019">
        <ele>911</ele>
        <time>2010-01-31T10:04:32Z</time>
      </trkpt>
      <trkpt lat="43.69449" lon="6.72001">
        <ele>910</ele>
        <time>2010-01-31T10:04:34Z</time>
      </trkpt>
      <trkpt lat="43.69433" lon="6.71979">
        <ele>910</ele>
        <time>2010-01-31T10:04:36Z</time>
      </trkpt>
      <trkpt lat="43.6942" lon="6.71953">
        <ele>909</ele>
        <time>2010-01-31T10:04:39Z</time>
      </trkpt>
      <trkpt lat="43.69409" lon="6.71927">
        <ele>909</ele>
        <time>2010-01-31T10:04:41Z</time>
      </trkpt>
      <trkpt lat="43.69398" lon="6.71902">
        <ele>909</ele>
        <time>2010-01-31T10:04:43Z</time>
      </trkpt>
      <trkpt lat="43.69388" lon="6.71877">
        <ele>909</ele>
        <time>2010-01-31T10:04:46Z</time>
      </trkpt>
      <trkpt lat="43.69378" lon="6.71854">
        <ele>910</ele>
        <time>2010-01-31T10:04:48Z</time>
      </trkpt>
      <trkpt lat="43.69367" lon="6.71832">
        <ele>910</ele>
        <time>2010-01-31T10:04:50Z</time>
      </trkpt>
      <trkpt lat="43.69358" lon="6.71815">
        <ele>909</ele>
        <time>2010-01-31T10:04:52Z</time>
      </trkpt>
      <trkpt lat="43.6935" lon="6.718">
        <ele>910</ele>
        <time>2010-01-31T10:04:55Z</time>
      </trkpt>
      <trkpt lat="43.69342" lon="6.71786">
        <ele>910</ele>
        <time>2010-01-31T10:04:57Z</time>
      </trkpt>
      <trkpt lat="43.69333" lon="6.7177">
        <ele>909</ele>
        <time>2010-01-31T10:04:59Z</time>
      </trkpt>
      <trkpt lat="43.69324" lon="6.71755">
        <ele>909</ele>
        <time>2010-01-31T10:05:02Z</time>
      </trkpt>
      <trkpt lat="43.69317" lon="6.7174">
        <ele>909</ele>
        <time>2010-01-31T10:05:04Z</time>
      </trkpt>
      <trkpt lat="43.69309" lon="6.71725">
        <ele>908</ele>
        <time>2010-01-31T10:05:06Z</time>
      </trkpt>
      <trkpt lat="43.69299" lon="6.71713">
        <ele>907</ele>
        <time>2010-01-31T10:05:08Z</time>
      </trkpt>
      <trkpt lat="43.69289" lon="6.71703">
        <ele>907</ele>
        <time>2010-01-31T10:05:11Z</time>
      </trkpt>
      <trkpt lat="43.6928" lon="6.71701">
        <ele>905</ele>
        <time>2010-01-31T10:05:13Z</time>
      </trkpt>
      <trkpt lat="43.69274" lon="6.71711">
        <ele>904</ele>
        <time>2010-01-31T10:05:15Z</time>
      </trkpt>
      <trkpt lat="43.69268" lon="6.71716">
        <ele>904</ele>
        <time>2010-01-31T10:05:17Z</time>
      </trkpt>
      <trkpt lat="43.69263" lon="6.7171">
        <ele>904</ele>
        <time>2010-01-31T10:05:20Z</time>
      </trkpt>
      <trkpt lat="43.69262" lon="6.71702">
        <ele>904</ele>
        <time>2010-01-31T10:05:22Z</time>
      </trkpt>
      <trkpt lat="43.6926" lon="6.71694">
        <ele>904</ele>
        <time>2010-01-31T10:05:24Z</time>
      </trkpt>
      <trkpt lat="43.69256" lon="6.71686">
        <ele>904</ele>
        <time>2010-01-31T10:05:26Z</time>
      </trkpt>
      <trkpt lat="43.69248" lon="6.71681">
        <ele>903</ele>
        <time>2010-01-31T10:05:29Z</time>
      </trkpt>
      <trkpt lat="43.6924" lon="6.71668">
        <ele>903</ele>
        <time>2010-01-31T10:05:31Z</time>
      </trkpt>
      <trkpt lat="43.69239" lon="6.71651">
        <ele>902</ele>
        <time>2010-01-31T10:05:33Z</time>
      </trkpt>
      <trkpt lat="43.69244" lon="6.71632">
        <ele>902</ele>
        <time>2010-01-31T10:05:36Z</time>
      </trkpt>
      <trkpt lat="43.6925" lon="6.71614">
        <ele>901</ele>
        <time>2010-01-31T10:05:38Z</time>
      </trkpt>
      <trkpt lat="43.69255" lon="6.71595">
        <ele>901</ele>
        <time>2010-01-31T10:05:40Z</time>
      </trkpt>
      <trkpt lat="43.69259" lon="6.71576">
        <ele>900</ele>
        <time>2010-01-31T10:05:42Z</time>
      </trkpt>
      <trkpt lat="43.6926" lon="6.71558">
        <ele>900</ele>
        <time>2010-01-31T10:05:45Z</time>
      </trkpt>
      <trkpt lat="43.69258" lon="6.71543">
        <ele>900</ele>
        <time>2010-01-31T10:05:47Z</time>
      </trkpt>
      <trkpt lat="43.69253" lon="6.71534">
        <ele>899</ele>
        <time>2010-01-31T10:05:49Z</time>
      </trkpt>
      <trkpt lat="43.69246" lon="6.71529">
        <ele>899</ele>
        <time>2010-01-31T10:05:51Z</time>
      </trkpt>
      <trkpt lat="43.6924" lon="6.71523">
        <ele>899</ele>
        <time>2010-01-31T10:05:54Z</time>
      </trkpt>
      <trkpt lat="43.69235" lon="6.71515">
        <ele>898</ele>
        <time>2010-01-31T10:05:56Z</time>
      </trkpt>
      <trkpt lat="43.69231" lon="6.71507">
        <ele>896</ele>
        <time>2010-01-31T10:05:58Z</time>
      </trkpt>
      <trkpt lat="43.69228" lon="6.71503">
        <ele>893</ele>
        <time>2010-01-31T10:06:01Z</time>
      </trkpt>
      <trkpt lat="43.69225" lon="6.71501">
        <ele>891</ele>
        <time>2010-01-31T10:06:03Z</time>
      </trkpt>
      <trkpt lat="43.69223" lon="6.715">
        <ele>890</ele>
        <time>2010-01-31T10:06:05Z</time>
      </trkpt>
      <trkpt lat="43.69223" lon="6.715">
        <ele>889</ele>
        <time>2010-01-31T10:06:06Z</time>
      </trkpt>
      <trkpt lat="43.69211" lon="6.71504">
        <ele>879</ele>
        <time>2010-01-31T10:06:49Z</time>
      </trkpt>
      <trkpt lat="43.69193" lon="6.71508">
        <ele>880</ele>
        <time>2010-01-31T10:06:51Z</time>
      </trkpt>
      <trkpt lat="43.69174" lon="6.71508">
        <ele>879</ele>
        <time>2010-01-31T10:06:53Z</time>
      </trkpt>
      <trkpt lat="43.69154" lon="6.71501">
        <ele>879</ele>
        <time>2010-01-31T10:06:56Z</time>
      </trkpt>
      <trkpt lat="43.69135" lon="6.71491">
        <ele>879</ele>
        <time>2010-01-31T10:06:58Z</time>
      </trkpt>
      <trkpt lat="43.69121" lon="6.71484">
        <ele>878</ele>
        <time>2010-01-31T10:07:01Z</time>
      </trkpt>
      <trkpt lat="43.69111" lon="6.71475">
        <ele>877</ele>
        <time>2010-01-31T10:07:03Z</time>
      </trkpt>
      <trkpt lat="43.69103" lon="6.71468">
        <ele>876</ele>
        <time>2010-01-31T10:07:05Z</time>
      </trkpt>
      <trkpt lat="43.69092" lon="6.7146">
        <ele>875</ele>
        <time>2010-01-31T10:07:08Z</time>
      </trkpt>
      <trkpt lat="43.6908" lon="6.71452">
        <ele>874</ele>
        <time>2010-01-31T10:07:11Z</time>
      </trkpt>
      <trkpt lat="43.6907" lon="6.71445">
        <ele>874</ele>
        <time>2010-01-31T10:07:13Z</time>
      </trkpt>
      <trkpt lat="43.6906" lon="6.71443">
        <ele>873</ele>
        <time>2010-01-31T10:07:15Z</time>
      </trkpt>
      <trkpt lat="43.69049" lon="6.71439">
        <ele>872</ele>
        <time>2010-01-31T10:07:17Z</time>
      </trkpt>
      <trkpt lat="43.69037" lon="6.71435">
        <ele>873</ele>
        <time>2010-01-31T10:07:20Z</time>
      </trkpt>
      <trkpt lat="43.69022" lon="6.71431">
        <ele>873</ele>
        <time>2010-01-31T10:07:24Z</time>
      </trkpt>
      <trkpt lat="43.69013" lon="6.71431">
        <ele>873</ele>
        <time>2010-01-31T10:07:26Z</time>
      </trkpt>
      <trkpt lat="43.69004" lon="6.71433">
        <ele>873</ele>
        <time>2010-01-31T10:07:28Z</time>
      </trkpt>
      <trkpt lat="43.68994" lon="6.71435">
        <ele>873</ele>
        <time>2010-01-31T10:07:30Z</time>
      </trkpt>
      <trkpt lat="43.68983" lon="6.71427">
        <ele>872</ele>
        <time>2010-01-31T10:07:32Z</time>
      </trkpt>
      <trkpt lat="43.68974" lon="6.71421">
        <ele>871</ele>
        <time>2010-01-31T10:07:35Z</time>
      </trkpt>
      <trkpt lat="43.68968" lon="6.71418">
        <ele>869</ele>
        <time>2010-01-31T10:07:37Z</time>
      </trkpt>
      <trkpt lat="43.68966" lon="6.71418">
        <ele>869</ele>
        <time>2010-01-31T10:07:38Z</time>
      </trkpt>
      <trkpt lat="43.68958" lon="6.71423">
        <ele>861</ele>
        <time>2010-01-31T10:08:28Z</time>
      </trkpt>
      <trkpt lat="43.68949" lon="6.71423">
        <ele>861</ele>
        <time>2010-01-31T10:08:30Z</time>
      </trkpt>
      <trkpt lat="43.68941" lon="6.71423">
        <ele>861</ele>
        <time>2010-01-31T10:08:32Z</time>
      </trkpt>
      <trkpt lat="43.68935" lon="6.71422">
        <ele>860</ele>
        <time>2010-01-31T10:08:35Z</time>
      </trkpt>
      <trkpt lat="43.68929" lon="6.7142">
        <ele>860</ele>
        <time>2010-01-31T10:08:37Z</time>
      </trkpt>
      <trkpt lat="43.68925" lon="6.71418">
        <ele>860</ele>
        <time>2010-01-31T10:08:39Z</time>
      </trkpt>
      <trkpt lat="43.68924" lon="6.71416">
        <ele>860</ele>
        <time>2010-01-31T10:08:42Z</time>
      </trkpt>
      <trkpt lat="43.6892" lon="6.71411">
        <ele>858</ele>
        <time>2010-01-31T10:08:53Z</time>
      </trkpt>
      <trkpt lat="43.68911" lon="6.71406">
        <ele>858</ele>
        <time>2010-01-31T10:08:56Z</time>
      </trkpt>
      <trkpt lat="43.68903" lon="6.71402">
        <ele>858</ele>
        <time>2010-01-31T10:08:58Z</time>
      </trkpt>
      <trkpt lat="43.68895" lon="6.714">
        <ele>859</ele>
        <time>2010-01-31T10:09:00Z</time>
      </trkpt>
      <trkpt lat="43.68889" lon="6.71399">
        <ele>859</ele>
        <time>2010-01-31T10:09:02Z</time>
      </trkpt>
      <trkpt lat="43.68883" lon="6.714">
        <ele>859</ele>
        <time>2010-01-31T10:09:05Z</time>
      </trkpt>
      <trkpt lat="43.68877" lon="6.71401">
        <ele>859</ele>
        <time>2010-01-31T10:09:07Z</time>
      </trkpt>
      <trkpt lat="43.6887" lon="6.71401">
        <ele>858</ele>
        <time>2010-01-31T10:09:09Z</time>
      </trkpt>
      <trkpt lat="43.68863" lon="6.714">
        <ele>858</ele>
        <time>2010-01-31T10:09:12Z</time>
      </trkpt>
      <trkpt lat="43.68856" lon="6.71398">
        <ele>859</ele>
        <time>2010-01-31T10:09:14Z</time>
      </trkpt>
      <trkpt lat="43.6885" lon="6.71395">
        <ele>859</ele>
        <time>2010-01-31T10:09:16Z</time>
      </trkpt>
      <trkpt lat="43.68846" lon="6.71392">
        <ele>858</ele>
        <time>2010-01-31T10:09:19Z</time>
      </trkpt>
      <trkpt lat="43.68843" lon="6.71393">
        <ele>856</ele>
        <time>2010-01-31T10:09:21Z</time>
      </trkpt>
      <trkpt lat="43.68842" lon="6.71397">
        <ele>855</ele>
        <time>2010-01-31T10:09:23Z</time>
      </trkpt>
      <trkpt lat="43.6884" lon="6.71403">
        <ele>854</ele>
        <time>2010-01-31T10:09:26Z</time>
      </trkpt>
      <trkpt lat="43.68838" lon="6.71408">
        <ele>853</ele>
        <time>2010-01-31T10:09:28Z</time>
      </trkpt>
      <trkpt lat="43.68836" lon="6.71412">
        <ele>851</ele>
        <time>2010-01-31T10:09:30Z</time>
      </trkpt>
      <trkpt lat="43.68832" lon="6.71413">
        <ele>850</ele>
        <time>2010-01-31T10:09:32Z</time>
      </trkpt>
      <trkpt lat="43.68828" lon="6.71414">
        <ele>849</ele>
        <time>2010-01-31T10:09:35Z</time>
      </trkpt>
      <trkpt lat="43.68824" lon="6.71414">
        <ele>849</ele>
        <time>2010-01-31T10:09:37Z</time>
      </trkpt>
      <trkpt lat="43.68817" lon="6.71419">
        <ele>842</ele>
        <time>2010-01-31T10:09:46Z</time>
      </trkpt>
      <trkpt lat="43.68814" lon="6.71421">
        <ele>842</ele>
        <time>2010-01-31T10:09:49Z</time>
      </trkpt>
      <trkpt lat="43.68809" lon="6.7142">
        <ele>840</ele>
        <time>2010-01-31T10:09:53Z</time>
      </trkpt>
      <trkpt lat="43.68806" lon="6.71415">
        <ele>838</ele>
        <time>2010-01-31T10:09:55Z</time>
      </trkpt>
      <trkpt lat="43.688" lon="6.71409">
        <ele>835</ele>
        <time>2010-01-31T10:10:00Z</time>
      </trkpt>
      <trkpt lat="43.68796" lon="6.71399">
        <ele>834</ele>
        <time>2010-01-31T10:10:05Z</time>
      </trkpt>
      <trkpt lat="43.6879" lon="6.71374">
        <ele>831</ele>
        <time>2010-01-31T10:10:20Z</time>
      </trkpt>
      <trkpt lat="43.68791" lon="6.7136">
        <ele>829</ele>
        <time>2010-01-31T10:10:29Z</time>
      </trkpt>
      <trkpt lat="43.68793" lon="6.71356">
        <ele>828</ele>
        <time>2010-01-31T10:10:31Z</time>
      </trkpt>
      <trkpt lat="43.68793" lon="6.71349">
        <ele>827</ele>
        <time>2010-01-31T10:10:35Z</time>
      </trkpt>
      <trkpt lat="43.68793" lon="6.71344">
        <ele>827</ele>
        <time>2010-01-31T10:10:37Z</time>
      </trkpt>
      <trkpt lat="43.68793" lon="6.71339">
        <ele>826</ele>
        <time>2010-01-31T10:10:40Z</time>
      </trkpt>
      <trkpt lat="43.68793" lon="6.71334">
        <ele>826</ele>
        <time>2010-01-31T10:10:42Z</time>
      </trkpt>
      <trkpt lat="43.68793" lon="6.7132">
        <ele>826</ele>
        <time>2010-01-31T10:10:46Z</time>
      </trkpt>
      <trkpt lat="43.68794" lon="6.71307">
        <ele>825</ele>
        <time>2010-01-31T10:10:49Z</time>
      </trkpt>
      <trkpt lat="43.68795" lon="6.71294">
        <ele>825</ele>
        <time>2010-01-31T10:10:51Z</time>
      </trkpt>
      <trkpt lat="43.68796" lon="6.71285">
        <ele>825</ele>
        <time>2010-01-31T10:10:53Z</time>
      </trkpt>
      <trkpt lat="43.68795" lon="6.71275">
        <ele>825</ele>
        <time>2010-01-31T10:10:55Z</time>
      </trkpt>
      <trkpt lat="43.68794" lon="6.71264">
        <ele>825</ele>
        <time>2010-01-31T10:10:58Z</time>
      </trkpt>
      <trkpt lat="43.68792" lon="6.7126">
        <ele>826</ele>
        <time>2010-01-31T10:11:00Z</time>
      </trkpt>
      <trkpt lat="43.6879" lon="6.71255">
        <ele>826</ele>
        <time>2010-01-31T10:11:02Z</time>
      </trkpt>
      <trkpt lat="43.68781" lon="6.71253">
        <ele>827</ele>
        <time>2010-01-31T10:11:11Z</time>
      </trkpt>
      <trkpt lat="43.68774" lon="6.71261">
        <ele>827</ele>
        <time>2010-01-31T10:11:13Z</time>
      </trkpt>
      <trkpt lat="43.68763" lon="6.71269">
        <ele>828</ele>
        <time>2010-01-31T10:11:15Z</time>
      </trkpt>
      <trkpt lat="43.68753" lon="6.71278">
        <ele>828</ele>
        <time>2010-01-31T10:11:17Z</time>
      </trkpt>
      <trkpt lat="43.68744" lon="6.71287">
        <ele>829</ele>
        <time>2010-01-31T10:11:20Z</time>
      </trkpt>
      <trkpt lat="43.68738" lon="6.71293">
        <ele>830</ele>
        <time>2010-01-31T10:11:22Z</time>
      </trkpt>
      <trkpt lat="43.68737" lon="6.71298">
        <ele>830</ele>
        <time>2010-01-31T10:11:24Z</time>
      </trkpt>
      <trkpt lat="43.68737" lon="6.71302">
        <ele>831</ele>
        <time>2010-01-31T10:11:27Z</time>
      </trkpt>
      <trkpt lat="43.68734" lon="6.71311">
        <ele>835</ele>
        <time>2010-01-31T10:11:38Z</time>
      </trkpt>
      <trkpt lat="43.68729" lon="6.71317">
        <ele>836</ele>
        <time>2010-01-31T10:11:40Z</time>
      </trkpt>
      <trkpt lat="43.68724" lon="6.71322">
        <ele>836</ele>
        <time>2010-01-31T10:11:42Z</time>
      </trkpt>
      <trkpt lat="43.68721" lon="6.71325">
        <ele>836</ele>
        <time>2010-01-31T10:11:44Z</time>
      </trkpt>
      <trkpt lat="43.68721" lon="6.71326">
        <ele>836</ele>
        <time>2010-01-31T10:11:46Z</time>
      </trkpt>
      <trkpt lat="43.68719" lon="6.71335">
        <ele>836</ele>
        <time>2010-01-31T10:11:58Z</time>
      </trkpt>
      <trkpt lat="43.68714" lon="6.71342">
        <ele>838</ele>
        <time>2010-01-31T10:12:00Z</time>
      </trkpt>
      <trkpt lat="43.68707" lon="6.71351">
        <ele>839</ele>
        <time>2010-01-31T10:12:02Z</time>
      </trkpt>
      <trkpt lat="43.68699" lon="6.71358">
        <ele>839</ele>
        <time>2010-01-31T10:12:05Z</time>
      </trkpt>
      <trkpt lat="43.68689" lon="6.71366">
        <ele>840</ele>
        <time>2010-01-31T10:12:07Z</time>
      </trkpt>
      <trkpt lat="43.68679" lon="6.71372">
        <ele>841</ele>
        <time>2010-01-31T10:12:09Z</time>
      </trkpt>
      <trkpt lat="43.68669" lon="6.71377">
        <ele>842</ele>
        <time>2010-01-31T10:12:11Z</time>
      </trkpt>
      <trkpt lat="43.6866" lon="6.71383">
        <ele>843</ele>
        <time>2010-01-31T10:12:14Z</time>
      </trkpt>
      <trkpt lat="43.6865" lon="6.71388">
        <ele>844</ele>
        <time>2010-01-31T10:12:16Z</time>
      </trkpt>
      <trkpt lat="43.68642" lon="6.71392">
        <ele>844</ele>
        <time>2010-01-31T10:12:18Z</time>
      </trkpt>
      <trkpt lat="43.68635" lon="6.71396">
        <ele>845</ele>
        <time>2010-01-31T10:12:20Z</time>
      </trkpt>
      <trkpt lat="43.68627" lon="6.714">
        <ele>845</ele>
        <time>2010-01-31T10:12:23Z</time>
      </trkpt>
      <trkpt lat="43.68618" lon="6.71405">
        <ele>845</ele>
        <time>2010-01-31T10:12:25Z</time>
      </trkpt>
      <trkpt lat="43.68606" lon="6.71409">
        <ele>845</ele>
        <time>2010-01-31T10:12:28Z</time>
      </trkpt>
      <trkpt lat="43.68593" lon="6.71413">
        <ele>844</ele>
        <time>2010-01-31T10:12:30Z</time>
      </trkpt>
      <trkpt lat="43.68581" lon="6.71416">
        <ele>844</ele>
        <time>2010-01-31T10:12:32Z</time>
      </trkpt>
      <trkpt lat="43.68568" lon="6.71417">
        <ele>844</ele>
        <time>2010-01-31T10:12:34Z</time>
      </trkpt>
      <trkpt lat="43.68557" lon="6.71419">
        <ele>843</ele>
        <time>2010-01-31T10:12:37Z</time>
      </trkpt>
      <trkpt lat="43.68548" lon="6.71422">
        <ele>841</ele>
        <time>2010-01-31T10:12:39Z</time>
      </trkpt>
      <trkpt lat="43.68539" lon="6.71427">
        <ele>840</ele>
        <time>2010-01-31T10:12:41Z</time>
      </trkpt>
      <trkpt lat="43.68529" lon="6.71432">
        <ele>839</ele>
        <time>2010-01-31T10:12:44Z</time>
      </trkpt>
      <trkpt lat="43.68519" lon="6.71437">
        <ele>838</ele>
        <time>2010-01-31T10:12:46Z</time>
      </trkpt>
      <trkpt lat="43.68509" lon="6.71442">
        <ele>837</ele>
        <time>2010-01-31T10:12:48Z</time>
      </trkpt>
      <trkpt lat="43.68504" lon="6.71441">
        <ele>836</ele>
        <time>2010-01-31T10:12:51Z</time>
      </trkpt>
      <trkpt lat="43.68503" lon="6.71441">
        <ele>835</ele>
        <time>2010-01-31T10:12:51Z</time>
      </trkpt>
      <trkpt lat="43.685" lon="6.71437">
        <ele>825</ele>
        <time>2010-01-31T10:13:02Z</time>
      </trkpt>
      <trkpt lat="43.68497" lon="6.71427">
        <ele>824</ele>
        <time>2010-01-31T10:13:05Z</time>
      </trkpt>
      <trkpt lat="43.68494" lon="6.71412">
        <ele>823</ele>
        <time>2010-01-31T10:13:09Z</time>
      </trkpt>
      <trkpt lat="43.68492" lon="6.71397">
        <ele>823</ele>
        <time>2010-01-31T10:13:11Z</time>
      </trkpt>
      <trkpt lat="43.68488" lon="6.7138">
        <ele>822</ele>
        <time>2010-01-31T10:13:13Z</time>
      </trkpt>
      <trkpt lat="43.68484" lon="6.71367">
        <ele>822</ele>
        <time>2010-01-31T10:13:16Z</time>
      </trkpt>
      <trkpt lat="43.6848" lon="6.71353">
        <ele>821</ele>
        <time>2010-01-31T10:13:18Z</time>
      </trkpt>
      <trkpt lat="43.68477" lon="6.71341">
        <ele>821</ele>
        <time>2010-01-31T10:13:20Z</time>
      </trkpt>
      <trkpt lat="43.68474" lon="6.7133">
        <ele>821</ele>
        <time>2010-01-31T10:13:22Z</time>
      </trkpt>
      <trkpt lat="43.68472" lon="6.7132">
        <ele>820</ele>
        <time>2010-01-31T10:13:24Z</time>
      </trkpt>
      <trkpt lat="43.6847" lon="6.71311">
        <ele>820</ele>
        <time>2010-01-31T10:13:27Z</time>
      </trkpt>
      <trkpt lat="43.68467" lon="6.71302">
        <ele>820</ele>
        <time>2010-01-31T10:13:29Z</time>
      </trkpt>
      <trkpt lat="43.68463" lon="6.71293">
        <ele>820</ele>
        <time>2010-01-31T10:13:31Z</time>
      </trkpt>
      <trkpt lat="43.6846" lon="6.71282">
        <ele>819</ele>
        <time>2010-01-31T10:13:34Z</time>
      </trkpt>
      <trkpt lat="43.68461" lon="6.7127">
        <ele>819</ele>
        <time>2010-01-31T10:13:36Z</time>
      </trkpt>
      <trkpt lat="43.68462" lon="6.71257">
        <ele>818</ele>
        <time>2010-01-31T10:13:38Z</time>
      </trkpt>
      <trkpt lat="43.68462" lon="6.71241">
        <ele>817</ele>
        <time>2010-01-31T10:13:40Z</time>
      </trkpt>
      <trkpt lat="43.68463" lon="6.71226">
        <ele>817</ele>
        <time>2010-01-31T10:13:42Z</time>
      </trkpt>
      <trkpt lat="43.68465" lon="6.71213">
        <ele>817</ele>
        <time>2010-01-31T10:13:44Z</time>
      </trkpt>
      <trkpt lat="43.68466" lon="6.71199">
        <ele>817</ele>
        <time>2010-01-31T10:13:47Z</time>
      </trkpt>
      <trkpt lat="43.6847" lon="6.71186">
        <ele>817</ele>
        <time>2010-01-31T10:13:49Z</time>
      </trkpt>
      <trkpt lat="43.68471" lon="6.71172">
        <ele>817</ele>
        <time>2010-01-31T10:13:51Z</time>
      </trkpt>
      <trkpt lat="43.68472" lon="6.71157">
        <ele>817</ele>
        <time>2010-01-31T10:13:53Z</time>
      </trkpt>
      <trkpt lat="43.68475" lon="6.71142">
        <ele>817</ele>
        <time>2010-01-31T10:13:55Z</time>
      </trkpt>
      <trkpt lat="43.6848" lon="6.71129">
        <ele>818</ele>
        <time>2010-01-31T10:13:58Z</time>
      </trkpt>
      <trkpt lat="43.68485" lon="6.71115">
        <ele>818</ele>
        <time>2010-01-31T10:14:00Z</time>
      </trkpt>
      <trkpt lat="43.68489" lon="6.71101">
        <ele>819</ele>
        <time>2010-01-31T10:14:02Z</time>
      </trkpt>
      <trkpt lat="43.68488" lon="6.71091">
        <ele>818</ele>
        <time>2010-01-31T10:14:04Z</time>
      </trkpt>
      <trkpt lat="43.68489" lon="6.71078">
        <ele>818</ele>
        <time>2010-01-31T10:14:06Z</time>
      </trkpt>
      <trkpt lat="43.68489" lon="6.71066">
        <ele>817</ele>
        <time>2010-01-31T10:14:08Z</time>
      </trkpt>
      <trkpt lat="43.68489" lon="6.71064">
        <ele>817</ele>
        <time>2010-01-31T10:14:09Z</time>
      </trkpt>
      <trkpt lat="43.68487" lon="6.71061">
        <ele>820</ele>
        <time>2010-01-31T10:14:59Z</time>
      </trkpt>
      <trkpt lat="43.6848" lon="6.71053">
        <ele>820</ele>
        <time>2010-01-31T10:15:05Z</time>
      </trkpt>
      <trkpt lat="43.68472" lon="6.71044">
        <ele>820</ele>
        <time>2010-01-31T10:15:07Z</time>
      </trkpt>
      <trkpt lat="43.68468" lon="6.7104">
        <ele>820</ele>
        <time>2010-01-31T10:15:09Z</time>
      </trkpt>
      <trkpt lat="43.68466" lon="6.71037">
        <ele>820</ele>
        <time>2010-01-31T10:15:12Z</time>
      </trkpt>
      <trkpt lat="43.68463" lon="6.71034">
        <ele>820</ele>
        <time>2010-01-31T10:15:15Z</time>
      </trkpt>
      <trkpt lat="43.68464" lon="6.71034">
        <ele>820</ele>
        <time>2010-01-31T10:15:17Z</time>
      </trkpt>
      <trkpt lat="43.68464" lon="6.71034">
        <ele>820</ele>
        <time>2010-01-31T10:15:19Z</time>
      </trkpt>
      <trkpt lat="43.68464" lon="6.71035">
        <ele>820</ele>
        <time>2010-01-31T10:15:21Z</time>
      </trkpt>
      <trkpt lat="43.68465" lon="6.71035">
        <ele>820</ele>
        <time>2010-01-31T10:15:23Z</time>
      </trkpt>
      <trkpt lat="43.68465" lon="6.71036">
        <ele>820</ele>
        <time>2010-01-31T10:15:26Z</time>
      </trkpt>
      <trkpt lat="43.68463" lon="6.71034">
        <ele>819</ele>
        <time>2010-01-31T10:16:19Z</time>
      </trkpt>
      <trkpt lat="43.68457" lon="6.71021">
        <ele>817</ele>
        <time>2010-01-31T10:16:21Z</time>
      </trkpt>
      <trkpt lat="43.68452" lon="6.71006">
        <ele>816</ele>
        <time>2010-01-31T10:16:23Z</time>
      </trkpt>
      <trkpt lat="43.68449" lon="6.7099">
        <ele>816</ele>
        <time>2010-01-31T10:16:25Z</time>
      </trkpt>
      <trkpt lat="43.68447" lon="6.70976">
        <ele>815</ele>
        <time>2010-01-31T10:16:28Z</time>
      </trkpt>
      <trkpt lat="43.68446" lon="6.70968">
        <ele>815</ele>
        <time>2010-01-31T10:16:30Z</time>
      </trkpt>
      <trkpt lat="43.68443" lon="6.7096">
        <ele>817</ele>
        <time>2010-01-31T10:17:24Z</time>
      </trkpt>
      <trkpt lat="43.68442" lon="6.70954">
        <ele>818</ele>
        <time>2010-01-31T10:17:27Z</time>
      </trkpt>
      <trkpt lat="43.68441" lon="6.70945">
        <ele>818</ele>
        <time>2010-01-31T10:17:29Z</time>
      </trkpt>
      <trkpt lat="43.6844" lon="6.70938">
        <ele>818</ele>
        <time>2010-01-31T10:17:31Z</time>
      </trkpt>
      <trkpt lat="43.68439" lon="6.70928">
        <ele>818</ele>
        <time>2010-01-31T10:17:34Z</time>
      </trkpt>
      <trkpt lat="43.68437" lon="6.7091">
        <ele>818</ele>
        <time>2010-01-31T10:17:36Z</time>
      </trkpt>
      <trkpt lat="43.68435" lon="6.70896">
        <ele>817</ele>
        <time>2010-01-31T10:17:38Z</time>
      </trkpt>
      <trkpt lat="43.68435" lon="6.70884">
        <ele>817</ele>
        <time>2010-01-31T10:17:40Z</time>
      </trkpt>
      <trkpt lat="43.68437" lon="6.70874">
        <ele>816</ele>
        <time>2010-01-31T10:17:42Z</time>
      </trkpt>
      <trkpt lat="43.68433" lon="6.70862">
        <ele>817</ele>
        <time>2010-01-31T10:17:56Z</time>
      </trkpt>
      <trkpt lat="43.68426" lon="6.70856">
        <ele>817</ele>
        <time>2010-01-31T10:18:06Z</time>
      </trkpt>
      <trkpt lat="43.68421" lon="6.70852">
        <ele>817</ele>
        <time>2010-01-31T10:18:17Z</time>
      </trkpt>
      <trkpt lat="43.68413" lon="6.70844">
        <ele>818</ele>
        <time>2010-01-31T10:18:22Z</time>
      </trkpt>
      <trkpt lat="43.68408" lon="6.7084">
        <ele>819</ele>
        <time>2010-01-31T10:18:24Z</time>
      </trkpt>
      <trkpt lat="43.68399" lon="6.70836">
        <ele>820</ele>
        <time>2010-01-31T10:18:26Z</time>
      </trkpt>
      <trkpt lat="43.68386" lon="6.70829">
        <ele>822</ele>
        <time>2010-01-31T10:18:28Z</time>
      </trkpt>
      <trkpt lat="43.68374" lon="6.70821">
        <ele>823</ele>
        <time>2010-01-31T10:18:31Z</time>
      </trkpt>
      <trkpt lat="43.68363" lon="6.70813">
        <ele>824</ele>
        <time>2010-01-31T10:18:33Z</time>
      </trkpt>
      <trkpt lat="43.68352" lon="6.70806">
        <ele>825</ele>
        <time>2010-01-31T10:18:35Z</time>
      </trkpt>
      <trkpt lat="43.68342" lon="6.70799">
        <ele>826</ele>
        <time>2010-01-31T10:18:38Z</time>
      </trkpt>
      <trkpt lat="43.68334" lon="6.70793">
        <ele>827</ele>
        <time>2010-01-31T10:18:40Z</time>
      </trkpt>
      <trkpt lat="43.68328" lon="6.70787">
        <ele>828</ele>
        <time>2010-01-31T10:18:42Z</time>
      </trkpt>
      <trkpt lat="43.68321" lon="6.7078">
        <ele>828</ele>
        <time>2010-01-31T10:18:44Z</time>
      </trkpt>
      <trkpt lat="43.68314" lon="6.7077">
        <ele>828</ele>
        <time>2010-01-31T10:18:47Z</time>
      </trkpt>
      <trkpt lat="43.68309" lon="6.7076">
        <ele>828</ele>
        <time>2010-01-31T10:18:49Z</time>
      </trkpt>
      <trkpt lat="43.68306" lon="6.70756">
        <ele>828</ele>
        <time>2010-01-31T10:18:51Z</time>
      </trkpt>
      <trkpt lat="43.68301" lon="6.70753">
        <ele>823</ele>
        <time>2010-01-31T10:19:17Z</time>
      </trkpt>
      <trkpt lat="43.68299" lon="6.70751">
        <ele>823</ele>
        <time>2010-01-31T10:19:26Z</time>
      </trkpt>
      <trkpt lat="43.68295" lon="6.70751">
        <ele>824</ele>
        <time>2010-01-31T10:20:09Z</time>
      </trkpt>
      <trkpt lat="43.68291" lon="6.70748">
        <ele>825</ele>
        <time>2010-01-31T10:20:21Z</time>
      </trkpt>
      <trkpt lat="43.6828" lon="6.7075">
        <ele>825</ele>
        <time>2010-01-31T10:20:32Z</time>
      </trkpt>
      <trkpt lat="43.68277" lon="6.70751">
        <ele>825</ele>
        <time>2010-01-31T10:20:37Z</time>
      </trkpt>
      <trkpt lat="43.68274" lon="6.70754">
        <ele>826</ele>
        <time>2010-01-31T10:20:39Z</time>
      </trkpt>
      <trkpt lat="43.68272" lon="6.70757">
        <ele>826</ele>
        <time>2010-01-31T10:20:43Z</time>
      </trkpt>
      <trkpt lat="43.68271" lon="6.70758">
        <ele>826</ele>
        <time>2010-01-31T10:20:45Z</time>
      </trkpt>
      <trkpt lat="43.68269" lon="6.70762">
        <ele>826</ele>
        <time>2010-01-31T10:20:51Z</time>
      </trkpt>
      <trkpt lat="43.68266" lon="6.70767">
        <ele>829</ele>
        <time>2010-01-31T10:21:09Z</time>
      </trkpt>
      <trkpt lat="43.6826" lon="6.70763">
        <ele>830</ele>
        <time>2010-01-31T10:21:18Z</time>
      </trkpt>
      <trkpt lat="43.68255" lon="6.70762">
        <ele>829</ele>
        <time>2010-01-31T10:21:20Z</time>
      </trkpt>
      <trkpt lat="43.6825" lon="6.7076">
        <ele>829</ele>
        <time>2010-01-31T10:21:22Z</time>
      </trkpt>
      <trkpt lat="43.68246" lon="6.70759">
        <ele>829</ele>
        <time>2010-01-31T10:21:24Z</time>
      </trkpt>
      <trkpt lat="43.68243" lon="6.70758">
        <ele>827</ele>
        <time>2010-01-31T10:21:27Z</time>
      </trkpt>
      <trkpt lat="43.68241" lon="6.70757">
        <ele>826</ele>
        <time>2010-01-31T10:21:29Z</time>
      </trkpt>
      <trkpt lat="43.68239" lon="6.70757">
        <ele>826</ele>
        <time>2010-01-31T10:21:31Z</time>
      </trkpt>
      <trkpt lat="43.68239" lon="6.70758">
        <ele>826</ele>
        <time>2010-01-31T10:21:34Z</time>
      </trkpt>
      <trkpt lat="43.68237" lon="6.70758">
        <ele>826</ele>
        <time>2010-01-31T10:21:39Z</time>
      </trkpt>
      <trkpt lat="43.68238" lon="6.70758">
        <ele>826</ele>
        <time>2010-01-31T10:21:39Z</time>
      </trkpt>
      <trkpt lat="43.68239" lon="6.70759">
        <ele>827</ele>
        <time>2010-01-31T10:21:54Z</time>
      </trkpt>
      <trkpt lat="43.68239" lon="6.70759">
        <ele>827</ele>
        <time>2010-01-31T10:21:55Z</time>
      </trkpt>
      <trkpt lat="43.68232" lon="6.70771">
        <ele>828</ele>
        <time>2010-01-31T10:22:28Z</time>
      </trkpt>
      <trkpt lat="43.68232" lon="6.70776">
        <ele>828</ele>
        <time>2010-01-31T10:22:31Z</time>
      </trkpt>
      <trkpt lat="43.68231" lon="6.70779">
        <ele>828</ele>
        <time>2010-01-31T10:22:33Z</time>
      </trkpt>
      <trkpt lat="43.68231" lon="6.70781">
        <ele>828</ele>
        <time>2010-01-31T10:22:35Z</time>
      </trkpt>
      <trkpt lat="43.68231" lon="6.70783">
        <ele>828</ele>
        <time>2010-01-31T10:22:37Z</time>
      </trkpt>
      <trkpt lat="43.68231" lon="6.70784">
        <ele>829</ele>
        <time>2010-01-31T10:22:40Z</time>
      </trkpt>
      <trkpt lat="43.68231" lon="6.70786">
        <ele>829</ele>
        <time>2010-01-31T10:22:44Z</time>
      </trkpt>
      <trkpt lat="43.68232" lon="6.70786">
        <ele>829</ele>
        <time>2010-01-31T10:22:45Z</time>
      </trkpt>
      <trkpt lat="43.68237" lon="6.70772">
        <ele>822</ele>
        <time>2010-01-31T10:25:13Z</time>
      </trkpt>
      <trkpt lat="43.68237" lon="6.70772">
        <ele>821</ele>
        <time>2010-01-31T10:25:16Z</time>
      </trkpt>
      <trkpt lat="43.68237" lon="6.70772">
        <ele>821</ele>
        <time>2010-01-31T10:25:17Z</time>
      </trkpt>
      <trkpt lat="43.68247" lon="6.70769">
        <ele>812</ele>
        <time>2010-01-31T10:26:02Z</time>
      </trkpt>
      <trkpt lat="43.6825" lon="6.70768">
        <ele>812</ele>
        <time>2010-01-31T10:26:04Z</time>
      </trkpt>
      <trkpt lat="43.68255" lon="6.70766">
        <ele>813</ele>
        <time>2010-01-31T10:26:09Z</time>
      </trkpt>
      <trkpt lat="43.68257" lon="6.70764">
        <ele>813</ele>
        <time>2010-01-31T10:26:11Z</time>
      </trkpt>
      <trkpt lat="43.68258" lon="6.70762">
        <ele>814</ele>
        <time>2010-01-31T10:26:13Z</time>
      </trkpt>
      <trkpt lat="43.6826" lon="6.7076">
        <ele>814</ele>
        <time>2010-01-31T10:26:16Z</time>
      </trkpt>
      <trkpt lat="43.6826" lon="6.70758">
        <ele>815</ele>
        <time>2010-01-31T10:26:18Z</time>
      </trkpt>
      <trkpt lat="43.68261" lon="6.70755">
        <ele>815</ele>
        <time>2010-01-31T10:26:20Z</time>
      </trkpt>
      <trkpt lat="43.68261" lon="6.70752">
        <ele>816</ele>
        <time>2010-01-31T10:26:22Z</time>
      </trkpt>
      <trkpt lat="43.68261" lon="6.7075">
        <ele>816</ele>
        <time>2010-01-31T10:26:24Z</time>
      </trkpt>
      <trkpt lat="43.6826" lon="6.70746">
        <ele>817</ele>
        <time>2010-01-31T10:26:27Z</time>
      </trkpt>
      <trkpt lat="43.68259" lon="6.70743">
        <ele>817</ele>
        <time>2010-01-31T10:26:29Z</time>
      </trkpt>
      <trkpt lat="43.68258" lon="6.70739">
        <ele>817</ele>
        <time>2010-01-31T10:26:31Z</time>
      </trkpt>
      <trkpt lat="43.68257" lon="6.70736">
        <ele>818</ele>
        <time>2010-01-31T10:26:34Z</time>
      </trkpt>
      <trkpt lat="43.68256" lon="6.70732">
        <ele>818</ele>
        <time>2010-01-31T10:26:36Z</time>
      </trkpt>
      <trkpt lat="43.68255" lon="6.70725">
        <ele>818</ele>
        <time>2010-01-31T10:26:41Z</time>
      </trkpt>
      <trkpt lat="43.68253" lon="6.70718">
        <ele>819</ele>
        <time>2010-01-31T10:26:45Z</time>
      </trkpt>
      <trkpt lat="43.68252" lon="6.70714">
        <ele>819</ele>
        <time>2010-01-31T10:26:47Z</time>
      </trkpt>
      <trkpt lat="43.68251" lon="6.70706">
        <ele>819</ele>
        <time>2010-01-31T10:26:52Z</time>
      </trkpt>
      <trkpt lat="43.68251" lon="6.70694">
        <ele>819</ele>
        <time>2010-01-31T10:26:59Z</time>
      </trkpt>
      <trkpt lat="43.68251" lon="6.70691">
        <ele>819</ele>
        <time>2010-01-31T10:27:01Z</time>
      </trkpt>
      <trkpt lat="43.68252" lon="6.70688">
        <ele>819</ele>
        <time>2010-01-31T10:27:03Z</time>
      </trkpt>
      <trkpt lat="43.68252" lon="6.70685">
        <ele>820</ele>
        <time>2010-01-31T10:27:05Z</time>
      </trkpt>
      <trkpt lat="43.68252" lon="6.70681">
        <ele>820</ele>
        <time>2010-01-31T10:27:08Z</time>
      </trkpt>
      <trkpt lat="43.6825" lon="6.70677">
        <ele>821</ele>
        <time>2010-01-31T10:27:10Z</time>
      </trkpt>
      <trkpt lat="43.68246" lon="6.70671">
        <ele>821</ele>
        <time>2010-01-31T10:27:12Z</time>
      </trkpt>
      <trkpt lat="43.68243" lon="6.70665">
        <ele>822</ele>
        <time>2010-01-31T10:27:14Z</time>
      </trkpt>
      <trkpt lat="43.68237" lon="6.70655">
        <ele>822</ele>
        <time>2010-01-31T10:27:16Z</time>
      </trkpt>
      <trkpt lat="43.68232" lon="6.70648">
        <ele>823</ele>
        <time>2010-01-31T10:27:19Z</time>
      </trkpt>
      <trkpt lat="43.68227" lon="6.7064">
        <ele>823</ele>
        <time>2010-01-31T10:27:21Z</time>
      </trkpt>
      <trkpt lat="43.68223" lon="6.70633">
        <ele>824</ele>
        <time>2010-01-31T10:27:23Z</time>
      </trkpt>
      <trkpt lat="43.68218" lon="6.70627">
        <ele>824</ele>
        <time>2010-01-31T10:27:25Z</time>
      </trkpt>
      <trkpt lat="43.68213" lon="6.70623">
        <ele>824</ele>
        <time>2010-01-31T10:27:28Z</time>
      </trkpt>
      <trkpt lat="43.68207" lon="6.7062">
        <ele>825</ele>
        <time>2010-01-31T10:27:30Z</time>
      </trkpt>
      <trkpt lat="43.68201" lon="6.70619">
        <ele>826</ele>
        <time>2010-01-31T10:27:32Z</time>
      </trkpt>
      <trkpt lat="43.68195" lon="6.70617">
        <ele>826</ele>
        <time>2010-01-31T10:27:34Z</time>
      </trkpt>
      <trkpt lat="43.68191" lon="6.70616">
        <ele>827</ele>
        <time>2010-01-31T10:27:37Z</time>
      </trkpt>
      <trkpt lat="43.6819" lon="6.70615">
        <ele>827</ele>
        <time>2010-01-31T10:27:37Z</time>
      </trkpt>
      <trkpt lat="43.68182" lon="6.70611">
        <ele>827</ele>
        <time>2010-01-31T10:27:50Z</time>
      </trkpt>
      <trkpt lat="43.6818" lon="6.7061">
        <ele>827</ele>
        <time>2010-01-31T10:27:52Z</time>
      </trkpt>
      <trkpt lat="43.68179" lon="6.70609">
        <ele>827</ele>
        <time>2010-01-31T10:27:53Z</time>
      </trkpt>
      <trkpt lat="43.68166" lon="6.70607">
        <ele>824</ele>
        <time>2010-01-31T10:28:06Z</time>
      </trkpt>
      <trkpt lat="43.68157" lon="6.70606">
        <ele>824</ele>
        <time>2010-01-31T10:28:08Z</time>
      </trkpt>
      <trkpt lat="43.68149" lon="6.70607">
        <ele>823</ele>
        <time>2010-01-31T10:28:10Z</time>
      </trkpt>
      <trkpt lat="43.68142" lon="6.70608">
        <ele>822</ele>
        <time>2010-01-31T10:28:12Z</time>
      </trkpt>
      <trkpt lat="43.68137" lon="6.70609">
        <ele>822</ele>
        <time>2010-01-31T10:28:15Z</time>
      </trkpt>
      <trkpt lat="43.68131" lon="6.7061">
        <ele>822</ele>
        <time>2010-01-31T10:28:17Z</time>
      </trkpt>
      <trkpt lat="43.68125" lon="6.7061">
        <ele>821</ele>
        <time>2010-01-31T10:28:19Z</time>
      </trkpt>
      <trkpt lat="43.6812" lon="6.7061">
        <ele>821</ele>
        <time>2010-01-31T10:28:22Z</time>
      </trkpt>
      <trkpt lat="43.68118" lon="6.7061">
        <ele>821</ele>
        <time>2010-01-31T10:28:24Z</time>
      </trkpt>
      <trkpt lat="43.68108" lon="6.70615">
        <ele>822</ele>
        <time>2010-01-31T10:28:48Z</time>
      </trkpt>
      <trkpt lat="43.68106" lon="6.70617">
        <ele>821</ele>
        <time>2010-01-31T10:28:50Z</time>
      </trkpt>
      <trkpt lat="43.68104" lon="6.70619">
        <ele>821</ele>
        <time>2010-01-31T10:28:55Z</time>
      </trkpt>
      <trkpt lat="43.68104" lon="6.7062">
        <ele>821</ele>
        <time>2010-01-31T10:28:58Z</time>
      </trkpt>
      <trkpt lat="43.68104" lon="6.70621">
        <ele>822</ele>
        <time>2010-01-31T10:28:59Z</time>
      </trkpt>
      <trkpt lat="43.68097" lon="6.70637">
        <ele>829</ele>
        <time>2010-01-31T10:29:31Z</time>
      </trkpt>
      <trkpt lat="43.68097" lon="6.70637">
        <ele>829</ele>
        <time>2010-01-31T10:29:33Z</time>
      </trkpt>
      <trkpt lat="43.68097" lon="6.70637">
        <ele>829</ele>
        <time>2010-01-31T10:29:34Z</time>
      </trkpt>
      <trkpt lat="43.68097" lon="6.70656">
        <ele>837</ele>
        <time>2010-01-31T10:31:12Z</time>
      </trkpt>
      <trkpt lat="43.68098" lon="6.70657">
        <ele>837</ele>
        <time>2010-01-31T10:31:14Z</time>
      </trkpt>
      <trkpt lat="43.681" lon="6.70658">
        <ele>837</ele>
        <time>2010-01-31T10:31:16Z</time>
      </trkpt>
      <trkpt lat="43.68102" lon="6.70659">
        <ele>837</ele>
        <time>2010-01-31T10:31:18Z</time>
      </trkpt>
      <trkpt lat="43.68104" lon="6.7066">
        <ele>837</ele>
        <time>2010-01-31T10:31:20Z</time>
      </trkpt>
      <trkpt lat="43.68106" lon="6.70661">
        <ele>838</ele>
        <time>2010-01-31T10:31:22Z</time>
      </trkpt>
      <trkpt lat="43.68109" lon="6.70662">
        <ele>838</ele>
        <time>2010-01-31T10:31:24Z</time>
      </trkpt>
      <trkpt lat="43.68113" lon="6.70664">
        <ele>839</ele>
        <time>2010-01-31T10:31:27Z</time>
      </trkpt>
      <trkpt lat="43.6812" lon="6.70668">
        <ele>840</ele>
        <time>2010-01-31T10:31:31Z</time>
      </trkpt>
      <trkpt lat="43.68125" lon="6.7067">
        <ele>841</ele>
        <time>2010-01-31T10:31:33Z</time>
      </trkpt>
      <trkpt lat="43.68129" lon="6.70671">
        <ele>841</ele>
        <time>2010-01-31T10:31:35Z</time>
      </trkpt>
      <trkpt lat="43.68133" lon="6.70673">
        <ele>841</ele>
        <time>2010-01-31T10:31:37Z</time>
      </trkpt>
      <trkpt lat="43.68138" lon="6.70674">
        <ele>840</ele>
        <time>2010-01-31T10:31:39Z</time>
      </trkpt>
      <trkpt lat="43.68142" lon="6.70675">
        <ele>840</ele>
        <time>2010-01-31T10:31:42Z</time>
      </trkpt>
      <trkpt lat="43.68147" lon="6.70676">
        <ele>840</ele>
        <time>2010-01-31T10:31:44Z</time>
      </trkpt>
      <trkpt lat="43.68152" lon="6.70677">
        <ele>839</ele>
        <time>2010-01-31T10:31:46Z</time>
      </trkpt>
      <trkpt lat="43.68157" lon="6.70678">
        <ele>839</ele>
        <time>2010-01-31T10:31:48Z</time>
      </trkpt>
      <trkpt lat="43.68162" lon="6.70678">
        <ele>838</ele>
        <time>2010-01-31T10:31:50Z</time>
      </trkpt>
      <trkpt lat="43.68166" lon="6.70679">
        <ele>838</ele>
        <time>2010-01-31T10:31:52Z</time>
      </trkpt>
      <trkpt lat="43.68171" lon="6.7068">
        <ele>838</ele>
        <time>2010-01-31T10:31:54Z</time>
      </trkpt>
      <trkpt lat="43.68175" lon="6.7068">
        <ele>837</ele>
        <time>2010-01-31T10:31:56Z</time>
      </trkpt>
      <trkpt lat="43.68178" lon="6.70681">
        <ele>837</ele>
        <time>2010-01-31T10:31:59Z</time>
      </trkpt>
      <trkpt lat="43.68181" lon="6.70681">
        <ele>836</ele>
        <time>2010-01-31T10:32:01Z</time>
      </trkpt>
      <trkpt lat="43.68184" lon="6.70682">
        <ele>836</ele>
        <time>2010-01-31T10:32:03Z</time>
      </trkpt>
      <trkpt lat="43.68185" lon="6.70683">
        <ele>836</ele>
        <time>2010-01-31T10:32:05Z</time>
      </trkpt>
      <trkpt lat="43.68186" lon="6.70684">
        <ele>836</ele>
        <time>2010-01-31T10:32:07Z</time>
      </trkpt>
      <trkpt lat="43.68187" lon="6.70685">
        <ele>836</ele>
        <time>2010-01-31T10:32:09Z</time>
      </trkpt>
      <trkpt lat="43.68188" lon="6.70688">
        <ele>836</ele>
        <time>2010-01-31T10:32:12Z</time>
      </trkpt>
      <trkpt lat="43.6819" lon="6.70692">
        <ele>836</ele>
        <time>2010-01-31T10:32:14Z</time>
      </trkpt>
      <trkpt lat="43.68193" lon="6.70698">
        <ele>836</ele>
        <time>2010-01-31T10:32:18Z</time>
      </trkpt>
      <trkpt lat="43.68193" lon="6.70701">
        <ele>836</ele>
        <time>2010-01-31T10:32:20Z</time>
      </trkpt>
      <trkpt lat="43.68194" lon="6.70706">
        <ele>836</ele>
        <time>2010-01-31T10:32:22Z</time>
      </trkpt>
      <trkpt lat="43.68194" lon="6.7071">
        <ele>836</ele>
        <time>2010-01-31T10:32:24Z</time>
      </trkpt>
      <trkpt lat="43.68192" lon="6.70716">
        <ele>837</ele>
        <time>2010-01-31T10:32:27Z</time>
      </trkpt>
      <trkpt lat="43.68191" lon="6.70723">
        <ele>838</ele>
        <time>2010-01-31T10:32:29Z</time>
      </trkpt>
      <trkpt lat="43.68189" lon="6.70731">
        <ele>840</ele>
        <time>2010-01-31T10:32:31Z</time>
      </trkpt>
      <trkpt lat="43.68188" lon="6.70743">
        <ele>842</ele>
        <time>2010-01-31T10:32:35Z</time>
      </trkpt>
      <trkpt lat="43.68186" lon="6.70754">
        <ele>843</ele>
        <time>2010-01-31T10:32:38Z</time>
      </trkpt>
      <trkpt lat="43.68184" lon="6.70762">
        <ele>844</ele>
        <time>2010-01-31T10:32:40Z</time>
      </trkpt>
      <trkpt lat="43.68182" lon="6.70772">
        <ele>844</ele>
        <time>2010-01-31T10:32:43Z</time>
      </trkpt>
      <trkpt lat="43.68181" lon="6.70785">
        <ele>844</ele>
        <time>2010-01-31T10:32:47Z</time>
      </trkpt>
      <trkpt lat="43.6818" lon="6.7079">
        <ele>844</ele>
        <time>2010-01-31T10:32:50Z</time>
      </trkpt>
      <trkpt lat="43.6818" lon="6.70794">
        <ele>844</ele>
        <time>2010-01-31T10:32:52Z</time>
      </trkpt>
      <trkpt lat="43.68179" lon="6.70799">
        <ele>845</ele>
        <time>2010-01-31T10:32:54Z</time>
      </trkpt>
      <trkpt lat="43.68179" lon="6.70802">
        <ele>844</ele>
        <time>2010-01-31T10:32:57Z</time>
      </trkpt>
      <trkpt lat="43.68179" lon="6.70806">
        <ele>844</ele>
        <time>2010-01-31T10:32:59Z</time>
      </trkpt>
      <trkpt lat="43.68179" lon="6.70809">
        <ele>845</ele>
        <time>2010-01-31T10:33:01Z</time>
      </trkpt>
      <trkpt lat="43.68179" lon="6.70813">
        <ele>845</ele>
        <time>2010-01-31T10:33:05Z</time>
      </trkpt>
      <trkpt lat="43.68179" lon="6.70811">
        <ele>845</ele>
        <time>2010-01-31T10:33:07Z</time>
      </trkpt>
      <trkpt lat="43.68179" lon="6.7081">
        <ele>845</ele>
        <time>2010-01-31T10:33:09Z</time>
      </trkpt>
      <trkpt lat="43.68179" lon="6.70809">
        <ele>845</ele>
        <time>2010-01-31T10:33:11Z</time>
      </trkpt>
      <trkpt lat="43.6817" lon="6.70813">
        <ele>847</ele>
        <time>2010-01-31T10:33:38Z</time>
      </trkpt>
      <trkpt lat="43.68166" lon="6.70813">
        <ele>847</ele>
        <time>2010-01-31T10:33:42Z</time>
      </trkpt>
      <trkpt lat="43.68164" lon="6.70813">
        <ele>846</ele>
        <time>2010-01-31T10:33:44Z</time>
      </trkpt>
      <trkpt lat="43.68162" lon="6.70812">
        <ele>846</ele>
        <time>2010-01-31T10:33:47Z</time>
      </trkpt>
      <trkpt lat="43.68161" lon="6.70812">
        <ele>845</ele>
        <time>2010-01-31T10:33:51Z</time>
      </trkpt>
      <trkpt lat="43.68161" lon="6.70813">
        <ele>845</ele>
        <time>2010-01-31T10:33:53Z</time>
      </trkpt>
      <trkpt lat="43.68169" lon="6.70819">
        <ele>845</ele>
        <time>2010-01-31T10:34:13Z</time>
      </trkpt>
      <trkpt lat="43.68174" lon="6.70825">
        <ele>846</ele>
        <time>2010-01-31T10:34:18Z</time>
      </trkpt>
      <trkpt lat="43.68178" lon="6.70831">
        <ele>848</ele>
        <time>2010-01-31T10:34:20Z</time>
      </trkpt>
      <trkpt lat="43.68181" lon="6.70837">
        <ele>849</ele>
        <time>2010-01-31T10:34:22Z</time>
      </trkpt>
      <trkpt lat="43.68183" lon="6.70842">
        <ele>851</ele>
        <time>2010-01-31T10:34:25Z</time>
      </trkpt>
      <trkpt lat="43.68185" lon="6.70848">
        <ele>852</ele>
        <time>2010-01-31T10:34:27Z</time>
      </trkpt>
      <trkpt lat="43.68185" lon="6.70856">
        <ele>854</ele>
        <time>2010-01-31T10:34:29Z</time>
      </trkpt>
      <trkpt lat="43.68188" lon="6.70865">
        <ele>855</ele>
        <time>2010-01-31T10:34:31Z</time>
      </trkpt>
      <trkpt lat="43.6819" lon="6.70873">
        <ele>857</ele>
        <time>2010-01-31T10:34:33Z</time>
      </trkpt>
      <trkpt lat="43.68193" lon="6.7088">
        <ele>858</ele>
        <time>2010-01-31T10:34:35Z</time>
      </trkpt>
      <trkpt lat="43.68195" lon="6.70889">
        <ele>860</ele>
        <time>2010-01-31T10:34:37Z</time>
      </trkpt>
      <trkpt lat="43.68197" lon="6.70896">
        <ele>861</ele>
        <time>2010-01-31T10:34:39Z</time>
      </trkpt>
      <trkpt lat="43.68199" lon="6.70901">
        <ele>862</ele>
        <time>2010-01-31T10:34:42Z</time>
      </trkpt>
      <trkpt lat="43.68198" lon="6.70903">
        <ele>862</ele>
        <time>2010-01-31T10:34:42Z</time>
      </trkpt>
      <trkpt lat="43.68199" lon="6.70909">
        <ele>832</ele>
        <time>2010-01-31T10:35:04Z</time>
      </trkpt>
      <trkpt lat="43.68204" lon="6.70892">
        <ele>832</ele>
        <time>2010-01-31T10:35:07Z</time>
      </trkpt>
      <trkpt lat="43.68211" lon="6.7088">
        <ele>807</ele>
        <time>2010-01-31T10:35:09Z</time>
      </trkpt>
      <trkpt lat="43.68223" lon="6.70874">
        <ele>796</ele>
        <time>2010-01-31T10:35:12Z</time>
      </trkpt>
      <trkpt lat="43.68228" lon="6.70879">
        <ele>788</ele>
        <time>2010-01-31T10:35:14Z</time>
      </trkpt>
      <trkpt lat="43.68231" lon="6.70888">
        <ele>780</ele>
        <time>2010-01-31T10:35:17Z</time>
      </trkpt>
      <trkpt lat="43.68229" lon="6.70907">
        <ele>769</ele>
        <time>2010-01-31T10:35:19Z</time>
      </trkpt>
      <trkpt lat="43.68226" lon="6.70919">
        <ele>761</ele>
        <time>2010-01-31T10:35:21Z</time>
      </trkpt>
      <trkpt lat="43.68222" lon="6.70931">
        <ele>752</ele>
        <time>2010-01-31T10:35:23Z</time>
      </trkpt>
      <trkpt lat="43.68216" lon="6.70943">
        <ele>744</ele>
        <time>2010-01-31T10:35:25Z</time>
      </trkpt>
      <trkpt lat="43.6821" lon="6.70955">
        <ele>736</ele>
        <time>2010-01-31T10:35:27Z</time>
      </trkpt>
      <trkpt lat="43.68206" lon="6.70969">
        <ele>726</ele>
        <time>2010-01-31T10:35:29Z</time>
      </trkpt>
      <trkpt lat="43.68198" lon="6.70988">
        <ele>711</ele>
        <time>2010-01-31T10:35:32Z</time>
      </trkpt>
      <trkpt lat="43.68191" lon="6.71006">
        <ele>697</ele>
        <time>2010-01-31T10:35:34Z</time>
      </trkpt>
      <trkpt lat="43.68179" lon="6.71032">
        <ele>683</ele>
        <time>2010-01-31T10:35:36Z</time>
      </trkpt>
      <trkpt lat="43.68175" lon="6.71048">
        <ele>670</ele>
        <time>2010-01-31T10:35:38Z</time>
      </trkpt>
      <trkpt lat="43.6817" lon="6.71062">
        <ele>659</ele>
        <time>2010-01-31T10:35:41Z</time>
      </trkpt>
      <trkpt lat="43.68166" lon="6.71075">
        <ele>650</ele>
        <time>2010-01-31T10:35:43Z</time>
      </trkpt>
      <trkpt lat="43.68162" lon="6.71086">
        <ele>642</ele>
        <time>2010-01-31T10:35:45Z</time>
      </trkpt>
      <trkpt lat="43.68155" lon="6.71098">
        <ele>635</ele>
        <time>2010-01-31T10:35:47Z</time>
      </trkpt>
      <trkpt lat="43.6815" lon="6.7111">
        <ele>628</ele>
        <time>2010-01-31T10:35:49Z</time>
      </trkpt>
      <trkpt lat="43.68146" lon="6.71121">
        <ele>622</ele>
        <time>2010-01-31T10:35:52Z</time>
      </trkpt>
      <trkpt lat="43.68143" lon="6.71127">
        <ele>618</ele>
        <time>2010-01-31T10:35:53Z</time>
      </trkpt>
      <trkpt lat="43.6814" lon="6.71134">
        <ele>610</ele>
        <time>2010-01-31T10:35:59Z</time>
      </trkpt>
      <trkpt lat="43.68134" lon="6.71151">
        <ele>609</ele>
        <time>2010-01-31T10:36:01Z</time>
      </trkpt>
      <trkpt lat="43.68134" lon="6.71152">
        <ele>609</ele>
        <time>2010-01-31T10:36:02Z</time>
      </trkpt>
      <trkpt lat="43.68133" lon="6.71156">
        <ele>606</ele>
        <time>2010-01-31T10:36:07Z</time>
      </trkpt>
      <trkpt lat="43.6813" lon="6.71163">
        <ele>605</ele>
        <time>2010-01-31T10:36:09Z</time>
      </trkpt>
      <trkpt lat="43.68127" lon="6.71173">
        <ele>604</ele>
        <time>2010-01-31T10:36:11Z</time>
      </trkpt>
      <trkpt lat="43.68123" lon="6.71183">
        <ele>603</ele>
        <time>2010-01-31T10:36:13Z</time>
      </trkpt>
      <trkpt lat="43.6812" lon="6.71196">
        <ele>601</ele>
        <time>2010-01-31T10:36:16Z</time>
      </trkpt>
      <trkpt lat="43.68115" lon="6.7121">
        <ele>601</ele>
        <time>2010-01-31T10:36:18Z</time>
      </trkpt>
      <trkpt lat="43.68114" lon="6.71213">
        <ele>601</ele>
        <time>2010-01-31T10:36:19Z</time>
      </trkpt>
      <trkpt lat="43.68111" lon="6.71218">
        <ele>597</ele>
        <time>2010-01-31T10:36:26Z</time>
      </trkpt>
      <trkpt lat="43.68106" lon="6.71223">
        <ele>597</ele>
        <time>2010-01-31T10:36:28Z</time>
      </trkpt>
      <trkpt lat="43.68102" lon="6.71229">
        <ele>597</ele>
        <time>2010-01-31T10:36:30Z</time>
      </trkpt>
      <trkpt lat="43.68095" lon="6.71237">
        <ele>593</ele>
        <time>2010-01-31T10:36:33Z</time>
      </trkpt>
      <trkpt lat="43.6809" lon="6.71241">
        <ele>593</ele>
        <time>2010-01-31T10:36:35Z</time>
      </trkpt>
      <trkpt lat="43.68086" lon="6.71245">
        <ele>593</ele>
        <time>2010-01-31T10:36:37Z</time>
      </trkpt>
      <trkpt lat="43.68084" lon="6.71248">
        <ele>593</ele>
        <time>2010-01-31T10:36:39Z</time>
      </trkpt>
      <trkpt lat="43.68083" lon="6.71249">
        <ele>593</ele>
        <time>2010-01-31T10:36:41Z</time>
      </trkpt>
      <trkpt lat="43.68079" lon="6.71259">
        <ele>594</ele>
        <time>2010-01-31T10:36:46Z</time>
      </trkpt>
      <trkpt lat="43.68076" lon="6.71268">
        <ele>594</ele>
        <time>2010-01-31T10:36:48Z</time>
      </trkpt>
      <trkpt lat="43.6807" lon="6.71281">
        <ele>598</ele>
        <time>2010-01-31T10:36:50Z</time>
      </trkpt>
      <trkpt lat="43.68062" lon="6.71298">
        <ele>598</ele>
        <time>2010-01-31T10:36:54Z</time>
      </trkpt>
      <trkpt lat="43.68054" lon="6.71311">
        <ele>598</ele>
        <time>2010-01-31T10:36:56Z</time>
      </trkpt>
      <trkpt lat="43.68036" lon="6.71337">
        <ele>602</ele>
        <time>2010-01-31T10:37:02Z</time>
      </trkpt>
      <trkpt lat="43.68024" lon="6.71347">
        <ele>603</ele>
        <time>2010-01-31T10:37:04Z</time>
      </trkpt>
      <trkpt lat="43.68011" lon="6.71362">
        <ele>603</ele>
        <time>2010-01-31T10:37:08Z</time>
      </trkpt>
      <trkpt lat="43.68003" lon="6.71366">
        <ele>603</ele>
        <time>2010-01-31T10:37:10Z</time>
      </trkpt>
      <trkpt lat="43.67983" lon="6.7139">
        <ele>607</ele>
        <time>2010-01-31T10:37:14Z</time>
      </trkpt>
      <trkpt lat="43.67971" lon="6.71405">
        <ele>607</ele>
        <time>2010-01-31T10:37:18Z</time>
      </trkpt>
      <trkpt lat="43.67965" lon="6.71418">
        <ele>612</ele>
        <time>2010-01-31T10:37:20Z</time>
      </trkpt>
      <trkpt lat="43.67954" lon="6.71435">
        <ele>612</ele>
        <time>2010-01-31T10:37:24Z</time>
      </trkpt>
      <trkpt lat="43.67939" lon="6.71464">
        <ele>615</ele>
        <time>2010-01-31T10:37:28Z</time>
      </trkpt>
      <trkpt lat="43.67933" lon="6.71477">
        <ele>619</ele>
        <time>2010-01-31T10:37:30Z</time>
      </trkpt>
      <trkpt lat="43.67921" lon="6.71495">
        <ele>619</ele>
        <time>2010-01-31T10:37:34Z</time>
      </trkpt>
      <trkpt lat="43.67914" lon="6.71503">
        <ele>621</ele>
        <time>2010-01-31T10:37:36Z</time>
      </trkpt>
      <trkpt lat="43.67901" lon="6.71518">
        <ele>621</ele>
        <time>2010-01-31T10:37:39Z</time>
      </trkpt>
      <trkpt lat="43.67897" lon="6.7152">
        <ele>621</ele>
        <time>2010-01-31T10:37:42Z</time>
      </trkpt>
      <trkpt lat="43.6789" lon="6.71524">
        <ele>623</ele>
        <time>2010-01-31T10:37:44Z</time>
      </trkpt>
      <trkpt lat="43.67878" lon="6.71535">
        <ele>623</ele>
        <time>2010-01-31T10:37:47Z</time>
      </trkpt>
      <trkpt lat="43.6786" lon="6.71546">
        <ele>622</ele>
        <time>2010-01-31T10:37:52Z</time>
      </trkpt>
      <trkpt lat="43.67856" lon="6.71546">
        <ele>622</ele>
        <time>2010-01-31T10:37:54Z</time>
      </trkpt>
      <trkpt lat="43.6784" lon="6.71556">
        <ele>616</ele>
        <time>2010-01-31T10:37:58Z</time>
      </trkpt>
      <trkpt lat="43.67822" lon="6.71565">
        <ele>613</ele>
        <time>2010-01-31T10:38:02Z</time>
      </trkpt>
      <trkpt lat="43.6781" lon="6.71572">
        <ele>613</ele>
        <time>2010-01-31T10:38:06Z</time>
      </trkpt>
      <trkpt lat="43.67807" lon="6.71571">
        <ele>613</ele>
        <time>2010-01-31T10:38:08Z</time>
      </trkpt>
      <trkpt lat="43.67805" lon="6.71572">
        <ele>613</ele>
        <time>2010-01-31T10:38:10Z</time>
      </trkpt>
      <trkpt lat="43.67797" lon="6.71578">
        <ele>611</ele>
        <time>2010-01-31T10:38:12Z</time>
      </trkpt>
      <trkpt lat="43.6779" lon="6.71584">
        <ele>610</ele>
        <time>2010-01-31T10:38:15Z</time>
      </trkpt>
      <trkpt lat="43.6778" lon="6.71593">
        <ele>609</ele>
        <time>2010-01-31T10:38:17Z</time>
      </trkpt>
      <trkpt lat="43.67771" lon="6.71601">
        <ele>607</ele>
        <time>2010-01-31T10:38:19Z</time>
      </trkpt>
      <trkpt lat="43.67763" lon="6.71608">
        <ele>606</ele>
        <time>2010-01-31T10:38:21Z</time>
      </trkpt>
      <trkpt lat="43.67755" lon="6.71615">
        <ele>605</ele>
        <time>2010-01-31T10:38:23Z</time>
      </trkpt>
      <trkpt lat="43.67751" lon="6.71623">
        <ele>605</ele>
        <time>2010-01-31T10:38:26Z</time>
      </trkpt>
      <trkpt lat="43.6775" lon="6.71633">
        <ele>606</ele>
        <time>2010-01-31T10:38:29Z</time>
      </trkpt>
      <trkpt lat="43.6775" lon="6.71641">
        <ele>607</ele>
        <time>2010-01-31T10:38:31Z</time>
      </trkpt>
      <trkpt lat="43.67747" lon="6.7165">
        <ele>608</ele>
        <time>2010-01-31T10:38:33Z</time>
      </trkpt>
      <trkpt lat="43.67744" lon="6.71659">
        <ele>608</ele>
        <time>2010-01-31T10:38:36Z</time>
      </trkpt>
      <trkpt lat="43.67741" lon="6.71669">
        <ele>609</ele>
        <time>2010-01-31T10:38:38Z</time>
      </trkpt>
      <trkpt lat="43.67741" lon="6.71675">
        <ele>609</ele>
        <time>2010-01-31T10:38:40Z</time>
      </trkpt>
      <trkpt lat="43.67739" lon="6.7168">
        <ele>609</ele>
        <time>2010-01-31T10:38:42Z</time>
      </trkpt>
      <trkpt lat="43.67736" lon="6.71685">
        <ele>609</ele>
        <time>2010-01-31T10:38:44Z</time>
      </trkpt>
      <trkpt lat="43.67731" lon="6.7169">
        <ele>610</ele>
        <time>2010-01-31T10:38:46Z</time>
      </trkpt>
      <trkpt lat="43.6772" lon="6.71696">
        <ele>610</ele>
        <time>2010-01-31T10:38:48Z</time>
      </trkpt>
      <trkpt lat="43.67712" lon="6.71703">
        <ele>610</ele>
        <time>2010-01-31T10:38:51Z</time>
      </trkpt>
      <trkpt lat="43.67705" lon="6.71708">
        <ele>611</ele>
        <time>2010-01-31T10:38:53Z</time>
      </trkpt>
      <trkpt lat="43.67696" lon="6.71713">
        <ele>611</ele>
        <time>2010-01-31T10:38:55Z</time>
      </trkpt>
      <trkpt lat="43.67689" lon="6.71718">
        <ele>611</ele>
        <time>2010-01-31T10:38:58Z</time>
      </trkpt>
      <trkpt lat="43.67682" lon="6.71722">
        <ele>612</ele>
        <time>2010-01-31T10:39:00Z</time>
      </trkpt>
      <trkpt lat="43.67676" lon="6.71726">
        <ele>612</ele>
        <time>2010-01-31T10:39:02Z</time>
      </trkpt>
      <trkpt lat="43.67671" lon="6.7173">
        <ele>612</ele>
        <time>2010-01-31T10:39:04Z</time>
      </trkpt>
      <trkpt lat="43.67662" lon="6.71737">
        <ele>613</ele>
        <time>2010-01-31T10:39:07Z</time>
      </trkpt>
      <trkpt lat="43.67651" lon="6.71744">
        <ele>613</ele>
        <time>2010-01-31T10:39:09Z</time>
      </trkpt>
      <trkpt lat="43.67639" lon="6.7175">
        <ele>615</ele>
        <time>2010-01-31T10:39:11Z</time>
      </trkpt>
      <trkpt lat="43.67621" lon="6.71756">
        <ele>615</ele>
        <time>2010-01-31T10:39:13Z</time>
      </trkpt>
      <trkpt lat="43.67606" lon="6.71759">
        <ele>615</ele>
        <time>2010-01-31T10:39:16Z</time>
      </trkpt>
      <trkpt lat="43.67596" lon="6.7176">
        <ele>615</ele>
        <time>2010-01-31T10:39:18Z</time>
      </trkpt>
      <trkpt lat="43.67586" lon="6.7176">
        <ele>616</ele>
        <time>2010-01-31T10:39:20Z</time>
      </trkpt>
      <trkpt lat="43.67576" lon="6.71758">
        <ele>616</ele>
        <time>2010-01-31T10:39:22Z</time>
      </trkpt>
      <trkpt lat="43.67566" lon="6.71756">
        <ele>615</ele>
        <time>2010-01-31T10:39:25Z</time>
      </trkpt>
      <trkpt lat="43.67555" lon="6.71752">
        <ele>614</ele>
        <time>2010-01-31T10:39:27Z</time>
      </trkpt>
      <trkpt lat="43.67544" lon="6.71747">
        <ele>614</ele>
        <time>2010-01-31T10:39:29Z</time>
      </trkpt>
      <trkpt lat="43.67534" lon="6.71743">
        <ele>613</ele>
        <time>2010-01-31T10:39:31Z</time>
      </trkpt>
      <trkpt lat="43.67526" lon="6.71741">
        <ele>611</ele>
        <time>2010-01-31T10:39:34Z</time>
      </trkpt>
      <trkpt lat="43.67523" lon="6.71741">
        <ele>608</ele>
        <time>2010-01-31T10:39:35Z</time>
      </trkpt>
      <trkpt lat="43.67515" lon="6.7175">
        <ele>608</ele>
        <time>2010-01-31T10:39:46Z</time>
      </trkpt>
      <trkpt lat="43.67515" lon="6.71753">
        <ele>608</ele>
        <time>2010-01-31T10:39:49Z</time>
      </trkpt>
      <trkpt lat="43.67515" lon="6.71756">
        <ele>609</ele>
        <time>2010-01-31T10:39:50Z</time>
      </trkpt>
      <trkpt lat="43.67515" lon="6.71775">
        <ele>615</ele>
        <time>2010-01-31T10:39:57Z</time>
      </trkpt>
      <trkpt lat="43.67514" lon="6.71782">
        <ele>616</ele>
        <time>2010-01-31T10:39:59Z</time>
      </trkpt>
      <trkpt lat="43.67513" lon="6.71789">
        <ele>618</ele>
        <time>2010-01-31T10:40:01Z</time>
      </trkpt>
      <trkpt lat="43.67512" lon="6.71797">
        <ele>619</ele>
        <time>2010-01-31T10:40:03Z</time>
      </trkpt>
      <trkpt lat="43.6751" lon="6.71808">
        <ele>621</ele>
        <time>2010-01-31T10:40:07Z</time>
      </trkpt>
      <trkpt lat="43.6751" lon="6.71817">
        <ele>622</ele>
        <time>2010-01-31T10:40:09Z</time>
      </trkpt>
      <trkpt lat="43.6751" lon="6.71828">
        <ele>622</ele>
        <time>2010-01-31T10:40:12Z</time>
      </trkpt>
      <trkpt lat="43.6751" lon="6.71838">
        <ele>622</ele>
        <time>2010-01-31T10:40:14Z</time>
      </trkpt>
      <trkpt lat="43.67508" lon="6.71848">
        <ele>623</ele>
        <time>2010-01-31T10:40:16Z</time>
      </trkpt>
      <trkpt lat="43.67506" lon="6.71859">
        <ele>623</ele>
        <time>2010-01-31T10:40:18Z</time>
      </trkpt>
      <trkpt lat="43.67504" lon="6.7187">
        <ele>623</ele>
        <time>2010-01-31T10:40:20Z</time>
      </trkpt>
      <trkpt lat="43.675" lon="6.71881">
        <ele>623</ele>
        <time>2010-01-31T10:40:22Z</time>
      </trkpt>
      <trkpt lat="43.67496" lon="6.7189">
        <ele>623</ele>
        <time>2010-01-31T10:40:24Z</time>
      </trkpt>
      <trkpt lat="43.67489" lon="6.719">
        <ele>622</ele>
        <time>2010-01-31T10:40:27Z</time>
      </trkpt>
      <trkpt lat="43.67483" lon="6.71906">
        <ele>622</ele>
        <time>2010-01-31T10:40:29Z</time>
      </trkpt>
      <trkpt lat="43.67473" lon="6.71912">
        <ele>620</ele>
        <time>2010-01-31T10:40:32Z</time>
      </trkpt>
      <trkpt lat="43.67464" lon="6.71918">
        <ele>620</ele>
        <time>2010-01-31T10:40:36Z</time>
      </trkpt>
      <trkpt lat="43.6746" lon="6.71914">
        <ele>620</ele>
        <time>2010-01-31T10:40:39Z</time>
      </trkpt>
      <trkpt lat="43.67457" lon="6.71915">
        <ele>620</ele>
        <time>2010-01-31T10:40:41Z</time>
      </trkpt>
      <trkpt lat="43.67456" lon="6.71913">
        <ele>620</ele>
        <time>2010-01-31T10:40:43Z</time>
      </trkpt>
      <trkpt lat="43.67456" lon="6.71909">
        <ele>620</ele>
        <time>2010-01-31T10:40:45Z</time>
      </trkpt>
      <trkpt lat="43.67456" lon="6.71907">
        <ele>614</ele>
        <time>2010-01-31T10:40:47Z</time>
      </trkpt>
      <trkpt lat="43.67452" lon="6.71907">
        <ele>612</ele>
        <time>2010-01-31T10:40:49Z</time>
      </trkpt>
      <trkpt lat="43.67449" lon="6.71908">
        <ele>610</ele>
        <time>2010-01-31T10:40:51Z</time>
      </trkpt>
      <trkpt lat="43.67448" lon="6.7191">
        <ele>609</ele>
        <time>2010-01-31T10:40:54Z</time>
      </trkpt>
      <trkpt lat="43.67447" lon="6.71913">
        <ele>610</ele>
        <time>2010-01-31T10:40:56Z</time>
      </trkpt>
      <trkpt lat="43.67448" lon="6.71917">
        <ele>611</ele>
        <time>2010-01-31T10:40:58Z</time>
      </trkpt>
      <trkpt lat="43.67449" lon="6.71922">
        <ele>612</ele>
        <time>2010-01-31T10:41:00Z</time>
      </trkpt>
      <trkpt lat="43.67449" lon="6.71927">
        <ele>615</ele>
        <time>2010-01-31T10:41:02Z</time>
      </trkpt>
      <trkpt lat="43.6745" lon="6.71934">
        <ele>616</ele>
        <time>2010-01-31T10:41:04Z</time>
      </trkpt>
      <trkpt lat="43.6745" lon="6.71943">
        <ele>618</ele>
        <time>2010-01-31T10:41:06Z</time>
      </trkpt>
      <trkpt lat="43.6745" lon="6.71953">
        <ele>618</ele>
        <time>2010-01-31T10:41:09Z</time>
      </trkpt>
      <trkpt lat="43.67449" lon="6.71963">
        <ele>620</ele>
        <time>2010-01-31T10:41:11Z</time>
      </trkpt>
      <trkpt lat="43.67447" lon="6.71974">
        <ele>621</ele>
        <time>2010-01-31T10:41:13Z</time>
      </trkpt>
      <trkpt lat="43.67444" lon="6.71985">
        <ele>622</ele>
        <time>2010-01-31T10:41:15Z</time>
      </trkpt>
      <trkpt lat="43.67441" lon="6.71996">
        <ele>622</ele>
        <time>2010-01-31T10:41:17Z</time>
      </trkpt>
      <trkpt lat="43.67436" lon="6.72007">
        <ele>622</ele>
        <time>2010-01-31T10:41:19Z</time>
      </trkpt>
      <trkpt lat="43.67417" lon="6.72028">
        <ele>622</ele>
        <time>2010-01-31T10:41:22Z</time>
      </trkpt>
      <trkpt lat="43.67402" lon="6.72041">
        <ele>621</ele>
        <time>2010-01-31T10:41:24Z</time>
      </trkpt>
      <trkpt lat="43.67387" lon="6.72049">
        <ele>620</ele>
        <time>2010-01-31T10:41:26Z</time>
      </trkpt>
      <trkpt lat="43.67372" lon="6.72053">
        <ele>618</ele>
        <time>2010-01-31T10:41:28Z</time>
      </trkpt>
      <trkpt lat="43.6736" lon="6.72058">
        <ele>616</ele>
        <time>2010-01-31T10:41:31Z</time>
      </trkpt>
      <trkpt lat="43.6735" lon="6.72062">
        <ele>616</ele>
        <time>2010-01-31T10:41:33Z</time>
      </trkpt>
      <trkpt lat="43.67343" lon="6.72066">
        <ele>615</ele>
        <time>2010-01-31T10:41:35Z</time>
      </trkpt>
      <trkpt lat="43.67329" lon="6.72076">
        <ele>615</ele>
        <time>2010-01-31T10:41:42Z</time>
      </trkpt>
      <trkpt lat="43.67326" lon="6.72076">
        <ele>613</ele>
        <time>2010-01-31T10:41:44Z</time>
      </trkpt>
      <trkpt lat="43.67325" lon="6.72077">
        <ele>612</ele>
        <time>2010-01-31T10:41:45Z</time>
      </trkpt>
      <trkpt lat="43.67313" lon="6.72088">
        <ele>596</ele>
        <time>2010-01-31T10:42:21Z</time>
      </trkpt>
      <trkpt lat="43.67313" lon="6.72089">
        <ele>597</ele>
        <time>2010-01-31T10:42:23Z</time>
      </trkpt>
      <trkpt lat="43.67312" lon="6.72091">
        <ele>597</ele>
        <time>2010-01-31T10:42:25Z</time>
      </trkpt>
      <trkpt lat="43.67301" lon="6.72097">
        <ele>579</ele>
        <time>2010-01-31T10:44:43Z</time>
      </trkpt>
      <trkpt lat="43.67298" lon="6.72099">
        <ele>581</ele>
        <time>2010-01-31T10:44:45Z</time>
      </trkpt>
      <trkpt lat="43.67294" lon="6.72101">
        <ele>582</ele>
        <time>2010-01-31T10:44:47Z</time>
      </trkpt>
      <trkpt lat="43.67285" lon="6.72103">
        <ele>583</ele>
        <time>2010-01-31T10:44:49Z</time>
      </trkpt>
      <trkpt lat="43.67276" lon="6.72104">
        <ele>585</ele>
        <time>2010-01-31T10:44:52Z</time>
      </trkpt>
      <trkpt lat="43.67269" lon="6.72103">
        <ele>586</ele>
        <time>2010-01-31T10:44:54Z</time>
      </trkpt>
      <trkpt lat="43.67262" lon="6.72101">
        <ele>588</ele>
        <time>2010-01-31T10:44:56Z</time>
      </trkpt>
      <trkpt lat="43.67256" lon="6.72098">
        <ele>588</ele>
        <time>2010-01-31T10:44:59Z</time>
      </trkpt>
      <trkpt lat="43.6725" lon="6.72096">
        <ele>589</ele>
        <time>2010-01-31T10:45:01Z</time>
      </trkpt>
      <trkpt lat="43.67245" lon="6.72094">
        <ele>589</ele>
        <time>2010-01-31T10:45:03Z</time>
      </trkpt>
      <trkpt lat="43.67241" lon="6.72093">
        <ele>589</ele>
        <time>2010-01-31T10:45:05Z</time>
      </trkpt>
      <trkpt lat="43.67237" lon="6.72092">
        <ele>589</ele>
        <time>2010-01-31T10:45:08Z</time>
      </trkpt>
      <trkpt lat="43.67233" lon="6.72091">
        <ele>589</ele>
        <time>2010-01-31T10:45:10Z</time>
      </trkpt>
      <trkpt lat="43.67229" lon="6.7209">
        <ele>589</ele>
        <time>2010-01-31T10:45:12Z</time>
      </trkpt>
      <trkpt lat="43.67226" lon="6.72089">
        <ele>589</ele>
        <time>2010-01-31T10:45:14Z</time>
      </trkpt>
      <trkpt lat="43.67223" lon="6.72088">
        <ele>588</ele>
        <time>2010-01-31T10:45:17Z</time>
      </trkpt>
      <trkpt lat="43.6722" lon="6.72087">
        <ele>588</ele>
        <time>2010-01-31T10:45:19Z</time>
      </trkpt>
      <trkpt lat="43.67218" lon="6.72086">
        <ele>588</ele>
        <time>2010-01-31T10:45:21Z</time>
      </trkpt>
      <trkpt lat="43.67214" lon="6.72084">
        <ele>589</ele>
        <time>2010-01-31T10:45:24Z</time>
      </trkpt>
      <trkpt lat="43.67211" lon="6.72083">
        <ele>589</ele>
        <time>2010-01-31T10:45:26Z</time>
      </trkpt>
      <trkpt lat="43.67208" lon="6.7208">
        <ele>589</ele>
        <time>2010-01-31T10:45:28Z</time>
      </trkpt>
      <trkpt lat="43.67204" lon="6.72078">
        <ele>588</ele>
        <time>2010-01-31T10:45:31Z</time>
      </trkpt>
      <trkpt lat="43.67201" lon="6.72076">
        <ele>589</ele>
        <time>2010-01-31T10:45:33Z</time>
      </trkpt>
      <trkpt lat="43.67197" lon="6.72074">
        <ele>589</ele>
        <time>2010-01-31T10:45:35Z</time>
      </trkpt>
      <trkpt lat="43.67193" lon="6.72072">
        <ele>589</ele>
        <time>2010-01-31T10:45:37Z</time>
      </trkpt>
      <trkpt lat="43.67188" lon="6.7207">
        <ele>589</ele>
        <time>2010-01-31T10:45:40Z</time>
      </trkpt>
      <trkpt lat="43.67184" lon="6.72069">
        <ele>589</ele>
        <time>2010-01-31T10:45:42Z</time>
      </trkpt>
      <trkpt lat="43.67179" lon="6.72069">
        <ele>589</ele>
        <time>2010-01-31T10:45:44Z</time>
      </trkpt>
      <trkpt lat="43.67175" lon="6.7207">
        <ele>590</ele>
        <time>2010-01-31T10:45:47Z</time>
      </trkpt>
      <trkpt lat="43.67172" lon="6.7207">
        <ele>591</ele>
        <time>2010-01-31T10:45:49Z</time>
      </trkpt>
      <trkpt lat="43.6717" lon="6.72071">
        <ele>592</ele>
        <time>2010-01-31T10:45:51Z</time>
      </trkpt>
      <trkpt lat="43.67168" lon="6.72072">
        <ele>593</ele>
        <time>2010-01-31T10:45:53Z</time>
      </trkpt>
      <trkpt lat="43.67168" lon="6.72072">
        <ele>594</ele>
        <time>2010-01-31T10:45:56Z</time>
      </trkpt>
      <trkpt lat="43.67169" lon="6.72072">
        <ele>596</ele>
        <time>2010-01-31T10:45:58Z</time>
      </trkpt>
      <trkpt lat="43.67159" lon="6.72075">
        <ele>593</ele>
        <time>2010-01-31T10:46:23Z</time>
      </trkpt>
      <trkpt lat="43.67155" lon="6.72078">
        <ele>593</ele>
        <time>2010-01-31T10:46:25Z</time>
      </trkpt>
      <trkpt lat="43.67151" lon="6.72081">
        <ele>594</ele>
        <time>2010-01-31T10:46:27Z</time>
      </trkpt>
      <trkpt lat="43.67147" lon="6.72085">
        <ele>595</ele>
        <time>2010-01-31T10:46:29Z</time>
      </trkpt>
      <trkpt lat="43.67143" lon="6.72088">
        <ele>596</ele>
        <time>2010-01-31T10:46:31Z</time>
      </trkpt>
      <trkpt lat="43.67139" lon="6.72092">
        <ele>597</ele>
        <time>2010-01-31T10:46:34Z</time>
      </trkpt>
      <trkpt lat="43.67134" lon="6.72095">
        <ele>599</ele>
        <time>2010-01-31T10:46:36Z</time>
      </trkpt>
      <trkpt lat="43.6713" lon="6.72098">
        <ele>601</ele>
        <time>2010-01-31T10:46:38Z</time>
      </trkpt>
      <trkpt lat="43.67126" lon="6.72101">
        <ele>601</ele>
        <time>2010-01-31T10:46:40Z</time>
      </trkpt>
      <trkpt lat="43.67122" lon="6.72103">
        <ele>602</ele>
        <time>2010-01-31T10:46:42Z</time>
      </trkpt>
      <trkpt lat="43.67118" lon="6.72105">
        <ele>604</ele>
        <time>2010-01-31T10:46:45Z</time>
      </trkpt>
      <trkpt lat="43.67114" lon="6.72106">
        <ele>605</ele>
        <time>2010-01-31T10:46:47Z</time>
      </trkpt>
      <trkpt lat="43.67109" lon="6.72107">
        <ele>605</ele>
        <time>2010-01-31T10:46:49Z</time>
      </trkpt>
      <trkpt lat="43.67104" lon="6.72108">
        <ele>604</ele>
        <time>2010-01-31T10:46:52Z</time>
      </trkpt>
      <trkpt lat="43.67099" lon="6.72107">
        <ele>604</ele>
        <time>2010-01-31T10:46:54Z</time>
      </trkpt>
      <trkpt lat="43.67093" lon="6.72105">
        <ele>603</ele>
        <time>2010-01-31T10:46:56Z</time>
      </trkpt>
      <trkpt lat="43.67088" lon="6.72103">
        <ele>603</ele>
        <time>2010-01-31T10:46:59Z</time>
      </trkpt>
      <trkpt lat="43.67082" lon="6.72099">
        <ele>603</ele>
        <time>2010-01-31T10:47:01Z</time>
      </trkpt>
      <trkpt lat="43.67076" lon="6.72094">
        <ele>603</ele>
        <time>2010-01-31T10:47:03Z</time>
      </trkpt>
      <trkpt lat="43.67071" lon="6.72088">
        <ele>603</ele>
        <time>2010-01-31T10:47:06Z</time>
      </trkpt>
      <trkpt lat="43.67066" lon="6.72082">
        <ele>603</ele>
        <time>2010-01-31T10:47:08Z</time>
      </trkpt>
      <trkpt lat="43.67061" lon="6.72076">
        <ele>602</ele>
        <time>2010-01-31T10:47:10Z</time>
      </trkpt>
      <trkpt lat="43.67056" lon="6.72069">
        <ele>602</ele>
        <time>2010-01-31T10:47:12Z</time>
      </trkpt>
      <trkpt lat="43.67051" lon="6.72062">
        <ele>602</ele>
        <time>2010-01-31T10:47:15Z</time>
      </trkpt>
      <trkpt lat="43.67046" lon="6.72056">
        <ele>601</ele>
        <time>2010-01-31T10:47:17Z</time>
      </trkpt>
      <trkpt lat="43.6704" lon="6.72045">
        <ele>601</ele>
        <time>2010-01-31T10:47:19Z</time>
      </trkpt>
      <trkpt lat="43.67034" lon="6.72038">
        <ele>601</ele>
        <time>2010-01-31T10:47:22Z</time>
      </trkpt>
      <trkpt lat="43.67029" lon="6.72032">
        <ele>600</ele>
        <time>2010-01-31T10:47:24Z</time>
      </trkpt>
      <trkpt lat="43.67024" lon="6.72026">
        <ele>600</ele>
        <time>2010-01-31T10:47:26Z</time>
      </trkpt>
      <trkpt lat="43.67019" lon="6.7202">
        <ele>599</ele>
        <time>2010-01-31T10:47:28Z</time>
      </trkpt>
      <trkpt lat="43.67015" lon="6.72013">
        <ele>598</ele>
        <time>2010-01-31T10:47:31Z</time>
      </trkpt>
      <trkpt lat="43.67011" lon="6.72006">
        <ele>598</ele>
        <time>2010-01-31T10:47:33Z</time>
      </trkpt>
      <trkpt lat="43.67007" lon="6.71998">
        <ele>597</ele>
        <time>2010-01-31T10:47:35Z</time>
      </trkpt>
      <trkpt lat="43.67004" lon="6.7199">
        <ele>598</ele>
        <time>2010-01-31T10:47:38Z</time>
      </trkpt>
      <trkpt lat="43.67001" lon="6.71982">
        <ele>598</ele>
        <time>2010-01-31T10:47:40Z</time>
      </trkpt>
      <trkpt lat="43.66998" lon="6.71973">
        <ele>597</ele>
        <time>2010-01-31T10:47:42Z</time>
      </trkpt>
      <trkpt lat="43.66995" lon="6.71964">
        <ele>597</ele>
        <time>2010-01-31T10:47:44Z</time>
      </trkpt>
      <trkpt lat="43.66992" lon="6.71956">
        <ele>597</ele>
        <time>2010-01-31T10:47:47Z</time>
      </trkpt>
      <trkpt lat="43.66989" lon="6.71946">
        <ele>597</ele>
        <time>2010-01-31T10:47:49Z</time>
      </trkpt>
      <trkpt lat="43.66986" lon="6.71936">
        <ele>597</ele>
        <time>2010-01-31T10:47:51Z</time>
      </trkpt>
      <trkpt lat="43.66983" lon="6.71926">
        <ele>597</ele>
        <time>2010-01-31T10:47:54Z</time>
      </trkpt>
      <trkpt lat="43.6698" lon="6.71917">
        <ele>597</ele>
        <time>2010-01-31T10:47:56Z</time>
      </trkpt>
      <trkpt lat="43.66977" lon="6.71908">
        <ele>598</ele>
        <time>2010-01-31T10:47:58Z</time>
      </trkpt>
      <trkpt lat="43.66974" lon="6.71899">
        <ele>598</ele>
        <time>2010-01-31T10:48:01Z</time>
      </trkpt>
      <trkpt lat="43.66971" lon="6.71891">
        <ele>598</ele>
        <time>2010-01-31T10:48:03Z</time>
      </trkpt>
      <trkpt lat="43.66968" lon="6.71884">
        <ele>598</ele>
        <time>2010-01-31T10:48:05Z</time>
      </trkpt>
      <trkpt lat="43.66966" lon="6.71877">
        <ele>598</ele>
        <time>2010-01-31T10:48:08Z</time>
      </trkpt>
      <trkpt lat="43.66963" lon="6.71871">
        <ele>598</ele>
        <time>2010-01-31T10:48:10Z</time>
      </trkpt>
      <trkpt lat="43.6696" lon="6.71865">
        <ele>599</ele>
        <time>2010-01-31T10:48:12Z</time>
      </trkpt>
      <trkpt lat="43.66957" lon="6.71858">
        <ele>599</ele>
        <time>2010-01-31T10:48:14Z</time>
      </trkpt>
      <trkpt lat="43.66953" lon="6.71851">
        <ele>599</ele>
        <time>2010-01-31T10:48:17Z</time>
      </trkpt>
      <trkpt lat="43.66949" lon="6.71844">
        <ele>600</ele>
        <time>2010-01-31T10:48:19Z</time>
      </trkpt>
      <trkpt lat="43.66944" lon="6.71837">
        <ele>600</ele>
        <time>2010-01-31T10:48:21Z</time>
      </trkpt>
      <trkpt lat="43.66939" lon="6.7183">
        <ele>600</ele>
        <time>2010-01-31T10:48:24Z</time>
      </trkpt>
      <trkpt lat="43.66934" lon="6.71823">
        <ele>601</ele>
        <time>2010-01-31T10:48:26Z</time>
      </trkpt>
      <trkpt lat="43.66929" lon="6.71816">
        <ele>602</ele>
        <time>2010-01-31T10:48:28Z</time>
      </trkpt>
      <trkpt lat="43.66924" lon="6.7181">
        <ele>602</ele>
        <time>2010-01-31T10:48:31Z</time>
      </trkpt>
      <trkpt lat="43.66919" lon="6.71803">
        <ele>603</ele>
        <time>2010-01-31T10:48:33Z</time>
      </trkpt>
      <trkpt lat="43.66913" lon="6.71797">
        <ele>603</ele>
        <time>2010-01-31T10:48:35Z</time>
      </trkpt>
      <trkpt lat="43.66908" lon="6.7179">
        <ele>604</ele>
        <time>2010-01-31T10:48:37Z</time>
      </trkpt>
      <trkpt lat="43.66902" lon="6.71783">
        <ele>604</ele>
        <time>2010-01-31T10:48:40Z</time>
      </trkpt>
      <trkpt lat="43.66895" lon="6.71777">
        <ele>605</ele>
        <time>2010-01-31T10:48:42Z</time>
      </trkpt>
      <trkpt lat="43.66889" lon="6.7177">
        <ele>606</ele>
        <time>2010-01-31T10:48:44Z</time>
      </trkpt>
      <trkpt lat="43.66882" lon="6.71764">
        <ele>605</ele>
        <time>2010-01-31T10:48:47Z</time>
      </trkpt>
      <trkpt lat="43.66875" lon="6.71758">
        <ele>605</ele>
        <time>2010-01-31T10:48:49Z</time>
      </trkpt>
      <trkpt lat="43.66867" lon="6.71754">
        <ele>605</ele>
        <time>2010-01-31T10:48:51Z</time>
      </trkpt>
      <trkpt lat="43.66859" lon="6.71751">
        <ele>605</ele>
        <time>2010-01-31T10:48:53Z</time>
      </trkpt>
      <trkpt lat="43.66851" lon="6.71747">
        <ele>606</ele>
        <time>2010-01-31T10:48:56Z</time>
      </trkpt>
      <trkpt lat="43.66842" lon="6.71745">
        <ele>608</ele>
        <time>2010-01-31T10:48:58Z</time>
      </trkpt>
      <trkpt lat="43.66834" lon="6.71743">
        <ele>610</ele>
        <time>2010-01-31T10:49:00Z</time>
      </trkpt>
      <trkpt lat="43.66826" lon="6.71741">
        <ele>612</ele>
        <time>2010-01-31T10:49:03Z</time>
      </trkpt>
      <trkpt lat="43.66818" lon="6.71738">
        <ele>613</ele>
        <time>2010-01-31T10:49:05Z</time>
      </trkpt>
      <trkpt lat="43.6681" lon="6.71735">
        <ele>614</ele>
        <time>2010-01-31T10:49:07Z</time>
      </trkpt>
      <trkpt lat="43.66803" lon="6.71732">
        <ele>615</ele>
        <time>2010-01-31T10:49:10Z</time>
      </trkpt>
      <trkpt lat="43.66795" lon="6.71729">
        <ele>616</ele>
        <time>2010-01-31T10:49:12Z</time>
      </trkpt>
      <trkpt lat="43.66787" lon="6.71726">
        <ele>617</ele>
        <time>2010-01-31T10:49:14Z</time>
      </trkpt>
      <trkpt lat="43.66779" lon="6.71723">
        <ele>617</ele>
        <time>2010-01-31T10:49:17Z</time>
      </trkpt>
      <trkpt lat="43.66771" lon="6.7172">
        <ele>617</ele>
        <time>2010-01-31T10:49:19Z</time>
      </trkpt>
      <trkpt lat="43.66763" lon="6.71716">
        <ele>618</ele>
        <time>2010-01-31T10:49:21Z</time>
      </trkpt>
      <trkpt lat="43.66754" lon="6.71713">
        <ele>618</ele>
        <time>2010-01-31T10:49:23Z</time>
      </trkpt>
      <trkpt lat="43.66746" lon="6.7171">
        <ele>618</ele>
        <time>2010-01-31T10:49:26Z</time>
      </trkpt>
      <trkpt lat="43.66737" lon="6.71706">
        <ele>620</ele>
        <time>2010-01-31T10:49:28Z</time>
      </trkpt>
      <trkpt lat="43.66728" lon="6.71703">
        <ele>621</ele>
        <time>2010-01-31T10:49:30Z</time>
      </trkpt>
      <trkpt lat="43.66718" lon="6.71699">
        <ele>622</ele>
        <time>2010-01-31T10:49:32Z</time>
      </trkpt>
      <trkpt lat="43.66709" lon="6.71695">
        <ele>623</ele>
        <time>2010-01-31T10:49:35Z</time>
      </trkpt>
      <trkpt lat="43.667" lon="6.71691">
        <ele>622</ele>
        <time>2010-01-31T10:49:37Z</time>
      </trkpt>
      <trkpt lat="43.66692" lon="6.71687">
        <ele>623</ele>
        <time>2010-01-31T10:49:39Z</time>
      </trkpt>
      <trkpt lat="43.66684" lon="6.71683">
        <ele>623</ele>
        <time>2010-01-31T10:49:41Z</time>
      </trkpt>
      <trkpt lat="43.66677" lon="6.7168">
        <ele>624</ele>
        <time>2010-01-31T10:49:44Z</time>
      </trkpt>
      <trkpt lat="43.6667" lon="6.71676">
        <ele>625</ele>
        <time>2010-01-31T10:49:46Z</time>
      </trkpt>
      <trkpt lat="43.66662" lon="6.71672">
        <ele>627</ele>
        <time>2010-01-31T10:49:48Z</time>
      </trkpt>
      <trkpt lat="43.66654" lon="6.71668">
        <ele>628</ele>
        <time>2010-01-31T10:49:50Z</time>
      </trkpt>
      <trkpt lat="43.66645" lon="6.71664">
        <ele>629</ele>
        <time>2010-01-31T10:49:52Z</time>
      </trkpt>
      <trkpt lat="43.66636" lon="6.71659">
        <ele>630</ele>
        <time>2010-01-31T10:49:55Z</time>
      </trkpt>
      <trkpt lat="43.66628" lon="6.71654">
        <ele>631</ele>
        <time>2010-01-31T10:49:57Z</time>
      </trkpt>
      <trkpt lat="43.66618" lon="6.7165">
        <ele>631</ele>
        <time>2010-01-31T10:49:59Z</time>
      </trkpt>
      <trkpt lat="43.66608" lon="6.71644">
        <ele>630</ele>
        <time>2010-01-31T10:50:02Z</time>
      </trkpt>
      <trkpt lat="43.66596" lon="6.71638">
        <ele>629</ele>
        <time>2010-01-31T10:50:04Z</time>
      </trkpt>
      <trkpt lat="43.66584" lon="6.71634">
        <ele>630</ele>
        <time>2010-01-31T10:50:06Z</time>
      </trkpt>
      <trkpt lat="43.66573" lon="6.71629">
        <ele>631</ele>
        <time>2010-01-31T10:50:08Z</time>
      </trkpt>
      <trkpt lat="43.66562" lon="6.71623">
        <ele>631</ele>
        <time>2010-01-31T10:50:11Z</time>
      </trkpt>
      <trkpt lat="43.66552" lon="6.71617">
        <ele>633</ele>
        <time>2010-01-31T10:50:13Z</time>
      </trkpt>
      <trkpt lat="43.66542" lon="6.71612">
        <ele>633</ele>
        <time>2010-01-31T10:50:15Z</time>
      </trkpt>
      <trkpt lat="43.66533" lon="6.71608">
        <ele>634</ele>
        <time>2010-01-31T10:50:17Z</time>
      </trkpt>
      <trkpt lat="43.66527" lon="6.71605">
        <ele>633</ele>
        <time>2010-01-31T10:50:19Z</time>
      </trkpt>
      <trkpt lat="43.66524" lon="6.71602">
        <ele>633</ele>
        <time>2010-01-31T10:50:22Z</time>
      </trkpt>
      <trkpt lat="43.66523" lon="6.71602">
        <ele>633</ele>
        <time>2010-01-31T10:50:22Z</time>
      </trkpt>
      <trkpt lat="43.66517" lon="6.71597">
        <ele>624</ele>
        <time>2010-01-31T10:50:53Z</time>
      </trkpt>
      <trkpt lat="43.6651" lon="6.71594">
        <ele>624</ele>
        <time>2010-01-31T10:50:55Z</time>
      </trkpt>
      <trkpt lat="43.66503" lon="6.7159">
        <ele>625</ele>
        <time>2010-01-31T10:50:57Z</time>
      </trkpt>
      <trkpt lat="43.66495" lon="6.71585">
        <ele>625</ele>
        <time>2010-01-31T10:51:00Z</time>
      </trkpt>
      <trkpt lat="43.66487" lon="6.71582">
        <ele>627</ele>
        <time>2010-01-31T10:51:02Z</time>
      </trkpt>
      <trkpt lat="43.66481" lon="6.71581">
        <ele>629</ele>
        <time>2010-01-31T10:51:04Z</time>
      </trkpt>
      <trkpt lat="43.66479" lon="6.7158">
        <ele>629</ele>
        <time>2010-01-31T10:51:06Z</time>
      </trkpt>
      <trkpt lat="43.66464" lon="6.71578">
        <ele>635</ele>
        <time>2010-01-31T10:51:11Z</time>
      </trkpt>
      <trkpt lat="43.66456" lon="6.71577">
        <ele>636</ele>
        <time>2010-01-31T10:51:13Z</time>
      </trkpt>
      <trkpt lat="43.66445" lon="6.71575">
        <ele>637</ele>
        <time>2010-01-31T10:51:15Z</time>
      </trkpt>
      <trkpt lat="43.66431" lon="6.71573">
        <ele>637</ele>
        <time>2010-01-31T10:51:17Z</time>
      </trkpt>
      <trkpt lat="43.6642" lon="6.71573">
        <ele>638</ele>
        <time>2010-01-31T10:51:20Z</time>
      </trkpt>
      <trkpt lat="43.66411" lon="6.71573">
        <ele>637</ele>
        <time>2010-01-31T10:51:22Z</time>
      </trkpt>
      <trkpt lat="43.6639" lon="6.71564">
        <ele>635</ele>
        <time>2010-01-31T10:51:29Z</time>
      </trkpt>
      <trkpt lat="43.66379" lon="6.71561">
        <ele>634</ele>
        <time>2010-01-31T10:51:31Z</time>
      </trkpt>
      <trkpt lat="43.66367" lon="6.71557">
        <ele>633</ele>
        <time>2010-01-31T10:51:34Z</time>
      </trkpt>
      <trkpt lat="43.66356" lon="6.71555">
        <ele>632</ele>
        <time>2010-01-31T10:51:36Z</time>
      </trkpt>
      <trkpt lat="43.66348" lon="6.71552">
        <ele>631</ele>
        <time>2010-01-31T10:51:38Z</time>
      </trkpt>
      <trkpt lat="43.6634" lon="6.71551">
        <ele>631</ele>
        <time>2010-01-31T10:51:40Z</time>
      </trkpt>
      <trkpt lat="43.66333" lon="6.71549">
        <ele>630</ele>
        <time>2010-01-31T10:51:42Z</time>
      </trkpt>
      <trkpt lat="43.66325" lon="6.71547">
        <ele>629</ele>
        <time>2010-01-31T10:51:45Z</time>
      </trkpt>
      <trkpt lat="43.66317" lon="6.71546">
        <ele>629</ele>
        <time>2010-01-31T10:51:47Z</time>
      </trkpt>
      <trkpt lat="43.66307" lon="6.71545">
        <ele>630</ele>
        <time>2010-01-31T10:51:49Z</time>
      </trkpt>
      <trkpt lat="43.66297" lon="6.71543">
        <ele>629</ele>
        <time>2010-01-31T10:51:51Z</time>
      </trkpt>
      <trkpt lat="43.66289" lon="6.71541">
        <ele>630</ele>
        <time>2010-01-31T10:51:53Z</time>
      </trkpt>
      <trkpt lat="43.66281" lon="6.71538">
        <ele>630</ele>
        <time>2010-01-31T10:51:56Z</time>
      </trkpt>
      <trkpt lat="43.66273" lon="6.71534">
        <ele>630</ele>
        <time>2010-01-31T10:51:58Z</time>
      </trkpt>
      <trkpt lat="43.66264" lon="6.7153">
        <ele>629</ele>
        <time>2010-01-31T10:52:00Z</time>
      </trkpt>
      <trkpt lat="43.66256" lon="6.71526">
        <ele>629</ele>
        <time>2010-01-31T10:52:02Z</time>
      </trkpt>
      <trkpt lat="43.66249" lon="6.71522">
        <ele>629</ele>
        <time>2010-01-31T10:52:04Z</time>
      </trkpt>
      <trkpt lat="43.66242" lon="6.71518">
        <ele>628</ele>
        <time>2010-01-31T10:52:07Z</time>
      </trkpt>
      <trkpt lat="43.66234" lon="6.71513">
        <ele>628</ele>
        <time>2010-01-31T10:52:09Z</time>
      </trkpt>
      <trkpt lat="43.66225" lon="6.71507">
        <ele>628</ele>
        <time>2010-01-31T10:52:11Z</time>
      </trkpt>
      <trkpt lat="43.66218" lon="6.71501">
        <ele>628</ele>
        <time>2010-01-31T10:52:14Z</time>
      </trkpt>
      <trkpt lat="43.66217" lon="6.71501">
        <ele>628</ele>
        <time>2010-01-31T10:52:14Z</time>
      </trkpt>
      <trkpt lat="43.66204" lon="6.71492">
        <ele>627</ele>
        <time>2010-01-31T10:52:20Z</time>
      </trkpt>
      <trkpt lat="43.66197" lon="6.71488">
        <ele>628</ele>
        <time>2010-01-31T10:52:23Z</time>
      </trkpt>
      <trkpt lat="43.66191" lon="6.71485">
        <ele>628</ele>
        <time>2010-01-31T10:52:25Z</time>
      </trkpt>
      <trkpt lat="43.66186" lon="6.71482">
        <ele>628</ele>
        <time>2010-01-31T10:52:27Z</time>
      </trkpt>
      <trkpt lat="43.66182" lon="6.71479">
        <ele>629</ele>
        <time>2010-01-31T10:52:29Z</time>
      </trkpt>
      <trkpt lat="43.66178" lon="6.71475">
        <ele>629</ele>
        <time>2010-01-31T10:52:32Z</time>
      </trkpt>
      <trkpt lat="43.66174" lon="6.71471">
        <ele>629</ele>
        <time>2010-01-31T10:52:34Z</time>
      </trkpt>
      <trkpt lat="43.66168" lon="6.71464">
        <ele>630</ele>
        <time>2010-01-31T10:52:36Z</time>
      </trkpt>
      <trkpt lat="43.66162" lon="6.71459">
        <ele>631</ele>
        <time>2010-01-31T10:52:38Z</time>
      </trkpt>
      <trkpt lat="43.66157" lon="6.71456">
        <ele>632</ele>
        <time>2010-01-31T10:52:41Z</time>
      </trkpt>
      <trkpt lat="43.66153" lon="6.71451">
        <ele>633</ele>
        <time>2010-01-31T10:52:43Z</time>
      </trkpt>
      <trkpt lat="43.6615" lon="6.71446">
        <ele>634</ele>
        <time>2010-01-31T10:52:45Z</time>
      </trkpt>
      <trkpt lat="43.66147" lon="6.71439">
        <ele>634</ele>
        <time>2010-01-31T10:52:48Z</time>
      </trkpt>
      <trkpt lat="43.66141" lon="6.71431">
        <ele>633</ele>
        <time>2010-01-31T10:52:50Z</time>
      </trkpt>
      <trkpt lat="43.66135" lon="6.71425">
        <ele>632</ele>
        <time>2010-01-31T10:52:52Z</time>
      </trkpt>
      <trkpt lat="43.66129" lon="6.71419">
        <ele>633</ele>
        <time>2010-01-31T10:52:54Z</time>
      </trkpt>
      <trkpt lat="43.66123" lon="6.71412">
        <ele>633</ele>
        <time>2010-01-31T10:52:57Z</time>
      </trkpt>
      <trkpt lat="43.66118" lon="6.71405">
        <ele>634</ele>
        <time>2010-01-31T10:52:59Z</time>
      </trkpt>
      <trkpt lat="43.66112" lon="6.714">
        <ele>635</ele>
        <time>2010-01-31T10:53:01Z</time>
      </trkpt>
      <trkpt lat="43.66106" lon="6.71396">
        <ele>636</ele>
        <time>2010-01-31T10:53:03Z</time>
      </trkpt>
      <trkpt lat="43.66101" lon="6.7139">
        <ele>636</ele>
        <time>2010-01-31T10:53:06Z</time>
      </trkpt>
      <trkpt lat="43.66096" lon="6.71384">
        <ele>636</ele>
        <time>2010-01-31T10:53:08Z</time>
      </trkpt>
      <trkpt lat="43.66091" lon="6.71379">
        <ele>637</ele>
        <time>2010-01-31T10:53:10Z</time>
      </trkpt>
      <trkpt lat="43.66086" lon="6.71373">
        <ele>639</ele>
        <time>2010-01-31T10:53:12Z</time>
      </trkpt>
      <trkpt lat="43.6608" lon="6.71368">
        <ele>641</ele>
        <time>2010-01-31T10:53:14Z</time>
      </trkpt>
      <trkpt lat="43.66075" lon="6.71363">
        <ele>642</ele>
        <time>2010-01-31T10:53:17Z</time>
      </trkpt>
      <trkpt lat="43.66069" lon="6.71359">
        <ele>643</ele>
        <time>2010-01-31T10:53:19Z</time>
      </trkpt>
      <trkpt lat="43.66063" lon="6.71354">
        <ele>645</ele>
        <time>2010-01-31T10:53:21Z</time>
      </trkpt>
      <trkpt lat="43.66057" lon="6.71349">
        <ele>646</ele>
        <time>2010-01-31T10:53:24Z</time>
      </trkpt>
      <trkpt lat="43.66051" lon="6.71344">
        <ele>647</ele>
        <time>2010-01-31T10:53:26Z</time>
      </trkpt>
      <trkpt lat="43.66044" lon="6.7134">
        <ele>647</ele>
        <time>2010-01-31T10:53:28Z</time>
      </trkpt>
      <trkpt lat="43.66038" lon="6.71335">
        <ele>649</ele>
        <time>2010-01-31T10:53:30Z</time>
      </trkpt>
      <trkpt lat="43.66032" lon="6.71329">
        <ele>651</ele>
        <time>2010-01-31T10:53:33Z</time>
      </trkpt>
      <trkpt lat="43.66026" lon="6.71324">
        <ele>653</ele>
        <time>2010-01-31T10:53:35Z</time>
      </trkpt>
      <trkpt lat="43.6602" lon="6.71318">
        <ele>653</ele>
        <time>2010-01-31T10:53:37Z</time>
      </trkpt>
      <trkpt lat="43.66013" lon="6.71314">
        <ele>653</ele>
        <time>2010-01-31T10:53:39Z</time>
      </trkpt>
      <trkpt lat="43.66007" lon="6.71312">
        <ele>653</ele>
        <time>2010-01-31T10:53:42Z</time>
      </trkpt>
      <trkpt lat="43.66001" lon="6.7131">
        <ele>653</ele>
        <time>2010-01-31T10:53:44Z</time>
      </trkpt>
      <trkpt lat="43.65995" lon="6.71308">
        <ele>654</ele>
        <time>2010-01-31T10:53:46Z</time>
      </trkpt>
      <trkpt lat="43.65989" lon="6.71306">
        <ele>654</ele>
        <time>2010-01-31T10:53:48Z</time>
      </trkpt>
      <trkpt lat="43.65984" lon="6.71305">
        <ele>655</ele>
        <time>2010-01-31T10:53:50Z</time>
      </trkpt>
      <trkpt lat="43.65978" lon="6.71303">
        <ele>655</ele>
        <time>2010-01-31T10:53:53Z</time>
      </trkpt>
      <trkpt lat="43.65972" lon="6.713">
        <ele>656</ele>
        <time>2010-01-31T10:53:55Z</time>
      </trkpt>
      <trkpt lat="43.65967" lon="6.71297">
        <ele>656</ele>
        <time>2010-01-31T10:53:57Z</time>
      </trkpt>
      <trkpt lat="43.65961" lon="6.71292">
        <ele>656</ele>
        <time>2010-01-31T10:53:59Z</time>
      </trkpt>
      <trkpt lat="43.65958" lon="6.71288">
        <ele>657</ele>
        <time>2010-01-31T10:54:02Z</time>
      </trkpt>
      <trkpt lat="43.65952" lon="6.71271">
        <ele>656</ele>
        <time>2010-01-31T10:54:35Z</time>
      </trkpt>
      <trkpt lat="43.65951" lon="6.7127">
        <ele>655</ele>
        <time>2010-01-31T10:54:37Z</time>
      </trkpt>
      <trkpt lat="43.65949" lon="6.71265">
        <ele>655</ele>
        <time>2010-01-31T10:54:40Z</time>
      </trkpt>
      <trkpt lat="43.65945" lon="6.71256">
        <ele>655</ele>
        <time>2010-01-31T10:54:42Z</time>
      </trkpt>
      <trkpt lat="43.65939" lon="6.71246">
        <ele>655</ele>
        <time>2010-01-31T10:54:44Z</time>
      </trkpt>
      <trkpt lat="43.65933" lon="6.71235">
        <ele>655</ele>
        <time>2010-01-31T10:54:46Z</time>
      </trkpt>
      <trkpt lat="43.65927" lon="6.71224">
        <ele>656</ele>
        <time>2010-01-31T10:54:49Z</time>
      </trkpt>
      <trkpt lat="43.65921" lon="6.71213">
        <ele>657</ele>
        <time>2010-01-31T10:54:51Z</time>
      </trkpt>
      <trkpt lat="43.65917" lon="6.71203">
        <ele>658</ele>
        <time>2010-01-31T10:54:53Z</time>
      </trkpt>
      <trkpt lat="43.65913" lon="6.71194">
        <ele>659</ele>
        <time>2010-01-31T10:54:55Z</time>
      </trkpt>
      <trkpt lat="43.6591" lon="6.71186">
        <ele>660</ele>
        <time>2010-01-31T10:54:58Z</time>
      </trkpt>
      <trkpt lat="43.65907" lon="6.71177">
        <ele>662</ele>
        <time>2010-01-31T10:55:00Z</time>
      </trkpt>
      <trkpt lat="43.65901" lon="6.71169">
        <ele>664</ele>
        <time>2010-01-31T10:55:02Z</time>
      </trkpt>
      <trkpt lat="43.65895" lon="6.71161">
        <ele>665</ele>
        <time>2010-01-31T10:55:05Z</time>
      </trkpt>
      <trkpt lat="43.65886" lon="6.71153">
        <ele>666</ele>
        <time>2010-01-31T10:55:07Z</time>
      </trkpt>
      <trkpt lat="43.65876" lon="6.71143">
        <ele>667</ele>
        <time>2010-01-31T10:55:09Z</time>
      </trkpt>
      <trkpt lat="43.65865" lon="6.71133">
        <ele>667</ele>
        <time>2010-01-31T10:55:11Z</time>
      </trkpt>
      <trkpt lat="43.65852" lon="6.71127">
        <ele>668</ele>
        <time>2010-01-31T10:55:13Z</time>
      </trkpt>
      <trkpt lat="43.6584" lon="6.71127">
        <ele>669</ele>
        <time>2010-01-31T10:55:15Z</time>
      </trkpt>
      <trkpt lat="43.65828" lon="6.71139">
        <ele>668</ele>
        <time>2010-01-31T10:55:18Z</time>
      </trkpt>
      <trkpt lat="43.65817" lon="6.71155">
        <ele>666</ele>
        <time>2010-01-31T10:55:20Z</time>
      </trkpt>
      <trkpt lat="43.65807" lon="6.71173">
        <ele>665</ele>
        <time>2010-01-31T10:55:22Z</time>
      </trkpt>
      <trkpt lat="43.65798" lon="6.71191">
        <ele>663</ele>
        <time>2010-01-31T10:55:25Z</time>
      </trkpt>
      <trkpt lat="43.65789" lon="6.71207">
        <ele>662</ele>
        <time>2010-01-31T10:55:27Z</time>
      </trkpt>
      <trkpt lat="43.65782" lon="6.71221">
        <ele>662</ele>
        <time>2010-01-31T10:55:29Z</time>
      </trkpt>
      <trkpt lat="43.65775" lon="6.71233">
        <ele>662</ele>
        <time>2010-01-31T10:55:31Z</time>
      </trkpt>
      <trkpt lat="43.65769" lon="6.71242">
        <ele>661</ele>
        <time>2010-01-31T10:55:34Z</time>
      </trkpt>
      <trkpt lat="43.65766" lon="6.71247">
        <ele>660</ele>
        <time>2010-01-31T10:55:36Z</time>
      </trkpt>
      <trkpt lat="43.65761" lon="6.71249">
        <ele>645</ele>
        <time>2010-01-31T10:55:49Z</time>
      </trkpt>
      <trkpt lat="43.65754" lon="6.71253">
        <ele>645</ele>
        <time>2010-01-31T10:55:52Z</time>
      </trkpt>
      <trkpt lat="43.65753" lon="6.71254">
        <ele>645</ele>
        <time>2010-01-31T10:55:53Z</time>
      </trkpt>
      <trkpt lat="43.65739" lon="6.71257">
        <ele>621</ele>
        <time>2010-01-31T10:56:25Z</time>
      </trkpt>
      <trkpt lat="43.65731" lon="6.71268">
        <ele>621</ele>
        <time>2010-01-31T10:56:27Z</time>
      </trkpt>
      <trkpt lat="43.65723" lon="6.7128">
        <ele>620</ele>
        <time>2010-01-31T10:56:30Z</time>
      </trkpt>
      <trkpt lat="43.65712" lon="6.71284">
        <ele>621</ele>
        <time>2010-01-31T10:56:32Z</time>
      </trkpt>
      <trkpt lat="43.65699" lon="6.71277">
        <ele>620</ele>
        <time>2010-01-31T10:56:34Z</time>
      </trkpt>
      <trkpt lat="43.6569" lon="6.71271">
        <ele>619</ele>
        <time>2010-01-31T10:56:37Z</time>
      </trkpt>
      <trkpt lat="43.65688" lon="6.71265">
        <ele>617</ele>
        <time>2010-01-31T10:56:39Z</time>
      </trkpt>
      <trkpt lat="43.65688" lon="6.7126">
        <ele>615</ele>
        <time>2010-01-31T10:56:40Z</time>
      </trkpt>
      <trkpt lat="43.65688" lon="6.71242">
        <ele>601</ele>
        <time>2010-01-31T10:57:28Z</time>
      </trkpt>
      <trkpt lat="43.6569" lon="6.71241">
        <ele>601</ele>
        <time>2010-01-31T10:57:32Z</time>
      </trkpt>
      <trkpt lat="43.65685" lon="6.71243">
        <ele>596</ele>
        <time>2010-01-31T10:59:16Z</time>
      </trkpt>
      <trkpt lat="43.65684" lon="6.71244">
        <ele>596</ele>
        <time>2010-01-31T10:59:20Z</time>
      </trkpt>
    </trkseg>
  </trk>
</gpx>